<?xml version="1.0" encoding="UTF-8" standalone="no" ?>
<gpx xmlns="http://www.topografix.com/GPX/1/1" xmlns:xsi="http://www.w3.org/2001/XMLSchema-instance" xsi:schemaLocation="http://www.topografix.com/GPX/1/1 http://www.topografix.com/GPX/1/1/gpx.xsd" version="1.1" creator="VisuGPX - https://www.visugpx.com">
  <metadata>
    <name>Rando dans la Sainte Victoire</name>
    <desc><![CDATA[Petite randonnée dans la Sainte Victoire, peu technique, accessible aux débutants. Un passage où le portage est nécessaire mais il est court.]]></desc>
  </metadata>
  <trk>
    <name><![CDATA[04/03/2012 11:47]]></name>
    <desc><![CDATA[]]></desc>
    <trkseg>
      <trkpt lat="43.52367" lon="5.54737">
        <ele>288</ele>
        <time>2012-03-04T10:40:21Z</time>
      </trkpt>
      <trkpt lat="43.52367" lon="5.54737">
        <ele>288</ele>
        <time>2012-03-04T10:40:21Z</time>
      </trkpt>
      <trkpt lat="43.52367" lon="5.54737">
        <ele>288</ele>
        <time>2012-03-04T10:40:30Z</time>
      </trkpt>
      <trkpt lat="43.5237" lon="5.54741">
        <ele>310</ele>
        <time>2012-03-04T10:40:31Z</time>
      </trkpt>
      <trkpt lat="43.52374" lon="5.54739">
        <ele>300</ele>
        <time>2012-03-04T10:40:35Z</time>
      </trkpt>
      <trkpt lat="43.52379" lon="5.54737">
        <ele>297</ele>
        <time>2012-03-04T10:40:38Z</time>
      </trkpt>
      <trkpt lat="43.52384" lon="5.54737">
        <ele>296</ele>
        <time>2012-03-04T10:40:41Z</time>
      </trkpt>
      <trkpt lat="43.52388" lon="5.54734">
        <ele>296</ele>
        <time>2012-03-04T10:40:44Z</time>
      </trkpt>
      <trkpt lat="43.52394" lon="5.54732">
        <ele>297</ele>
        <time>2012-03-04T10:40:48Z</time>
      </trkpt>
      <trkpt lat="43.52397" lon="5.54728">
        <ele>298</ele>
        <time>2012-03-04T10:40:51Z</time>
      </trkpt>
      <trkpt lat="43.52402" lon="5.54726">
        <ele>298</ele>
        <time>2012-03-04T10:40:54Z</time>
      </trkpt>
      <trkpt lat="43.52407" lon="5.54724">
        <ele>298</ele>
        <time>2012-03-04T10:40:57Z</time>
      </trkpt>
      <trkpt lat="43.5241" lon="5.54728">
        <ele>298</ele>
        <time>2012-03-04T10:41:01Z</time>
      </trkpt>
      <trkpt lat="43.52413" lon="5.54734">
        <ele>298</ele>
        <time>2012-03-04T10:41:04Z</time>
      </trkpt>
      <trkpt lat="43.52417" lon="5.54737">
        <ele>298</ele>
        <time>2012-03-04T10:41:08Z</time>
      </trkpt>
      <trkpt lat="43.52423" lon="5.54737">
        <ele>298</ele>
        <time>2012-03-04T10:41:12Z</time>
      </trkpt>
      <trkpt lat="43.52427" lon="5.54732">
        <ele>298</ele>
        <time>2012-03-04T10:41:16Z</time>
      </trkpt>
      <trkpt lat="43.52432" lon="5.5473">
        <ele>298</ele>
        <time>2012-03-04T10:41:19Z</time>
      </trkpt>
      <trkpt lat="43.52437" lon="5.54728">
        <ele>299</ele>
        <time>2012-03-04T10:41:21Z</time>
      </trkpt>
      <trkpt lat="43.52441" lon="5.54724">
        <ele>299</ele>
        <time>2012-03-04T10:41:23Z</time>
      </trkpt>
      <trkpt lat="43.52445" lon="5.54719">
        <ele>299</ele>
        <time>2012-03-04T10:41:25Z</time>
      </trkpt>
      <trkpt lat="43.52451" lon="5.54717">
        <ele>299</ele>
        <time>2012-03-04T10:41:28Z</time>
      </trkpt>
      <trkpt lat="43.52456" lon="5.54713">
        <ele>300</ele>
        <time>2012-03-04T10:41:32Z</time>
      </trkpt>
      <trkpt lat="43.52459" lon="5.54709">
        <ele>300</ele>
        <time>2012-03-04T10:41:35Z</time>
      </trkpt>
      <trkpt lat="43.52464" lon="5.54704">
        <ele>301</ele>
        <time>2012-03-04T10:41:38Z</time>
      </trkpt>
      <trkpt lat="43.52469" lon="5.547">
        <ele>301</ele>
        <time>2012-03-04T10:41:40Z</time>
      </trkpt>
      <trkpt lat="43.52472" lon="5.54696">
        <ele>301</ele>
        <time>2012-03-04T10:41:42Z</time>
      </trkpt>
      <trkpt lat="43.52476" lon="5.54692">
        <ele>301</ele>
        <time>2012-03-04T10:41:44Z</time>
      </trkpt>
      <trkpt lat="43.5248" lon="5.54685">
        <ele>302</ele>
        <time>2012-03-04T10:41:46Z</time>
      </trkpt>
      <trkpt lat="43.52483" lon="5.54681">
        <ele>302</ele>
        <time>2012-03-04T10:41:48Z</time>
      </trkpt>
      <trkpt lat="43.52486" lon="5.54674">
        <ele>302</ele>
        <time>2012-03-04T10:41:50Z</time>
      </trkpt>
      <trkpt lat="43.5249" lon="5.54668">
        <ele>302</ele>
        <time>2012-03-04T10:41:52Z</time>
      </trkpt>
      <trkpt lat="43.52494" lon="5.54662">
        <ele>302</ele>
        <time>2012-03-04T10:41:54Z</time>
      </trkpt>
      <trkpt lat="43.52498" lon="5.54655">
        <ele>302</ele>
        <time>2012-03-04T10:41:57Z</time>
      </trkpt>
      <trkpt lat="43.525" lon="5.54649">
        <ele>302</ele>
        <time>2012-03-04T10:41:59Z</time>
      </trkpt>
      <trkpt lat="43.52503" lon="5.54644">
        <ele>302</ele>
        <time>2012-03-04T10:42:01Z</time>
      </trkpt>
      <trkpt lat="43.52506" lon="5.54638">
        <ele>303</ele>
        <time>2012-03-04T10:42:03Z</time>
      </trkpt>
      <trkpt lat="43.52511" lon="5.54631">
        <ele>303</ele>
        <time>2012-03-04T10:42:06Z</time>
      </trkpt>
      <trkpt lat="43.52514" lon="5.54625">
        <ele>303</ele>
        <time>2012-03-04T10:42:09Z</time>
      </trkpt>
      <trkpt lat="43.52517" lon="5.54618">
        <ele>303</ele>
        <time>2012-03-04T10:42:12Z</time>
      </trkpt>
      <trkpt lat="43.5252" lon="5.54612">
        <ele>304</ele>
        <time>2012-03-04T10:42:15Z</time>
      </trkpt>
      <trkpt lat="43.52524" lon="5.54604">
        <ele>304</ele>
        <time>2012-03-04T10:42:18Z</time>
      </trkpt>
      <trkpt lat="43.52527" lon="5.54597">
        <ele>304</ele>
        <time>2012-03-04T10:42:21Z</time>
      </trkpt>
      <trkpt lat="43.5253" lon="5.54591">
        <ele>304</ele>
        <time>2012-03-04T10:42:24Z</time>
      </trkpt>
      <trkpt lat="43.52534" lon="5.54584">
        <ele>305</ele>
        <time>2012-03-04T10:42:27Z</time>
      </trkpt>
      <trkpt lat="43.52538" lon="5.54578">
        <ele>305</ele>
        <time>2012-03-04T10:42:30Z</time>
      </trkpt>
      <trkpt lat="43.52541" lon="5.54569">
        <ele>305</ele>
        <time>2012-03-04T10:42:33Z</time>
      </trkpt>
      <trkpt lat="43.52544" lon="5.54563">
        <ele>306</ele>
        <time>2012-03-04T10:42:36Z</time>
      </trkpt>
      <trkpt lat="43.52546" lon="5.54556">
        <ele>306</ele>
        <time>2012-03-04T10:42:39Z</time>
      </trkpt>
      <trkpt lat="43.52549" lon="5.54548">
        <ele>306</ele>
        <time>2012-03-04T10:42:42Z</time>
      </trkpt>
      <trkpt lat="43.5255" lon="5.54541">
        <ele>307</ele>
        <time>2012-03-04T10:42:44Z</time>
      </trkpt>
      <trkpt lat="43.52554" lon="5.54535">
        <ele>307</ele>
        <time>2012-03-04T10:42:47Z</time>
      </trkpt>
      <trkpt lat="43.52555" lon="5.54528">
        <ele>308</ele>
        <time>2012-03-04T10:42:49Z</time>
      </trkpt>
      <trkpt lat="43.52558" lon="5.54524">
        <ele>308</ele>
        <time>2012-03-04T10:42:52Z</time>
      </trkpt>
      <trkpt lat="43.52562" lon="5.5452">
        <ele>309</ele>
        <time>2012-03-04T10:42:55Z</time>
      </trkpt>
      <trkpt lat="43.52565" lon="5.54516">
        <ele>309</ele>
        <time>2012-03-04T10:42:57Z</time>
      </trkpt>
      <trkpt lat="43.52569" lon="5.54509">
        <ele>309</ele>
        <time>2012-03-04T10:43:01Z</time>
      </trkpt>
      <trkpt lat="43.52569" lon="5.54503">
        <ele>310</ele>
        <time>2012-03-04T10:43:03Z</time>
      </trkpt>
      <trkpt lat="43.52568" lon="5.54496">
        <ele>310</ele>
        <time>2012-03-04T10:43:06Z</time>
      </trkpt>
      <trkpt lat="43.52566" lon="5.5449">
        <ele>310</ele>
        <time>2012-03-04T10:43:08Z</time>
      </trkpt>
      <trkpt lat="43.52564" lon="5.54483">
        <ele>310</ele>
        <time>2012-03-04T10:43:11Z</time>
      </trkpt>
      <trkpt lat="43.52563" lon="5.54477">
        <ele>311</ele>
        <time>2012-03-04T10:43:14Z</time>
      </trkpt>
      <trkpt lat="43.52561" lon="5.5447">
        <ele>311</ele>
        <time>2012-03-04T10:43:17Z</time>
      </trkpt>
      <trkpt lat="43.5256" lon="5.54464">
        <ele>311</ele>
        <time>2012-03-04T10:43:20Z</time>
      </trkpt>
      <trkpt lat="43.52559" lon="5.54458">
        <ele>311</ele>
        <time>2012-03-04T10:43:23Z</time>
      </trkpt>
      <trkpt lat="43.52557" lon="5.54451">
        <ele>312</ele>
        <time>2012-03-04T10:43:26Z</time>
      </trkpt>
      <trkpt lat="43.52556" lon="5.54445">
        <ele>312</ele>
        <time>2012-03-04T10:43:29Z</time>
      </trkpt>
      <trkpt lat="43.52556" lon="5.54438">
        <ele>312</ele>
        <time>2012-03-04T10:43:32Z</time>
      </trkpt>
      <trkpt lat="43.52556" lon="5.54432">
        <ele>312</ele>
        <time>2012-03-04T10:43:35Z</time>
      </trkpt>
      <trkpt lat="43.52556" lon="5.54425">
        <ele>313</ele>
        <time>2012-03-04T10:43:39Z</time>
      </trkpt>
      <trkpt lat="43.52556" lon="5.54425">
        <ele>313</ele>
        <time>2012-03-04T10:43:39Z</time>
      </trkpt>
      <trkpt lat="43.52556" lon="5.54425">
        <ele>313</ele>
        <time>2012-03-04T10:43:40Z</time>
      </trkpt>
      <trkpt lat="43.52556" lon="5.54419">
        <ele>313</ele>
        <time>2012-03-04T10:43:43Z</time>
      </trkpt>
      <trkpt lat="43.52556" lon="5.54419">
        <ele>313</ele>
        <time>2012-03-04T10:43:43Z</time>
      </trkpt>
      <trkpt lat="43.52556" lon="5.54419">
        <ele>313</ele>
        <time>2012-03-04T10:43:44Z</time>
      </trkpt>
      <trkpt lat="43.52555" lon="5.54413">
        <ele>314</ele>
        <time>2012-03-04T10:43:48Z</time>
      </trkpt>
      <trkpt lat="43.52555" lon="5.54406">
        <ele>314</ele>
        <time>2012-03-04T10:43:51Z</time>
      </trkpt>
      <trkpt lat="43.52555" lon="5.54406">
        <ele>314</ele>
        <time>2012-03-04T10:43:51Z</time>
      </trkpt>
      <trkpt lat="43.52555" lon="5.54406">
        <ele>314</ele>
        <time>2012-03-04T10:43:52Z</time>
      </trkpt>
      <trkpt lat="43.52555" lon="5.544">
        <ele>315</ele>
        <time>2012-03-04T10:43:55Z</time>
      </trkpt>
      <trkpt lat="43.52554" lon="5.54393">
        <ele>316</ele>
        <time>2012-03-04T10:43:59Z</time>
      </trkpt>
      <trkpt lat="43.52552" lon="5.54387">
        <ele>316</ele>
        <time>2012-03-04T10:44:02Z</time>
      </trkpt>
      <trkpt lat="43.52552" lon="5.54387">
        <ele>316</ele>
        <time>2012-03-04T10:44:02Z</time>
      </trkpt>
      <trkpt lat="43.52552" lon="5.54387">
        <ele>317</ele>
        <time>2012-03-04T10:44:03Z</time>
      </trkpt>
      <trkpt lat="43.52551" lon="5.5438">
        <ele>317</ele>
        <time>2012-03-04T10:44:06Z</time>
      </trkpt>
      <trkpt lat="43.52548" lon="5.54374">
        <ele>317</ele>
        <time>2012-03-04T10:44:09Z</time>
      </trkpt>
      <trkpt lat="43.52545" lon="5.54368">
        <ele>318</ele>
        <time>2012-03-04T10:44:12Z</time>
      </trkpt>
      <trkpt lat="43.52543" lon="5.54361">
        <ele>318</ele>
        <time>2012-03-04T10:44:15Z</time>
      </trkpt>
      <trkpt lat="43.52542" lon="5.54355">
        <ele>319</ele>
        <time>2012-03-04T10:44:18Z</time>
      </trkpt>
      <trkpt lat="43.52542" lon="5.54355">
        <ele>319</ele>
        <time>2012-03-04T10:44:18Z</time>
      </trkpt>
      <trkpt lat="43.52542" lon="5.54355">
        <ele>319</ele>
        <time>2012-03-04T10:44:19Z</time>
      </trkpt>
      <trkpt lat="43.52541" lon="5.54348">
        <ele>319</ele>
        <time>2012-03-04T10:44:22Z</time>
      </trkpt>
      <trkpt lat="43.52541" lon="5.54342">
        <ele>320</ele>
        <time>2012-03-04T10:44:24Z</time>
      </trkpt>
      <trkpt lat="43.5254" lon="5.54335">
        <ele>320</ele>
        <time>2012-03-04T10:44:27Z</time>
      </trkpt>
      <trkpt lat="43.5254" lon="5.54329">
        <ele>320</ele>
        <time>2012-03-04T10:44:29Z</time>
      </trkpt>
      <trkpt lat="43.52538" lon="5.54322">
        <ele>321</ele>
        <time>2012-03-04T10:44:32Z</time>
      </trkpt>
      <trkpt lat="43.52538" lon="5.54322">
        <ele>321</ele>
        <time>2012-03-04T10:44:32Z</time>
      </trkpt>
      <trkpt lat="43.52538" lon="5.54322">
        <ele>321</ele>
        <time>2012-03-04T10:44:33Z</time>
      </trkpt>
      <trkpt lat="43.52538" lon="5.54316">
        <ele>321</ele>
        <time>2012-03-04T10:44:36Z</time>
      </trkpt>
      <trkpt lat="43.52538" lon="5.5431">
        <ele>321</ele>
        <time>2012-03-04T10:44:39Z</time>
      </trkpt>
      <trkpt lat="43.52538" lon="5.54303">
        <ele>322</ele>
        <time>2012-03-04T10:44:42Z</time>
      </trkpt>
      <trkpt lat="43.5254" lon="5.54297">
        <ele>322</ele>
        <time>2012-03-04T10:44:45Z</time>
      </trkpt>
      <trkpt lat="43.52541" lon="5.5429">
        <ele>322</ele>
        <time>2012-03-04T10:44:48Z</time>
      </trkpt>
      <trkpt lat="43.52541" lon="5.54284">
        <ele>323</ele>
        <time>2012-03-04T10:44:52Z</time>
      </trkpt>
      <trkpt lat="43.52544" lon="5.54277">
        <ele>324</ele>
        <time>2012-03-04T10:44:56Z</time>
      </trkpt>
      <trkpt lat="43.52545" lon="5.54271">
        <ele>325</ele>
        <time>2012-03-04T10:45:00Z</time>
      </trkpt>
      <trkpt lat="43.52547" lon="5.54264">
        <ele>327</ele>
        <time>2012-03-04T10:45:05Z</time>
      </trkpt>
      <trkpt lat="43.52547" lon="5.54264">
        <ele>327</ele>
        <time>2012-03-04T10:45:05Z</time>
      </trkpt>
      <trkpt lat="43.52547" lon="5.54264">
        <ele>327</ele>
        <time>2012-03-04T10:45:06Z</time>
      </trkpt>
      <trkpt lat="43.52548" lon="5.54258">
        <ele>328</ele>
        <time>2012-03-04T10:45:09Z</time>
      </trkpt>
      <trkpt lat="43.52551" lon="5.54252">
        <ele>328</ele>
        <time>2012-03-04T10:45:12Z</time>
      </trkpt>
      <trkpt lat="43.52552" lon="5.54245">
        <ele>330</ele>
        <time>2012-03-04T10:45:16Z</time>
      </trkpt>
      <trkpt lat="43.52554" lon="5.54239">
        <ele>330</ele>
        <time>2012-03-04T10:45:19Z</time>
      </trkpt>
      <trkpt lat="43.52554" lon="5.54239">
        <ele>330</ele>
        <time>2012-03-04T10:45:19Z</time>
      </trkpt>
      <trkpt lat="43.52554" lon="5.54239">
        <ele>331</ele>
        <time>2012-03-04T10:45:20Z</time>
      </trkpt>
      <trkpt lat="43.52555" lon="5.54232">
        <ele>332</ele>
        <time>2012-03-04T10:45:24Z</time>
      </trkpt>
      <trkpt lat="43.52557" lon="5.54226">
        <ele>333</ele>
        <time>2012-03-04T10:45:28Z</time>
      </trkpt>
      <trkpt lat="43.52557" lon="5.54226">
        <ele>333</ele>
        <time>2012-03-04T10:45:28Z</time>
      </trkpt>
      <trkpt lat="43.52557" lon="5.54226">
        <ele>333</ele>
        <time>2012-03-04T10:45:29Z</time>
      </trkpt>
      <trkpt lat="43.52559" lon="5.54219">
        <ele>334</ele>
        <time>2012-03-04T10:45:33Z</time>
      </trkpt>
      <trkpt lat="43.5256" lon="5.54213">
        <ele>334</ele>
        <time>2012-03-04T10:45:36Z</time>
      </trkpt>
      <trkpt lat="43.52561" lon="5.54207">
        <ele>335</ele>
        <time>2012-03-04T10:45:39Z</time>
      </trkpt>
      <trkpt lat="43.52562" lon="5.542">
        <ele>336</ele>
        <time>2012-03-04T10:45:42Z</time>
      </trkpt>
      <trkpt lat="43.52563" lon="5.54194">
        <ele>336</ele>
        <time>2012-03-04T10:45:45Z</time>
      </trkpt>
      <trkpt lat="43.52563" lon="5.54187">
        <ele>337</ele>
        <time>2012-03-04T10:45:48Z</time>
      </trkpt>
      <trkpt lat="43.52563" lon="5.54181">
        <ele>338</ele>
        <time>2012-03-04T10:45:52Z</time>
      </trkpt>
      <trkpt lat="43.52562" lon="5.54174">
        <ele>339</ele>
        <time>2012-03-04T10:45:55Z</time>
      </trkpt>
      <trkpt lat="43.5256" lon="5.54168">
        <ele>339</ele>
        <time>2012-03-04T10:45:59Z</time>
      </trkpt>
      <trkpt lat="43.52559" lon="5.54159">
        <ele>340</ele>
        <time>2012-03-04T10:46:02Z</time>
      </trkpt>
      <trkpt lat="43.52558" lon="5.54153">
        <ele>340</ele>
        <time>2012-03-04T10:46:05Z</time>
      </trkpt>
      <trkpt lat="43.5256" lon="5.54146">
        <ele>341</ele>
        <time>2012-03-04T10:46:07Z</time>
      </trkpt>
      <trkpt lat="43.52563" lon="5.5414">
        <ele>341</ele>
        <time>2012-03-04T10:46:10Z</time>
      </trkpt>
      <trkpt lat="43.52568" lon="5.54134">
        <ele>342</ele>
        <time>2012-03-04T10:46:14Z</time>
      </trkpt>
      <trkpt lat="43.52571" lon="5.54127">
        <ele>343</ele>
        <time>2012-03-04T10:46:17Z</time>
      </trkpt>
      <trkpt lat="43.52573" lon="5.54121">
        <ele>343</ele>
        <time>2012-03-04T10:46:20Z</time>
      </trkpt>
      <trkpt lat="43.52574" lon="5.54114">
        <ele>344</ele>
        <time>2012-03-04T10:46:24Z</time>
      </trkpt>
      <trkpt lat="43.52577" lon="5.5411">
        <ele>345</ele>
        <time>2012-03-04T10:46:28Z</time>
      </trkpt>
      <trkpt lat="43.52582" lon="5.54106">
        <ele>346</ele>
        <time>2012-03-04T10:46:32Z</time>
      </trkpt>
      <trkpt lat="43.52588" lon="5.54106">
        <ele>347</ele>
        <time>2012-03-04T10:46:36Z</time>
      </trkpt>
      <trkpt lat="43.52592" lon="5.54108">
        <ele>348</ele>
        <time>2012-03-04T10:46:40Z</time>
      </trkpt>
      <trkpt lat="43.52595" lon="5.54112">
        <ele>349</ele>
        <time>2012-03-04T10:46:43Z</time>
      </trkpt>
      <trkpt lat="43.52598" lon="5.54119">
        <ele>350</ele>
        <time>2012-03-04T10:46:48Z</time>
      </trkpt>
      <trkpt lat="43.52598" lon="5.54119">
        <ele>350</ele>
        <time>2012-03-04T10:46:48Z</time>
      </trkpt>
      <trkpt lat="43.52598" lon="5.54119">
        <ele>350</ele>
        <time>2012-03-04T10:46:49Z</time>
      </trkpt>
      <trkpt lat="43.52601" lon="5.54114">
        <ele>351</ele>
        <time>2012-03-04T10:47:01Z</time>
      </trkpt>
      <trkpt lat="43.52605" lon="5.5411">
        <ele>351</ele>
        <time>2012-03-04T10:47:07Z</time>
      </trkpt>
      <trkpt lat="43.52608" lon="5.54104">
        <ele>352</ele>
        <time>2012-03-04T10:47:12Z</time>
      </trkpt>
      <trkpt lat="43.52608" lon="5.54104">
        <ele>352</ele>
        <time>2012-03-04T10:47:12Z</time>
      </trkpt>
      <trkpt lat="43.52608" lon="5.54104">
        <ele>352</ele>
        <time>2012-03-04T10:47:13Z</time>
      </trkpt>
      <trkpt lat="43.52613" lon="5.54099">
        <ele>352</ele>
        <time>2012-03-04T10:47:26Z</time>
      </trkpt>
      <trkpt lat="43.52613" lon="5.54099">
        <ele>352</ele>
        <time>2012-03-04T10:47:26Z</time>
      </trkpt>
      <trkpt lat="43.52613" lon="5.54099">
        <ele>353</ele>
        <time>2012-03-04T10:47:34Z</time>
      </trkpt>
      <trkpt lat="43.52608" lon="5.54093">
        <ele>355</ele>
        <time>2012-03-04T10:47:42Z</time>
      </trkpt>
      <trkpt lat="43.52604" lon="5.54088">
        <ele>357</ele>
        <time>2012-03-04T10:47:45Z</time>
      </trkpt>
      <trkpt lat="43.526" lon="5.54086">
        <ele>358</ele>
        <time>2012-03-04T10:47:48Z</time>
      </trkpt>
      <trkpt lat="43.52594" lon="5.54088">
        <ele>359</ele>
        <time>2012-03-04T10:47:50Z</time>
      </trkpt>
      <trkpt lat="43.52588" lon="5.54093">
        <ele>360</ele>
        <time>2012-03-04T10:47:52Z</time>
      </trkpt>
      <trkpt lat="43.5258" lon="5.54099">
        <ele>360</ele>
        <time>2012-03-04T10:47:54Z</time>
      </trkpt>
      <trkpt lat="43.52575" lon="5.54106">
        <ele>360</ele>
        <time>2012-03-04T10:47:56Z</time>
      </trkpt>
      <trkpt lat="43.52569" lon="5.54106">
        <ele>360</ele>
        <time>2012-03-04T10:47:58Z</time>
      </trkpt>
      <trkpt lat="43.52564" lon="5.54104">
        <ele>360</ele>
        <time>2012-03-04T10:48:00Z</time>
      </trkpt>
      <trkpt lat="43.52561" lon="5.54097">
        <ele>360</ele>
        <time>2012-03-04T10:48:03Z</time>
      </trkpt>
      <trkpt lat="43.52558" lon="5.54091">
        <ele>360</ele>
        <time>2012-03-04T10:48:06Z</time>
      </trkpt>
      <trkpt lat="43.52558" lon="5.54091">
        <ele>360</ele>
        <time>2012-03-04T10:48:06Z</time>
      </trkpt>
      <trkpt lat="43.52558" lon="5.54091">
        <ele>360</ele>
        <time>2012-03-04T10:48:07Z</time>
      </trkpt>
      <trkpt lat="43.52556" lon="5.54084">
        <ele>359</ele>
        <time>2012-03-04T10:48:10Z</time>
      </trkpt>
      <trkpt lat="43.52554" lon="5.54078">
        <ele>359</ele>
        <time>2012-03-04T10:48:14Z</time>
      </trkpt>
      <trkpt lat="43.52555" lon="5.54071">
        <ele>359</ele>
        <time>2012-03-04T10:48:17Z</time>
      </trkpt>
      <trkpt lat="43.52556" lon="5.54065">
        <ele>358</ele>
        <time>2012-03-04T10:48:21Z</time>
      </trkpt>
      <trkpt lat="43.52557" lon="5.54058">
        <ele>358</ele>
        <time>2012-03-04T10:48:24Z</time>
      </trkpt>
      <trkpt lat="43.52559" lon="5.54052">
        <ele>358</ele>
        <time>2012-03-04T10:48:28Z</time>
      </trkpt>
      <trkpt lat="43.52561" lon="5.54046">
        <ele>358</ele>
        <time>2012-03-04T10:48:31Z</time>
      </trkpt>
      <trkpt lat="43.52565" lon="5.54039">
        <ele>358</ele>
        <time>2012-03-04T10:48:36Z</time>
      </trkpt>
      <trkpt lat="43.52569" lon="5.54033">
        <ele>357</ele>
        <time>2012-03-04T10:48:41Z</time>
      </trkpt>
      <trkpt lat="43.52571" lon="5.54026">
        <ele>357</ele>
        <time>2012-03-04T10:48:45Z</time>
      </trkpt>
      <trkpt lat="43.52573" lon="5.5402">
        <ele>357</ele>
        <time>2012-03-04T10:48:49Z</time>
      </trkpt>
      <trkpt lat="43.52576" lon="5.54013">
        <ele>358</ele>
        <time>2012-03-04T10:48:53Z</time>
      </trkpt>
      <trkpt lat="43.52578" lon="5.54007">
        <ele>358</ele>
        <time>2012-03-04T10:48:57Z</time>
      </trkpt>
      <trkpt lat="43.52579" lon="5.54001">
        <ele>358</ele>
        <time>2012-03-04T10:49:01Z</time>
      </trkpt>
      <trkpt lat="43.5258" lon="5.53994">
        <ele>358</ele>
        <time>2012-03-04T10:49:05Z</time>
      </trkpt>
      <trkpt lat="43.52579" lon="5.53988">
        <ele>358</ele>
        <time>2012-03-04T10:49:09Z</time>
      </trkpt>
      <trkpt lat="43.52579" lon="5.53981">
        <ele>358</ele>
        <time>2012-03-04T10:49:13Z</time>
      </trkpt>
      <trkpt lat="43.52579" lon="5.53975">
        <ele>359</ele>
        <time>2012-03-04T10:49:17Z</time>
      </trkpt>
      <trkpt lat="43.52578" lon="5.53968">
        <ele>359</ele>
        <time>2012-03-04T10:49:21Z</time>
      </trkpt>
      <trkpt lat="43.52577" lon="5.53962">
        <ele>359</ele>
        <time>2012-03-04T10:49:25Z</time>
      </trkpt>
      <trkpt lat="43.52577" lon="5.53956">
        <ele>359</ele>
        <time>2012-03-04T10:49:28Z</time>
      </trkpt>
      <trkpt lat="43.52577" lon="5.53956">
        <ele>359</ele>
        <time>2012-03-04T10:49:28Z</time>
      </trkpt>
      <trkpt lat="43.52577" lon="5.53956">
        <ele>360</ele>
        <time>2012-03-04T10:49:34Z</time>
      </trkpt>
      <trkpt lat="43.5258" lon="5.53949">
        <ele>361</ele>
        <time>2012-03-04T10:49:58Z</time>
      </trkpt>
      <trkpt lat="43.52582" lon="5.53943">
        <ele>361</ele>
        <time>2012-03-04T10:50:02Z</time>
      </trkpt>
      <trkpt lat="43.52584" lon="5.53936">
        <ele>362</ele>
        <time>2012-03-04T10:50:05Z</time>
      </trkpt>
      <trkpt lat="43.52584" lon="5.5393">
        <ele>362</ele>
        <time>2012-03-04T10:50:08Z</time>
      </trkpt>
      <trkpt lat="43.52584" lon="5.53923">
        <ele>362</ele>
        <time>2012-03-04T10:50:11Z</time>
      </trkpt>
      <trkpt lat="43.52584" lon="5.53917">
        <ele>363</ele>
        <time>2012-03-04T10:50:14Z</time>
      </trkpt>
      <trkpt lat="43.52584" lon="5.5391">
        <ele>363</ele>
        <time>2012-03-04T10:50:18Z</time>
      </trkpt>
      <trkpt lat="43.52584" lon="5.53904">
        <ele>364</ele>
        <time>2012-03-04T10:50:21Z</time>
      </trkpt>
      <trkpt lat="43.52582" lon="5.53898">
        <ele>364</ele>
        <time>2012-03-04T10:50:25Z</time>
      </trkpt>
      <trkpt lat="43.52582" lon="5.53891">
        <ele>364</ele>
        <time>2012-03-04T10:50:27Z</time>
      </trkpt>
      <trkpt lat="43.52582" lon="5.53885">
        <ele>365</ele>
        <time>2012-03-04T10:50:29Z</time>
      </trkpt>
      <trkpt lat="43.52582" lon="5.53878">
        <ele>365</ele>
        <time>2012-03-04T10:50:32Z</time>
      </trkpt>
      <trkpt lat="43.52582" lon="5.5387">
        <ele>366</ele>
        <time>2012-03-04T10:50:35Z</time>
      </trkpt>
      <trkpt lat="43.52582" lon="5.53863">
        <ele>366</ele>
        <time>2012-03-04T10:50:38Z</time>
      </trkpt>
      <trkpt lat="43.52582" lon="5.53857">
        <ele>367</ele>
        <time>2012-03-04T10:50:41Z</time>
      </trkpt>
      <trkpt lat="43.52582" lon="5.5385">
        <ele>367</ele>
        <time>2012-03-04T10:50:48Z</time>
      </trkpt>
      <trkpt lat="43.52582" lon="5.5385">
        <ele>367</ele>
        <time>2012-03-04T10:50:48Z</time>
      </trkpt>
      <trkpt lat="43.52582" lon="5.5385">
        <ele>368</ele>
        <time>2012-03-04T10:50:58Z</time>
      </trkpt>
      <trkpt lat="43.5258" lon="5.53844">
        <ele>369</ele>
        <time>2012-03-04T10:51:09Z</time>
      </trkpt>
      <trkpt lat="43.5258" lon="5.53838">
        <ele>369</ele>
        <time>2012-03-04T10:51:12Z</time>
      </trkpt>
      <trkpt lat="43.52579" lon="5.53829">
        <ele>370</ele>
        <time>2012-03-04T10:51:15Z</time>
      </trkpt>
      <trkpt lat="43.52579" lon="5.53822">
        <ele>370</ele>
        <time>2012-03-04T10:51:17Z</time>
      </trkpt>
      <trkpt lat="43.52577" lon="5.53814">
        <ele>371</ele>
        <time>2012-03-04T10:51:19Z</time>
      </trkpt>
      <trkpt lat="43.52576" lon="5.53805">
        <ele>371</ele>
        <time>2012-03-04T10:51:21Z</time>
      </trkpt>
      <trkpt lat="43.52574" lon="5.53797">
        <ele>371</ele>
        <time>2012-03-04T10:51:23Z</time>
      </trkpt>
      <trkpt lat="43.52572" lon="5.53788">
        <ele>372</ele>
        <time>2012-03-04T10:51:25Z</time>
      </trkpt>
      <trkpt lat="43.5257" lon="5.5378">
        <ele>372</ele>
        <time>2012-03-04T10:51:27Z</time>
      </trkpt>
      <trkpt lat="43.52566" lon="5.53771">
        <ele>373</ele>
        <time>2012-03-04T10:51:29Z</time>
      </trkpt>
      <trkpt lat="43.52565" lon="5.53764">
        <ele>373</ele>
        <time>2012-03-04T10:51:31Z</time>
      </trkpt>
      <trkpt lat="43.52562" lon="5.53756">
        <ele>373</ele>
        <time>2012-03-04T10:51:34Z</time>
      </trkpt>
      <trkpt lat="43.52559" lon="5.5375">
        <ele>374</ele>
        <time>2012-03-04T10:51:36Z</time>
      </trkpt>
      <trkpt lat="43.52557" lon="5.53743">
        <ele>374</ele>
        <time>2012-03-04T10:51:38Z</time>
      </trkpt>
      <trkpt lat="43.52555" lon="5.53737">
        <ele>375</ele>
        <time>2012-03-04T10:51:40Z</time>
      </trkpt>
      <trkpt lat="43.52552" lon="5.5373">
        <ele>375</ele>
        <time>2012-03-04T10:51:42Z</time>
      </trkpt>
      <trkpt lat="43.52551" lon="5.53724">
        <ele>375</ele>
        <time>2012-03-04T10:51:44Z</time>
      </trkpt>
      <trkpt lat="43.5255" lon="5.53717">
        <ele>376</ele>
        <time>2012-03-04T10:51:46Z</time>
      </trkpt>
      <trkpt lat="43.52549" lon="5.53711">
        <ele>376</ele>
        <time>2012-03-04T10:51:48Z</time>
      </trkpt>
      <trkpt lat="43.52549" lon="5.53704">
        <ele>376</ele>
        <time>2012-03-04T10:51:50Z</time>
      </trkpt>
      <trkpt lat="43.5255" lon="5.53696">
        <ele>377</ele>
        <time>2012-03-04T10:51:53Z</time>
      </trkpt>
      <trkpt lat="43.52551" lon="5.53687">
        <ele>378</ele>
        <time>2012-03-04T10:51:55Z</time>
      </trkpt>
      <trkpt lat="43.52552" lon="5.53681">
        <ele>379</ele>
        <time>2012-03-04T10:51:56Z</time>
      </trkpt>
      <trkpt lat="43.52556" lon="5.53674">
        <ele>379</ele>
        <time>2012-03-04T10:51:58Z</time>
      </trkpt>
      <trkpt lat="43.5256" lon="5.53668">
        <ele>379</ele>
        <time>2012-03-04T10:52:02Z</time>
      </trkpt>
      <trkpt lat="43.52565" lon="5.53666">
        <ele>379</ele>
        <time>2012-03-04T10:52:05Z</time>
      </trkpt>
      <trkpt lat="43.5257" lon="5.53662">
        <ele>379</ele>
        <time>2012-03-04T10:52:08Z</time>
      </trkpt>
      <trkpt lat="43.52576" lon="5.53659">
        <ele>379</ele>
        <time>2012-03-04T10:52:11Z</time>
      </trkpt>
      <trkpt lat="43.52582" lon="5.53657">
        <ele>379</ele>
        <time>2012-03-04T10:52:14Z</time>
      </trkpt>
      <trkpt lat="43.52588" lon="5.53655">
        <ele>379</ele>
        <time>2012-03-04T10:52:17Z</time>
      </trkpt>
      <trkpt lat="43.52592" lon="5.53653">
        <ele>379</ele>
        <time>2012-03-04T10:52:20Z</time>
      </trkpt>
      <trkpt lat="43.52596" lon="5.53649">
        <ele>379</ele>
        <time>2012-03-04T10:52:23Z</time>
      </trkpt>
      <trkpt lat="43.52602" lon="5.53646">
        <ele>379</ele>
        <time>2012-03-04T10:52:26Z</time>
      </trkpt>
      <trkpt lat="43.52606" lon="5.53644">
        <ele>380</ele>
        <time>2012-03-04T10:52:28Z</time>
      </trkpt>
      <trkpt lat="43.52612" lon="5.53644">
        <ele>380</ele>
        <time>2012-03-04T10:52:30Z</time>
      </trkpt>
      <trkpt lat="43.52617" lon="5.53642">
        <ele>380</ele>
        <time>2012-03-04T10:52:33Z</time>
      </trkpt>
      <trkpt lat="43.52621" lon="5.5364">
        <ele>380</ele>
        <time>2012-03-04T10:52:35Z</time>
      </trkpt>
      <trkpt lat="43.52626" lon="5.5364">
        <ele>380</ele>
        <time>2012-03-04T10:52:37Z</time>
      </trkpt>
      <trkpt lat="43.52633" lon="5.53642">
        <ele>380</ele>
        <time>2012-03-04T10:52:40Z</time>
      </trkpt>
      <trkpt lat="43.52638" lon="5.53644">
        <ele>380</ele>
        <time>2012-03-04T10:52:43Z</time>
      </trkpt>
      <trkpt lat="43.52643" lon="5.53649">
        <ele>380</ele>
        <time>2012-03-04T10:52:46Z</time>
      </trkpt>
      <trkpt lat="43.52648" lon="5.53651">
        <ele>381</ele>
        <time>2012-03-04T10:52:49Z</time>
      </trkpt>
      <trkpt lat="43.52653" lon="5.53653">
        <ele>381</ele>
        <time>2012-03-04T10:52:52Z</time>
      </trkpt>
      <trkpt lat="43.5266" lon="5.53653">
        <ele>381</ele>
        <time>2012-03-04T10:52:55Z</time>
      </trkpt>
      <trkpt lat="43.52664" lon="5.53651">
        <ele>381</ele>
        <time>2012-03-04T10:52:57Z</time>
      </trkpt>
      <trkpt lat="43.52668" lon="5.53646">
        <ele>381</ele>
        <time>2012-03-04T10:53:00Z</time>
      </trkpt>
      <trkpt lat="43.52673" lon="5.5364">
        <ele>381</ele>
        <time>2012-03-04T10:53:03Z</time>
      </trkpt>
      <trkpt lat="43.52676" lon="5.53634">
        <ele>382</ele>
        <time>2012-03-04T10:53:05Z</time>
      </trkpt>
      <trkpt lat="43.52678" lon="5.53627">
        <ele>382</ele>
        <time>2012-03-04T10:53:08Z</time>
      </trkpt>
      <trkpt lat="43.52681" lon="5.53619">
        <ele>382</ele>
        <time>2012-03-04T10:53:11Z</time>
      </trkpt>
      <trkpt lat="43.52684" lon="5.53612">
        <ele>382</ele>
        <time>2012-03-04T10:53:14Z</time>
      </trkpt>
      <trkpt lat="43.52688" lon="5.53606">
        <ele>383</ele>
        <time>2012-03-04T10:53:16Z</time>
      </trkpt>
      <trkpt lat="43.5269" lon="5.53599">
        <ele>383</ele>
        <time>2012-03-04T10:53:18Z</time>
      </trkpt>
      <trkpt lat="43.52691" lon="5.53593">
        <ele>383</ele>
        <time>2012-03-04T10:53:20Z</time>
      </trkpt>
      <trkpt lat="43.52691" lon="5.53584">
        <ele>383</ele>
        <time>2012-03-04T10:53:22Z</time>
      </trkpt>
      <trkpt lat="43.52692" lon="5.53578">
        <ele>383</ele>
        <time>2012-03-04T10:53:24Z</time>
      </trkpt>
      <trkpt lat="43.52692" lon="5.53571">
        <ele>384</ele>
        <time>2012-03-04T10:53:26Z</time>
      </trkpt>
      <trkpt lat="43.52693" lon="5.53565">
        <ele>384</ele>
        <time>2012-03-04T10:53:28Z</time>
      </trkpt>
      <trkpt lat="43.52693" lon="5.53558">
        <ele>384</ele>
        <time>2012-03-04T10:53:30Z</time>
      </trkpt>
      <trkpt lat="43.52693" lon="5.53552">
        <ele>384</ele>
        <time>2012-03-04T10:53:32Z</time>
      </trkpt>
      <trkpt lat="43.52693" lon="5.53546">
        <ele>385</ele>
        <time>2012-03-04T10:53:34Z</time>
      </trkpt>
      <trkpt lat="43.52693" lon="5.53539">
        <ele>385</ele>
        <time>2012-03-04T10:53:36Z</time>
      </trkpt>
      <trkpt lat="43.52693" lon="5.53533">
        <ele>385</ele>
        <time>2012-03-04T10:53:38Z</time>
      </trkpt>
      <trkpt lat="43.52693" lon="5.53526">
        <ele>385</ele>
        <time>2012-03-04T10:53:40Z</time>
      </trkpt>
      <trkpt lat="43.52693" lon="5.5352">
        <ele>386</ele>
        <time>2012-03-04T10:53:42Z</time>
      </trkpt>
      <trkpt lat="43.52692" lon="5.53514">
        <ele>386</ele>
        <time>2012-03-04T10:53:44Z</time>
      </trkpt>
      <trkpt lat="43.52692" lon="5.53507">
        <ele>386</ele>
        <time>2012-03-04T10:53:46Z</time>
      </trkpt>
      <trkpt lat="43.52691" lon="5.53498">
        <ele>387</ele>
        <time>2012-03-04T10:53:49Z</time>
      </trkpt>
      <trkpt lat="43.52692" lon="5.53492">
        <ele>387</ele>
        <time>2012-03-04T10:53:51Z</time>
      </trkpt>
      <trkpt lat="43.52691" lon="5.53483">
        <ele>388</ele>
        <time>2012-03-04T10:53:54Z</time>
      </trkpt>
      <trkpt lat="43.5269" lon="5.53477">
        <ele>388</ele>
        <time>2012-03-04T10:53:57Z</time>
      </trkpt>
      <trkpt lat="43.52689" lon="5.53471">
        <ele>389</ele>
        <time>2012-03-04T10:53:59Z</time>
      </trkpt>
      <trkpt lat="43.52689" lon="5.53464">
        <ele>389</ele>
        <time>2012-03-04T10:54:02Z</time>
      </trkpt>
      <trkpt lat="43.52689" lon="5.53458">
        <ele>390</ele>
        <time>2012-03-04T10:54:05Z</time>
      </trkpt>
      <trkpt lat="43.52688" lon="5.53451">
        <ele>390</ele>
        <time>2012-03-04T10:54:07Z</time>
      </trkpt>
      <trkpt lat="43.52688" lon="5.53445">
        <ele>390</ele>
        <time>2012-03-04T10:54:10Z</time>
      </trkpt>
      <trkpt lat="43.52688" lon="5.53438">
        <ele>391</ele>
        <time>2012-03-04T10:54:12Z</time>
      </trkpt>
      <trkpt lat="43.52688" lon="5.53432">
        <ele>391</ele>
        <time>2012-03-04T10:54:15Z</time>
      </trkpt>
      <trkpt lat="43.52688" lon="5.53426">
        <ele>392</ele>
        <time>2012-03-04T10:54:18Z</time>
      </trkpt>
      <trkpt lat="43.52688" lon="5.53419">
        <ele>392</ele>
        <time>2012-03-04T10:54:21Z</time>
      </trkpt>
      <trkpt lat="43.52688" lon="5.53413">
        <ele>393</ele>
        <time>2012-03-04T10:54:24Z</time>
      </trkpt>
      <trkpt lat="43.52687" lon="5.53406">
        <ele>393</ele>
        <time>2012-03-04T10:54:27Z</time>
      </trkpt>
      <trkpt lat="43.52687" lon="5.534">
        <ele>394</ele>
        <time>2012-03-04T10:54:30Z</time>
      </trkpt>
      <trkpt lat="43.52687" lon="5.53393">
        <ele>394</ele>
        <time>2012-03-04T10:54:33Z</time>
      </trkpt>
      <trkpt lat="43.52686" lon="5.53387">
        <ele>395</ele>
        <time>2012-03-04T10:54:37Z</time>
      </trkpt>
      <trkpt lat="43.52686" lon="5.5338">
        <ele>396</ele>
        <time>2012-03-04T10:54:41Z</time>
      </trkpt>
      <trkpt lat="43.52686" lon="5.53374">
        <ele>396</ele>
        <time>2012-03-04T10:54:45Z</time>
      </trkpt>
      <trkpt lat="43.52687" lon="5.53368">
        <ele>397</ele>
        <time>2012-03-04T10:54:48Z</time>
      </trkpt>
      <trkpt lat="43.52688" lon="5.53361">
        <ele>398</ele>
        <time>2012-03-04T10:54:52Z</time>
      </trkpt>
      <trkpt lat="43.52689" lon="5.53355">
        <ele>398</ele>
        <time>2012-03-04T10:54:55Z</time>
      </trkpt>
      <trkpt lat="43.52689" lon="5.53355">
        <ele>398</ele>
        <time>2012-03-04T10:54:55Z</time>
      </trkpt>
      <trkpt lat="43.52689" lon="5.53355">
        <ele>398</ele>
        <time>2012-03-04T10:54:56Z</time>
      </trkpt>
      <trkpt lat="43.5269" lon="5.53348">
        <ele>399</ele>
        <time>2012-03-04T10:54:59Z</time>
      </trkpt>
      <trkpt lat="43.52691" lon="5.53342">
        <ele>400</ele>
        <time>2012-03-04T10:55:03Z</time>
      </trkpt>
      <trkpt lat="43.52692" lon="5.53335">
        <ele>400</ele>
        <time>2012-03-04T10:55:06Z</time>
      </trkpt>
      <trkpt lat="43.52693" lon="5.53329">
        <ele>401</ele>
        <time>2012-03-04T10:55:09Z</time>
      </trkpt>
      <trkpt lat="43.52694" lon="5.53322">
        <ele>401</ele>
        <time>2012-03-04T10:55:13Z</time>
      </trkpt>
      <trkpt lat="43.52695" lon="5.53316">
        <ele>402</ele>
        <time>2012-03-04T10:55:17Z</time>
      </trkpt>
      <trkpt lat="43.52696" lon="5.5331">
        <ele>402</ele>
        <time>2012-03-04T10:55:20Z</time>
      </trkpt>
      <trkpt lat="43.52696" lon="5.53303">
        <ele>403</ele>
        <time>2012-03-04T10:55:24Z</time>
      </trkpt>
      <trkpt lat="43.52696" lon="5.53297">
        <ele>403</ele>
        <time>2012-03-04T10:55:27Z</time>
      </trkpt>
      <trkpt lat="43.52696" lon="5.5329">
        <ele>404</ele>
        <time>2012-03-04T10:55:30Z</time>
      </trkpt>
      <trkpt lat="43.52698" lon="5.53284">
        <ele>405</ele>
        <time>2012-03-04T10:56:43Z</time>
      </trkpt>
      <trkpt lat="43.527" lon="5.53277">
        <ele>405</ele>
        <time>2012-03-04T10:56:45Z</time>
      </trkpt>
      <trkpt lat="43.52702" lon="5.53271">
        <ele>406</ele>
        <time>2012-03-04T10:56:48Z</time>
      </trkpt>
      <trkpt lat="43.52703" lon="5.53265">
        <ele>407</ele>
        <time>2012-03-04T10:56:52Z</time>
      </trkpt>
      <trkpt lat="43.52704" lon="5.53258">
        <ele>407</ele>
        <time>2012-03-04T10:56:55Z</time>
      </trkpt>
      <trkpt lat="43.52705" lon="5.53252">
        <ele>407</ele>
        <time>2012-03-04T10:56:58Z</time>
      </trkpt>
      <trkpt lat="43.52706" lon="5.53245">
        <ele>408</ele>
        <time>2012-03-04T10:57:01Z</time>
      </trkpt>
      <trkpt lat="43.52708" lon="5.53239">
        <ele>408</ele>
        <time>2012-03-04T10:57:04Z</time>
      </trkpt>
      <trkpt lat="43.52709" lon="5.53232">
        <ele>409</ele>
        <time>2012-03-04T10:57:06Z</time>
      </trkpt>
      <trkpt lat="43.52712" lon="5.53226">
        <ele>409</ele>
        <time>2012-03-04T10:57:09Z</time>
      </trkpt>
      <trkpt lat="43.52718" lon="5.53222">
        <ele>409</ele>
        <time>2012-03-04T10:57:12Z</time>
      </trkpt>
      <trkpt lat="43.52721" lon="5.53217">
        <ele>410</ele>
        <time>2012-03-04T10:57:14Z</time>
      </trkpt>
      <trkpt lat="43.52725" lon="5.53215">
        <ele>410</ele>
        <time>2012-03-04T10:57:17Z</time>
      </trkpt>
      <trkpt lat="43.52731" lon="5.53211">
        <ele>410</ele>
        <time>2012-03-04T10:57:20Z</time>
      </trkpt>
      <trkpt lat="43.52735" lon="5.53209">
        <ele>411</ele>
        <time>2012-03-04T10:57:23Z</time>
      </trkpt>
      <trkpt lat="43.52739" lon="5.53207">
        <ele>411</ele>
        <time>2012-03-04T10:57:25Z</time>
      </trkpt>
      <trkpt lat="43.52744" lon="5.53204">
        <ele>412</ele>
        <time>2012-03-04T10:57:28Z</time>
      </trkpt>
      <trkpt lat="43.5275" lon="5.53202">
        <ele>412</ele>
        <time>2012-03-04T10:57:31Z</time>
      </trkpt>
      <trkpt lat="43.52755" lon="5.532">
        <ele>413</ele>
        <time>2012-03-04T10:57:34Z</time>
      </trkpt>
      <trkpt lat="43.5276" lon="5.53198">
        <ele>413</ele>
        <time>2012-03-04T10:57:37Z</time>
      </trkpt>
      <trkpt lat="43.52765" lon="5.53196">
        <ele>413</ele>
        <time>2012-03-04T10:57:40Z</time>
      </trkpt>
      <trkpt lat="43.5277" lon="5.53194">
        <ele>414</ele>
        <time>2012-03-04T10:57:43Z</time>
      </trkpt>
      <trkpt lat="43.52776" lon="5.53192">
        <ele>414</ele>
        <time>2012-03-04T10:57:46Z</time>
      </trkpt>
      <trkpt lat="43.52781" lon="5.53192">
        <ele>414</ele>
        <time>2012-03-04T10:57:49Z</time>
      </trkpt>
      <trkpt lat="43.52786" lon="5.5319">
        <ele>414</ele>
        <time>2012-03-04T10:57:52Z</time>
      </trkpt>
      <trkpt lat="43.52791" lon="5.53187">
        <ele>414</ele>
        <time>2012-03-04T10:57:54Z</time>
      </trkpt>
      <trkpt lat="43.52796" lon="5.53185">
        <ele>414</ele>
        <time>2012-03-04T10:57:56Z</time>
      </trkpt>
      <trkpt lat="43.52801" lon="5.53183">
        <ele>414</ele>
        <time>2012-03-04T10:57:58Z</time>
      </trkpt>
      <trkpt lat="43.52807" lon="5.53174">
        <ele>415</ele>
        <time>2012-03-04T10:58:00Z</time>
      </trkpt>
      <trkpt lat="43.52812" lon="5.53168">
        <ele>415</ele>
        <time>2012-03-04T10:58:02Z</time>
      </trkpt>
      <trkpt lat="43.52815" lon="5.53157">
        <ele>414</ele>
        <time>2012-03-04T10:58:04Z</time>
      </trkpt>
      <trkpt lat="43.52819" lon="5.53149">
        <ele>414</ele>
        <time>2012-03-04T10:58:06Z</time>
      </trkpt>
      <trkpt lat="43.52821" lon="5.5314">
        <ele>415</ele>
        <time>2012-03-04T10:58:08Z</time>
      </trkpt>
      <trkpt lat="43.52823" lon="5.53132">
        <ele>415</ele>
        <time>2012-03-04T10:58:10Z</time>
      </trkpt>
      <trkpt lat="43.52824" lon="5.53125">
        <ele>415</ele>
        <time>2012-03-04T10:58:12Z</time>
      </trkpt>
      <trkpt lat="43.52826" lon="5.53119">
        <ele>415</ele>
        <time>2012-03-04T10:58:14Z</time>
      </trkpt>
      <trkpt lat="43.52828" lon="5.5311">
        <ele>415</ele>
        <time>2012-03-04T10:58:17Z</time>
      </trkpt>
      <trkpt lat="43.5283" lon="5.53104">
        <ele>415</ele>
        <time>2012-03-04T10:58:19Z</time>
      </trkpt>
      <trkpt lat="43.52832" lon="5.53095">
        <ele>415</ele>
        <time>2012-03-04T10:58:22Z</time>
      </trkpt>
      <trkpt lat="43.52835" lon="5.53089">
        <ele>415</ele>
        <time>2012-03-04T10:58:24Z</time>
      </trkpt>
      <trkpt lat="43.52837" lon="5.53082">
        <ele>415</ele>
        <time>2012-03-04T10:58:26Z</time>
      </trkpt>
      <trkpt lat="43.52838" lon="5.53076">
        <ele>415</ele>
        <time>2012-03-04T10:58:28Z</time>
      </trkpt>
      <trkpt lat="43.52839" lon="5.53067">
        <ele>415</ele>
        <time>2012-03-04T10:58:30Z</time>
      </trkpt>
      <trkpt lat="43.5284" lon="5.53061">
        <ele>415</ele>
        <time>2012-03-04T10:58:32Z</time>
      </trkpt>
      <trkpt lat="43.52841" lon="5.53054">
        <ele>415</ele>
        <time>2012-03-04T10:58:34Z</time>
      </trkpt>
      <trkpt lat="43.52842" lon="5.53048">
        <ele>415</ele>
        <time>2012-03-04T10:58:36Z</time>
      </trkpt>
      <trkpt lat="43.52843" lon="5.53039">
        <ele>415</ele>
        <time>2012-03-04T10:58:39Z</time>
      </trkpt>
      <trkpt lat="43.52844" lon="5.53031">
        <ele>415</ele>
        <time>2012-03-04T10:58:42Z</time>
      </trkpt>
      <trkpt lat="43.52846" lon="5.53022">
        <ele>415</ele>
        <time>2012-03-04T10:58:45Z</time>
      </trkpt>
      <trkpt lat="43.52848" lon="5.53016">
        <ele>415</ele>
        <time>2012-03-04T10:58:48Z</time>
      </trkpt>
      <trkpt lat="43.5285" lon="5.53009">
        <ele>416</ele>
        <time>2012-03-04T10:58:50Z</time>
      </trkpt>
      <trkpt lat="43.52851" lon="5.53003">
        <ele>416</ele>
        <time>2012-03-04T10:58:53Z</time>
      </trkpt>
      <trkpt lat="43.52853" lon="5.52996">
        <ele>416</ele>
        <time>2012-03-04T10:58:55Z</time>
      </trkpt>
      <trkpt lat="43.52855" lon="5.5299">
        <ele>416</ele>
        <time>2012-03-04T10:58:58Z</time>
      </trkpt>
      <trkpt lat="43.52858" lon="5.52984">
        <ele>416</ele>
        <time>2012-03-04T10:59:01Z</time>
      </trkpt>
      <trkpt lat="43.52862" lon="5.52977">
        <ele>417</ele>
        <time>2012-03-04T10:59:05Z</time>
      </trkpt>
      <trkpt lat="43.52866" lon="5.52973">
        <ele>417</ele>
        <time>2012-03-04T10:59:07Z</time>
      </trkpt>
      <trkpt lat="43.5287" lon="5.52966">
        <ele>417</ele>
        <time>2012-03-04T10:59:10Z</time>
      </trkpt>
      <trkpt lat="43.52874" lon="5.5296">
        <ele>417</ele>
        <time>2012-03-04T10:59:13Z</time>
      </trkpt>
      <trkpt lat="43.52878" lon="5.52956">
        <ele>417</ele>
        <time>2012-03-04T10:59:15Z</time>
      </trkpt>
      <trkpt lat="43.52883" lon="5.52949">
        <ele>418</ele>
        <time>2012-03-04T10:59:18Z</time>
      </trkpt>
      <trkpt lat="43.52887" lon="5.52943">
        <ele>418</ele>
        <time>2012-03-04T10:59:20Z</time>
      </trkpt>
      <trkpt lat="43.5289" lon="5.52938">
        <ele>418</ele>
        <time>2012-03-04T10:59:22Z</time>
      </trkpt>
      <trkpt lat="43.52894" lon="5.52934">
        <ele>418</ele>
        <time>2012-03-04T10:59:24Z</time>
      </trkpt>
      <trkpt lat="43.52896" lon="5.52928">
        <ele>418</ele>
        <time>2012-03-04T10:59:26Z</time>
      </trkpt>
      <trkpt lat="43.52899" lon="5.52923">
        <ele>418</ele>
        <time>2012-03-04T10:59:28Z</time>
      </trkpt>
      <trkpt lat="43.52902" lon="5.52919">
        <ele>418</ele>
        <time>2012-03-04T10:59:30Z</time>
      </trkpt>
      <trkpt lat="43.52906" lon="5.5291">
        <ele>418</ele>
        <time>2012-03-04T10:59:33Z</time>
      </trkpt>
      <trkpt lat="43.5291" lon="5.52906">
        <ele>418</ele>
        <time>2012-03-04T10:59:35Z</time>
      </trkpt>
      <trkpt lat="43.52913" lon="5.529">
        <ele>418</ele>
        <time>2012-03-04T10:59:37Z</time>
      </trkpt>
      <trkpt lat="43.52917" lon="5.52893">
        <ele>418</ele>
        <time>2012-03-04T10:59:40Z</time>
      </trkpt>
      <trkpt lat="43.5292" lon="5.52887">
        <ele>418</ele>
        <time>2012-03-04T10:59:42Z</time>
      </trkpt>
      <trkpt lat="43.52924" lon="5.5288">
        <ele>418</ele>
        <time>2012-03-04T10:59:44Z</time>
      </trkpt>
      <trkpt lat="43.52926" lon="5.52874">
        <ele>418</ele>
        <time>2012-03-04T10:59:46Z</time>
      </trkpt>
      <trkpt lat="43.5293" lon="5.5287">
        <ele>418</ele>
        <time>2012-03-04T10:59:48Z</time>
      </trkpt>
      <trkpt lat="43.52933" lon="5.52863">
        <ele>418</ele>
        <time>2012-03-04T10:59:50Z</time>
      </trkpt>
      <trkpt lat="43.52938" lon="5.52859">
        <ele>418</ele>
        <time>2012-03-04T10:59:52Z</time>
      </trkpt>
      <trkpt lat="43.52941" lon="5.52855">
        <ele>418</ele>
        <time>2012-03-04T10:59:53Z</time>
      </trkpt>
      <trkpt lat="43.52946" lon="5.5285">
        <ele>418</ele>
        <time>2012-03-04T10:59:55Z</time>
      </trkpt>
      <trkpt lat="43.52952" lon="5.52846">
        <ele>418</ele>
        <time>2012-03-04T10:59:57Z</time>
      </trkpt>
      <trkpt lat="43.52958" lon="5.52842">
        <ele>418</ele>
        <time>2012-03-04T10:59:59Z</time>
      </trkpt>
      <trkpt lat="43.52964" lon="5.5284">
        <ele>418</ele>
        <time>2012-03-04T11:00:01Z</time>
      </trkpt>
      <trkpt lat="43.52972" lon="5.5284">
        <ele>418</ele>
        <time>2012-03-04T11:00:03Z</time>
      </trkpt>
      <trkpt lat="43.52978" lon="5.52838">
        <ele>418</ele>
        <time>2012-03-04T11:00:05Z</time>
      </trkpt>
      <trkpt lat="43.52985" lon="5.52838">
        <ele>418</ele>
        <time>2012-03-04T11:00:07Z</time>
      </trkpt>
      <trkpt lat="43.52991" lon="5.5284">
        <ele>418</ele>
        <time>2012-03-04T11:00:09Z</time>
      </trkpt>
      <trkpt lat="43.52998" lon="5.52842">
        <ele>418</ele>
        <time>2012-03-04T11:00:11Z</time>
      </trkpt>
      <trkpt lat="43.53004" lon="5.52844">
        <ele>418</ele>
        <time>2012-03-04T11:00:13Z</time>
      </trkpt>
      <trkpt lat="43.53012" lon="5.52846">
        <ele>418</ele>
        <time>2012-03-04T11:00:15Z</time>
      </trkpt>
      <trkpt lat="43.53017" lon="5.52848">
        <ele>418</ele>
        <time>2012-03-04T11:00:17Z</time>
      </trkpt>
      <trkpt lat="43.53022" lon="5.5285">
        <ele>418</ele>
        <time>2012-03-04T11:00:19Z</time>
      </trkpt>
      <trkpt lat="43.53028" lon="5.52853">
        <ele>418</ele>
        <time>2012-03-04T11:00:21Z</time>
      </trkpt>
      <trkpt lat="43.53032" lon="5.52857">
        <ele>418</ele>
        <time>2012-03-04T11:00:23Z</time>
      </trkpt>
      <trkpt lat="43.53036" lon="5.52859">
        <ele>418</ele>
        <time>2012-03-04T11:00:25Z</time>
      </trkpt>
      <trkpt lat="43.53041" lon="5.52863">
        <ele>418</ele>
        <time>2012-03-04T11:00:27Z</time>
      </trkpt>
      <trkpt lat="43.53045" lon="5.52868">
        <ele>419</ele>
        <time>2012-03-04T11:00:29Z</time>
      </trkpt>
      <trkpt lat="43.53049" lon="5.52872">
        <ele>419</ele>
        <time>2012-03-04T11:00:31Z</time>
      </trkpt>
      <trkpt lat="43.53054" lon="5.52878">
        <ele>419</ele>
        <time>2012-03-04T11:00:33Z</time>
      </trkpt>
      <trkpt lat="43.53057" lon="5.52885">
        <ele>419</ele>
        <time>2012-03-04T11:00:35Z</time>
      </trkpt>
      <trkpt lat="43.5306" lon="5.52891">
        <ele>419</ele>
        <time>2012-03-04T11:00:37Z</time>
      </trkpt>
      <trkpt lat="43.53063" lon="5.52898">
        <ele>419</ele>
        <time>2012-03-04T11:00:39Z</time>
      </trkpt>
      <trkpt lat="43.53066" lon="5.52904">
        <ele>419</ele>
        <time>2012-03-04T11:00:41Z</time>
      </trkpt>
      <trkpt lat="43.5307" lon="5.5291">
        <ele>419</ele>
        <time>2012-03-04T11:00:43Z</time>
      </trkpt>
      <trkpt lat="43.53073" lon="5.52917">
        <ele>419</ele>
        <time>2012-03-04T11:00:45Z</time>
      </trkpt>
      <trkpt lat="43.53076" lon="5.52926">
        <ele>419</ele>
        <time>2012-03-04T11:00:47Z</time>
      </trkpt>
      <trkpt lat="43.5308" lon="5.52934">
        <ele>419</ele>
        <time>2012-03-04T11:00:49Z</time>
      </trkpt>
      <trkpt lat="43.53082" lon="5.52941">
        <ele>419</ele>
        <time>2012-03-04T11:00:50Z</time>
      </trkpt>
      <trkpt lat="43.53086" lon="5.52945">
        <ele>419</ele>
        <time>2012-03-04T11:00:51Z</time>
      </trkpt>
      <trkpt lat="43.53089" lon="5.52951">
        <ele>419</ele>
        <time>2012-03-04T11:00:52Z</time>
      </trkpt>
      <trkpt lat="43.53091" lon="5.52958">
        <ele>419</ele>
        <time>2012-03-04T11:00:53Z</time>
      </trkpt>
      <trkpt lat="43.53095" lon="5.52964">
        <ele>419</ele>
        <time>2012-03-04T11:00:54Z</time>
      </trkpt>
      <trkpt lat="43.53099" lon="5.52971">
        <ele>419</ele>
        <time>2012-03-04T11:00:55Z</time>
      </trkpt>
      <trkpt lat="43.53103" lon="5.52977">
        <ele>418</ele>
        <time>2012-03-04T11:00:56Z</time>
      </trkpt>
      <trkpt lat="43.53106" lon="5.52981">
        <ele>418</ele>
        <time>2012-03-04T11:00:57Z</time>
      </trkpt>
      <trkpt lat="43.5311" lon="5.52988">
        <ele>418</ele>
        <time>2012-03-04T11:00:58Z</time>
      </trkpt>
      <trkpt lat="43.53114" lon="5.52994">
        <ele>418</ele>
        <time>2012-03-04T11:00:59Z</time>
      </trkpt>
      <trkpt lat="43.53117" lon="5.53003">
        <ele>418</ele>
        <time>2012-03-04T11:01:00Z</time>
      </trkpt>
      <trkpt lat="43.5312" lon="5.53009">
        <ele>418</ele>
        <time>2012-03-04T11:01:01Z</time>
      </trkpt>
      <trkpt lat="43.53122" lon="5.53018">
        <ele>418</ele>
        <time>2012-03-04T11:01:02Z</time>
      </trkpt>
      <trkpt lat="43.53124" lon="5.53026">
        <ele>418</ele>
        <time>2012-03-04T11:01:03Z</time>
      </trkpt>
      <trkpt lat="43.53125" lon="5.53035">
        <ele>417</ele>
        <time>2012-03-04T11:01:04Z</time>
      </trkpt>
      <trkpt lat="43.53126" lon="5.53041">
        <ele>417</ele>
        <time>2012-03-04T11:01:05Z</time>
      </trkpt>
      <trkpt lat="43.53128" lon="5.53052">
        <ele>417</ele>
        <time>2012-03-04T11:01:06Z</time>
      </trkpt>
      <trkpt lat="43.53129" lon="5.53061">
        <ele>416</ele>
        <time>2012-03-04T11:01:07Z</time>
      </trkpt>
      <trkpt lat="43.53131" lon="5.53069">
        <ele>416</ele>
        <time>2012-03-04T11:01:08Z</time>
      </trkpt>
      <trkpt lat="43.53133" lon="5.5308">
        <ele>416</ele>
        <time>2012-03-04T11:01:09Z</time>
      </trkpt>
      <trkpt lat="43.53136" lon="5.53089">
        <ele>415</ele>
        <time>2012-03-04T11:01:10Z</time>
      </trkpt>
      <trkpt lat="43.53139" lon="5.53097">
        <ele>415</ele>
        <time>2012-03-04T11:01:11Z</time>
      </trkpt>
      <trkpt lat="43.53144" lon="5.53106">
        <ele>415</ele>
        <time>2012-03-04T11:01:12Z</time>
      </trkpt>
      <trkpt lat="43.53149" lon="5.53114">
        <ele>414</ele>
        <time>2012-03-04T11:01:13Z</time>
      </trkpt>
      <trkpt lat="43.53154" lon="5.53121">
        <ele>414</ele>
        <time>2012-03-04T11:01:14Z</time>
      </trkpt>
      <trkpt lat="43.5316" lon="5.53127">
        <ele>414</ele>
        <time>2012-03-04T11:01:15Z</time>
      </trkpt>
      <trkpt lat="43.53164" lon="5.53132">
        <ele>413</ele>
        <time>2012-03-04T11:01:16Z</time>
      </trkpt>
      <trkpt lat="43.53169" lon="5.53136">
        <ele>413</ele>
        <time>2012-03-04T11:01:17Z</time>
      </trkpt>
      <trkpt lat="43.53175" lon="5.5314">
        <ele>413</ele>
        <time>2012-03-04T11:01:18Z</time>
      </trkpt>
      <trkpt lat="43.5318" lon="5.53142">
        <ele>412</ele>
        <time>2012-03-04T11:01:19Z</time>
      </trkpt>
      <trkpt lat="43.53184" lon="5.53147">
        <ele>412</ele>
        <time>2012-03-04T11:01:20Z</time>
      </trkpt>
      <trkpt lat="43.5319" lon="5.53151">
        <ele>412</ele>
        <time>2012-03-04T11:01:21Z</time>
      </trkpt>
      <trkpt lat="43.53194" lon="5.53153">
        <ele>412</ele>
        <time>2012-03-04T11:01:22Z</time>
      </trkpt>
      <trkpt lat="43.53199" lon="5.53155">
        <ele>411</ele>
        <time>2012-03-04T11:01:23Z</time>
      </trkpt>
      <trkpt lat="43.53204" lon="5.53159">
        <ele>411</ele>
        <time>2012-03-04T11:01:24Z</time>
      </trkpt>
      <trkpt lat="43.53208" lon="5.53162">
        <ele>411</ele>
        <time>2012-03-04T11:01:25Z</time>
      </trkpt>
      <trkpt lat="43.53212" lon="5.53164">
        <ele>411</ele>
        <time>2012-03-04T11:01:26Z</time>
      </trkpt>
      <trkpt lat="43.5322" lon="5.53168">
        <ele>411</ele>
        <time>2012-03-04T11:01:28Z</time>
      </trkpt>
      <trkpt lat="43.53225" lon="5.5317">
        <ele>411</ele>
        <time>2012-03-04T11:01:30Z</time>
      </trkpt>
      <trkpt lat="43.53232" lon="5.53174">
        <ele>411</ele>
        <time>2012-03-04T11:01:32Z</time>
      </trkpt>
      <trkpt lat="43.53239" lon="5.53177">
        <ele>411</ele>
        <time>2012-03-04T11:01:34Z</time>
      </trkpt>
      <trkpt lat="43.53246" lon="5.53179">
        <ele>411</ele>
        <time>2012-03-04T11:01:36Z</time>
      </trkpt>
      <trkpt lat="43.53251" lon="5.53181">
        <ele>411</ele>
        <time>2012-03-04T11:01:38Z</time>
      </trkpt>
      <trkpt lat="43.53255" lon="5.53183">
        <ele>411</ele>
        <time>2012-03-04T11:01:40Z</time>
      </trkpt>
      <trkpt lat="43.5326" lon="5.53185">
        <ele>412</ele>
        <time>2012-03-04T11:01:42Z</time>
      </trkpt>
      <trkpt lat="43.53264" lon="5.53187">
        <ele>412</ele>
        <time>2012-03-04T11:01:44Z</time>
      </trkpt>
      <trkpt lat="43.53268" lon="5.5319">
        <ele>412</ele>
        <time>2012-03-04T11:01:46Z</time>
      </trkpt>
      <trkpt lat="43.53272" lon="5.53194">
        <ele>412</ele>
        <time>2012-03-04T11:01:48Z</time>
      </trkpt>
      <trkpt lat="43.53278" lon="5.53196">
        <ele>412</ele>
        <time>2012-03-04T11:01:50Z</time>
      </trkpt>
      <trkpt lat="43.53282" lon="5.53198">
        <ele>412</ele>
        <time>2012-03-04T11:01:52Z</time>
      </trkpt>
      <trkpt lat="43.53286" lon="5.53202">
        <ele>413</ele>
        <time>2012-03-04T11:01:54Z</time>
      </trkpt>
      <trkpt lat="43.53292" lon="5.53207">
        <ele>413</ele>
        <time>2012-03-04T11:01:57Z</time>
      </trkpt>
      <trkpt lat="43.53296" lon="5.53209">
        <ele>413</ele>
        <time>2012-03-04T11:01:59Z</time>
      </trkpt>
      <trkpt lat="43.533" lon="5.53213">
        <ele>413</ele>
        <time>2012-03-04T11:02:01Z</time>
      </trkpt>
      <trkpt lat="43.53305" lon="5.53215">
        <ele>414</ele>
        <time>2012-03-04T11:02:03Z</time>
      </trkpt>
      <trkpt lat="43.53308" lon="5.5322">
        <ele>414</ele>
        <time>2012-03-04T11:02:05Z</time>
      </trkpt>
      <trkpt lat="43.53311" lon="5.53224">
        <ele>414</ele>
        <time>2012-03-04T11:02:08Z</time>
      </trkpt>
      <trkpt lat="43.53316" lon="5.53226">
        <ele>416</ele>
        <time>2012-03-04T11:03:33Z</time>
      </trkpt>
      <trkpt lat="43.53322" lon="5.53226">
        <ele>417</ele>
        <time>2012-03-04T11:03:36Z</time>
      </trkpt>
      <trkpt lat="43.53326" lon="5.53228">
        <ele>417</ele>
        <time>2012-03-04T11:03:39Z</time>
      </trkpt>
      <trkpt lat="43.5333" lon="5.5323">
        <ele>418</ele>
        <time>2012-03-04T11:03:42Z</time>
      </trkpt>
      <trkpt lat="43.53337" lon="5.53232">
        <ele>418</ele>
        <time>2012-03-04T11:03:45Z</time>
      </trkpt>
      <trkpt lat="43.53341" lon="5.53234">
        <ele>418</ele>
        <time>2012-03-04T11:03:47Z</time>
      </trkpt>
      <trkpt lat="43.53345" lon="5.53237">
        <ele>418</ele>
        <time>2012-03-04T11:03:49Z</time>
      </trkpt>
      <trkpt lat="43.5335" lon="5.53239">
        <ele>419</ele>
        <time>2012-03-04T11:03:51Z</time>
      </trkpt>
      <trkpt lat="43.53353" lon="5.53243">
        <ele>419</ele>
        <time>2012-03-04T11:03:53Z</time>
      </trkpt>
      <trkpt lat="43.53358" lon="5.53245">
        <ele>419</ele>
        <time>2012-03-04T11:03:55Z</time>
      </trkpt>
      <trkpt lat="43.53364" lon="5.5325">
        <ele>419</ele>
        <time>2012-03-04T11:03:57Z</time>
      </trkpt>
      <trkpt lat="43.53369" lon="5.53254">
        <ele>420</ele>
        <time>2012-03-04T11:03:59Z</time>
      </trkpt>
      <trkpt lat="43.53373" lon="5.53258">
        <ele>420</ele>
        <time>2012-03-04T11:04:00Z</time>
      </trkpt>
      <trkpt lat="43.5338" lon="5.53265">
        <ele>422</ele>
        <time>2012-03-04T11:04:02Z</time>
      </trkpt>
      <trkpt lat="43.53384" lon="5.53269">
        <ele>422</ele>
        <time>2012-03-04T11:04:03Z</time>
      </trkpt>
      <trkpt lat="43.53387" lon="5.53273">
        <ele>422</ele>
        <time>2012-03-04T11:04:04Z</time>
      </trkpt>
      <trkpt lat="43.53392" lon="5.53277">
        <ele>422</ele>
        <time>2012-03-04T11:04:05Z</time>
      </trkpt>
      <trkpt lat="43.53395" lon="5.53282">
        <ele>422</ele>
        <time>2012-03-04T11:04:06Z</time>
      </trkpt>
      <trkpt lat="43.53399" lon="5.53286">
        <ele>422</ele>
        <time>2012-03-04T11:04:07Z</time>
      </trkpt>
      <trkpt lat="43.53403" lon="5.53292">
        <ele>422</ele>
        <time>2012-03-04T11:04:08Z</time>
      </trkpt>
      <trkpt lat="43.53408" lon="5.53297">
        <ele>422</ele>
        <time>2012-03-04T11:04:09Z</time>
      </trkpt>
      <trkpt lat="43.53412" lon="5.53301">
        <ele>422</ele>
        <time>2012-03-04T11:04:10Z</time>
      </trkpt>
      <trkpt lat="43.53416" lon="5.53305">
        <ele>421</ele>
        <time>2012-03-04T11:04:11Z</time>
      </trkpt>
      <trkpt lat="43.53422" lon="5.5331">
        <ele>421</ele>
        <time>2012-03-04T11:04:12Z</time>
      </trkpt>
      <trkpt lat="43.53426" lon="5.53314">
        <ele>421</ele>
        <time>2012-03-04T11:04:13Z</time>
      </trkpt>
      <trkpt lat="43.53431" lon="5.53318">
        <ele>421</ele>
        <time>2012-03-04T11:04:14Z</time>
      </trkpt>
      <trkpt lat="43.53436" lon="5.53322">
        <ele>420</ele>
        <time>2012-03-04T11:04:15Z</time>
      </trkpt>
      <trkpt lat="43.53439" lon="5.53327">
        <ele>420</ele>
        <time>2012-03-04T11:04:16Z</time>
      </trkpt>
      <trkpt lat="43.53443" lon="5.53329">
        <ele>420</ele>
        <time>2012-03-04T11:04:17Z</time>
      </trkpt>
      <trkpt lat="43.53449" lon="5.53335">
        <ele>420</ele>
        <time>2012-03-04T11:04:19Z</time>
      </trkpt>
      <trkpt lat="43.53456" lon="5.53342">
        <ele>420</ele>
        <time>2012-03-04T11:04:21Z</time>
      </trkpt>
      <trkpt lat="43.53463" lon="5.53348">
        <ele>420</ele>
        <time>2012-03-04T11:04:23Z</time>
      </trkpt>
      <trkpt lat="43.5347" lon="5.53355">
        <ele>420</ele>
        <time>2012-03-04T11:04:25Z</time>
      </trkpt>
      <trkpt lat="43.53473" lon="5.53359">
        <ele>420</ele>
        <time>2012-03-04T11:04:26Z</time>
      </trkpt>
      <trkpt lat="43.5348" lon="5.53365">
        <ele>421</ele>
        <time>2012-03-04T11:04:28Z</time>
      </trkpt>
      <trkpt lat="43.53483" lon="5.5337">
        <ele>421</ele>
        <time>2012-03-04T11:04:29Z</time>
      </trkpt>
      <trkpt lat="43.53488" lon="5.53376">
        <ele>421</ele>
        <time>2012-03-04T11:04:31Z</time>
      </trkpt>
      <trkpt lat="43.53492" lon="5.53383">
        <ele>421</ele>
        <time>2012-03-04T11:04:33Z</time>
      </trkpt>
      <trkpt lat="43.53497" lon="5.53391">
        <ele>421</ele>
        <time>2012-03-04T11:04:35Z</time>
      </trkpt>
      <trkpt lat="43.535" lon="5.53396">
        <ele>421</ele>
        <time>2012-03-04T11:04:37Z</time>
      </trkpt>
      <trkpt lat="43.53502" lon="5.53402">
        <ele>421</ele>
        <time>2012-03-04T11:04:39Z</time>
      </trkpt>
      <trkpt lat="43.53504" lon="5.53408">
        <ele>421</ele>
        <time>2012-03-04T11:04:42Z</time>
      </trkpt>
      <trkpt lat="43.53506" lon="5.53415">
        <ele>422</ele>
        <time>2012-03-04T11:04:45Z</time>
      </trkpt>
      <trkpt lat="43.53508" lon="5.53421">
        <ele>422</ele>
        <time>2012-03-04T11:04:48Z</time>
      </trkpt>
      <trkpt lat="43.5351" lon="5.53428">
        <ele>422</ele>
        <time>2012-03-04T11:04:50Z</time>
      </trkpt>
      <trkpt lat="43.53512" lon="5.53434">
        <ele>422</ele>
        <time>2012-03-04T11:04:52Z</time>
      </trkpt>
      <trkpt lat="43.53512" lon="5.5344">
        <ele>423</ele>
        <time>2012-03-04T11:04:54Z</time>
      </trkpt>
      <trkpt lat="43.53513" lon="5.53447">
        <ele>423</ele>
        <time>2012-03-04T11:04:57Z</time>
      </trkpt>
      <trkpt lat="43.53513" lon="5.53453">
        <ele>423</ele>
        <time>2012-03-04T11:05:00Z</time>
      </trkpt>
      <trkpt lat="43.53513" lon="5.5346">
        <ele>424</ele>
        <time>2012-03-04T11:05:03Z</time>
      </trkpt>
      <trkpt lat="43.53513" lon="5.53466">
        <ele>424</ele>
        <time>2012-03-04T11:05:05Z</time>
      </trkpt>
      <trkpt lat="43.53513" lon="5.53473">
        <ele>424</ele>
        <time>2012-03-04T11:05:08Z</time>
      </trkpt>
      <trkpt lat="43.53512" lon="5.53479">
        <ele>424</ele>
        <time>2012-03-04T11:05:11Z</time>
      </trkpt>
      <trkpt lat="43.53512" lon="5.53486">
        <ele>424</ele>
        <time>2012-03-04T11:05:13Z</time>
      </trkpt>
      <trkpt lat="43.53512" lon="5.53492">
        <ele>425</ele>
        <time>2012-03-04T11:05:16Z</time>
      </trkpt>
      <trkpt lat="43.53512" lon="5.53498">
        <ele>425</ele>
        <time>2012-03-04T11:05:18Z</time>
      </trkpt>
      <trkpt lat="43.53513" lon="5.53505">
        <ele>425</ele>
        <time>2012-03-04T11:05:21Z</time>
      </trkpt>
      <trkpt lat="43.53513" lon="5.53511">
        <ele>425</ele>
        <time>2012-03-04T11:05:23Z</time>
      </trkpt>
      <trkpt lat="43.53515" lon="5.53518">
        <ele>425</ele>
        <time>2012-03-04T11:05:27Z</time>
      </trkpt>
      <trkpt lat="43.53518" lon="5.53524">
        <ele>426</ele>
        <time>2012-03-04T11:05:31Z</time>
      </trkpt>
      <trkpt lat="43.5352" lon="5.53531">
        <ele>426</ele>
        <time>2012-03-04T11:05:34Z</time>
      </trkpt>
      <trkpt lat="43.53523" lon="5.53537">
        <ele>426</ele>
        <time>2012-03-04T11:05:37Z</time>
      </trkpt>
      <trkpt lat="43.53527" lon="5.53544">
        <ele>426</ele>
        <time>2012-03-04T11:05:40Z</time>
      </trkpt>
      <trkpt lat="43.53529" lon="5.5355">
        <ele>426</ele>
        <time>2012-03-04T11:05:43Z</time>
      </trkpt>
      <trkpt lat="43.53532" lon="5.53554">
        <ele>427</ele>
        <time>2012-03-04T11:05:45Z</time>
      </trkpt>
      <trkpt lat="43.53535" lon="5.53561">
        <ele>427</ele>
        <time>2012-03-04T11:05:47Z</time>
      </trkpt>
      <trkpt lat="43.5354" lon="5.53567">
        <ele>427</ele>
        <time>2012-03-04T11:05:49Z</time>
      </trkpt>
      <trkpt lat="43.53543" lon="5.53571">
        <ele>427</ele>
        <time>2012-03-04T11:05:51Z</time>
      </trkpt>
      <trkpt lat="43.53547" lon="5.53578">
        <ele>427</ele>
        <time>2012-03-04T11:05:53Z</time>
      </trkpt>
      <trkpt lat="43.53552" lon="5.53582">
        <ele>427</ele>
        <time>2012-03-04T11:05:55Z</time>
      </trkpt>
      <trkpt lat="43.53557" lon="5.53589">
        <ele>427</ele>
        <time>2012-03-04T11:05:57Z</time>
      </trkpt>
      <trkpt lat="43.53562" lon="5.53593">
        <ele>427</ele>
        <time>2012-03-04T11:05:59Z</time>
      </trkpt>
      <trkpt lat="43.53568" lon="5.53595">
        <ele>427</ele>
        <time>2012-03-04T11:06:01Z</time>
      </trkpt>
      <trkpt lat="43.53575" lon="5.53599">
        <ele>427</ele>
        <time>2012-03-04T11:06:03Z</time>
      </trkpt>
      <trkpt lat="43.53581" lon="5.53602">
        <ele>427</ele>
        <time>2012-03-04T11:06:05Z</time>
      </trkpt>
      <trkpt lat="43.53589" lon="5.53606">
        <ele>427</ele>
        <time>2012-03-04T11:06:07Z</time>
      </trkpt>
      <trkpt lat="43.53595" lon="5.53608">
        <ele>427</ele>
        <time>2012-03-04T11:06:09Z</time>
      </trkpt>
      <trkpt lat="43.53603" lon="5.53608">
        <ele>427</ele>
        <time>2012-03-04T11:06:11Z</time>
      </trkpt>
      <trkpt lat="43.53609" lon="5.53608">
        <ele>427</ele>
        <time>2012-03-04T11:06:13Z</time>
      </trkpt>
      <trkpt lat="43.53614" lon="5.53606">
        <ele>426</ele>
        <time>2012-03-04T11:06:14Z</time>
      </trkpt>
      <trkpt lat="43.53622" lon="5.53606">
        <ele>426</ele>
        <time>2012-03-04T11:06:16Z</time>
      </trkpt>
      <trkpt lat="43.5363" lon="5.53604">
        <ele>426</ele>
        <time>2012-03-04T11:06:18Z</time>
      </trkpt>
      <trkpt lat="43.53634" lon="5.53602">
        <ele>426</ele>
        <time>2012-03-04T11:06:19Z</time>
      </trkpt>
      <trkpt lat="43.5364" lon="5.53597">
        <ele>426</ele>
        <time>2012-03-04T11:06:21Z</time>
      </trkpt>
      <trkpt lat="43.53647" lon="5.53593">
        <ele>426</ele>
        <time>2012-03-04T11:06:23Z</time>
      </trkpt>
      <trkpt lat="43.53653" lon="5.53589">
        <ele>426</ele>
        <time>2012-03-04T11:06:25Z</time>
      </trkpt>
      <trkpt lat="43.53659" lon="5.53584">
        <ele>426</ele>
        <time>2012-03-04T11:06:27Z</time>
      </trkpt>
      <trkpt lat="43.53664" lon="5.53578">
        <ele>426</ele>
        <time>2012-03-04T11:06:29Z</time>
      </trkpt>
      <trkpt lat="43.53669" lon="5.53571">
        <ele>426</ele>
        <time>2012-03-04T11:06:31Z</time>
      </trkpt>
      <trkpt lat="43.53675" lon="5.53567">
        <ele>426</ele>
        <time>2012-03-04T11:06:33Z</time>
      </trkpt>
      <trkpt lat="43.53681" lon="5.53561">
        <ele>426</ele>
        <time>2012-03-04T11:06:35Z</time>
      </trkpt>
      <trkpt lat="43.53688" lon="5.53556">
        <ele>426</ele>
        <time>2012-03-04T11:06:37Z</time>
      </trkpt>
      <trkpt lat="43.53694" lon="5.5355">
        <ele>426</ele>
        <time>2012-03-04T11:06:39Z</time>
      </trkpt>
      <trkpt lat="43.53699" lon="5.53544">
        <ele>426</ele>
        <time>2012-03-04T11:06:41Z</time>
      </trkpt>
      <trkpt lat="43.53706" lon="5.53537">
        <ele>425</ele>
        <time>2012-03-04T11:06:43Z</time>
      </trkpt>
      <trkpt lat="43.53709" lon="5.53533">
        <ele>425</ele>
        <time>2012-03-04T11:06:44Z</time>
      </trkpt>
      <trkpt lat="43.53716" lon="5.53526">
        <ele>424</ele>
        <time>2012-03-04T11:06:46Z</time>
      </trkpt>
      <trkpt lat="43.5372" lon="5.53524">
        <ele>424</ele>
        <time>2012-03-04T11:06:47Z</time>
      </trkpt>
      <trkpt lat="43.53724" lon="5.5352">
        <ele>424</ele>
        <time>2012-03-04T11:06:48Z</time>
      </trkpt>
      <trkpt lat="43.53728" lon="5.53518">
        <ele>424</ele>
        <time>2012-03-04T11:06:49Z</time>
      </trkpt>
      <trkpt lat="43.53734" lon="5.53516">
        <ele>424</ele>
        <time>2012-03-04T11:06:50Z</time>
      </trkpt>
      <trkpt lat="43.53739" lon="5.53516">
        <ele>424</ele>
        <time>2012-03-04T11:06:51Z</time>
      </trkpt>
      <trkpt lat="43.53748" lon="5.53516">
        <ele>423</ele>
        <time>2012-03-04T11:06:53Z</time>
      </trkpt>
      <trkpt lat="43.53756" lon="5.53516">
        <ele>423</ele>
        <time>2012-03-04T11:06:55Z</time>
      </trkpt>
      <trkpt lat="43.53764" lon="5.53518">
        <ele>423</ele>
        <time>2012-03-04T11:06:57Z</time>
      </trkpt>
      <trkpt lat="43.53771" lon="5.53522">
        <ele>423</ele>
        <time>2012-03-04T11:06:59Z</time>
      </trkpt>
      <trkpt lat="43.53774" lon="5.53526">
        <ele>423</ele>
        <time>2012-03-04T11:07:00Z</time>
      </trkpt>
      <trkpt lat="43.5378" lon="5.53528">
        <ele>422</ele>
        <time>2012-03-04T11:07:02Z</time>
      </trkpt>
      <trkpt lat="43.53784" lon="5.53533">
        <ele>422</ele>
        <time>2012-03-04T11:07:04Z</time>
      </trkpt>
      <trkpt lat="43.53791" lon="5.53537">
        <ele>422</ele>
        <time>2012-03-04T11:07:06Z</time>
      </trkpt>
      <trkpt lat="43.53796" lon="5.53544">
        <ele>422</ele>
        <time>2012-03-04T11:07:08Z</time>
      </trkpt>
      <trkpt lat="43.53802" lon="5.5355">
        <ele>421</ele>
        <time>2012-03-04T11:07:10Z</time>
      </trkpt>
      <trkpt lat="43.53807" lon="5.53554">
        <ele>421</ele>
        <time>2012-03-04T11:07:11Z</time>
      </trkpt>
      <trkpt lat="43.53811" lon="5.53558">
        <ele>420</ele>
        <time>2012-03-04T11:07:12Z</time>
      </trkpt>
      <trkpt lat="43.53815" lon="5.53563">
        <ele>420</ele>
        <time>2012-03-04T11:07:13Z</time>
      </trkpt>
      <trkpt lat="43.53821" lon="5.53567">
        <ele>420</ele>
        <time>2012-03-04T11:07:14Z</time>
      </trkpt>
      <trkpt lat="43.53825" lon="5.53571">
        <ele>419</ele>
        <time>2012-03-04T11:07:15Z</time>
      </trkpt>
      <trkpt lat="43.53829" lon="5.53576">
        <ele>419</ele>
        <time>2012-03-04T11:07:16Z</time>
      </trkpt>
      <trkpt lat="43.53834" lon="5.5358">
        <ele>418</ele>
        <time>2012-03-04T11:07:17Z</time>
      </trkpt>
      <trkpt lat="43.53838" lon="5.53584">
        <ele>418</ele>
        <time>2012-03-04T11:07:18Z</time>
      </trkpt>
      <trkpt lat="43.53846" lon="5.53586">
        <ele>417</ele>
        <time>2012-03-04T11:07:20Z</time>
      </trkpt>
      <trkpt lat="43.53856" lon="5.53584">
        <ele>416</ele>
        <time>2012-03-04T11:07:22Z</time>
      </trkpt>
      <trkpt lat="43.53861" lon="5.53584">
        <ele>416</ele>
        <time>2012-03-04T11:07:23Z</time>
      </trkpt>
      <trkpt lat="43.53867" lon="5.5358">
        <ele>416</ele>
        <time>2012-03-04T11:07:24Z</time>
      </trkpt>
      <trkpt lat="43.53872" lon="5.53576">
        <ele>415</ele>
        <time>2012-03-04T11:07:25Z</time>
      </trkpt>
      <trkpt lat="43.53878" lon="5.53574">
        <ele>415</ele>
        <time>2012-03-04T11:07:26Z</time>
      </trkpt>
      <trkpt lat="43.53884" lon="5.53569">
        <ele>415</ele>
        <time>2012-03-04T11:07:27Z</time>
      </trkpt>
      <trkpt lat="43.53889" lon="5.53565">
        <ele>415</ele>
        <time>2012-03-04T11:07:28Z</time>
      </trkpt>
      <trkpt lat="43.53896" lon="5.53561">
        <ele>415</ele>
        <time>2012-03-04T11:07:29Z</time>
      </trkpt>
      <trkpt lat="43.53902" lon="5.53561">
        <ele>414</ele>
        <time>2012-03-04T11:07:30Z</time>
      </trkpt>
      <trkpt lat="43.53908" lon="5.53563">
        <ele>414</ele>
        <time>2012-03-04T11:07:31Z</time>
      </trkpt>
      <trkpt lat="43.53916" lon="5.53565">
        <ele>414</ele>
        <time>2012-03-04T11:07:33Z</time>
      </trkpt>
      <trkpt lat="43.5392" lon="5.53571">
        <ele>414</ele>
        <time>2012-03-04T11:07:35Z</time>
      </trkpt>
      <trkpt lat="43.53925" lon="5.53578">
        <ele>414</ele>
        <time>2012-03-04T11:07:37Z</time>
      </trkpt>
      <trkpt lat="43.53927" lon="5.53584">
        <ele>414</ele>
        <time>2012-03-04T11:07:39Z</time>
      </trkpt>
      <trkpt lat="43.5393" lon="5.53591">
        <ele>414</ele>
        <time>2012-03-04T11:07:41Z</time>
      </trkpt>
      <trkpt lat="43.53935" lon="5.53597">
        <ele>414</ele>
        <time>2012-03-04T11:07:43Z</time>
      </trkpt>
      <trkpt lat="43.53941" lon="5.53604">
        <ele>414</ele>
        <time>2012-03-04T11:07:45Z</time>
      </trkpt>
      <trkpt lat="43.53946" lon="5.5361">
        <ele>413</ele>
        <time>2012-03-04T11:07:47Z</time>
      </trkpt>
      <trkpt lat="43.53953" lon="5.53614">
        <ele>413</ele>
        <time>2012-03-04T11:07:49Z</time>
      </trkpt>
      <trkpt lat="43.53958" lon="5.53619">
        <ele>413</ele>
        <time>2012-03-04T11:07:51Z</time>
      </trkpt>
      <trkpt lat="43.53961" lon="5.53623">
        <ele>413</ele>
        <time>2012-03-04T11:07:52Z</time>
      </trkpt>
      <trkpt lat="43.53968" lon="5.53627">
        <ele>413</ele>
        <time>2012-03-04T11:07:54Z</time>
      </trkpt>
      <trkpt lat="43.53974" lon="5.53632">
        <ele>413</ele>
        <time>2012-03-04T11:07:56Z</time>
      </trkpt>
      <trkpt lat="43.53978" lon="5.53634">
        <ele>413</ele>
        <time>2012-03-04T11:07:57Z</time>
      </trkpt>
      <trkpt lat="43.53985" lon="5.53638">
        <ele>413</ele>
        <time>2012-03-04T11:07:59Z</time>
      </trkpt>
      <trkpt lat="43.53989" lon="5.5364">
        <ele>413</ele>
        <time>2012-03-04T11:08:00Z</time>
      </trkpt>
      <trkpt lat="43.53997" lon="5.53644">
        <ele>413</ele>
        <time>2012-03-04T11:08:02Z</time>
      </trkpt>
      <trkpt lat="43.54004" lon="5.53649">
        <ele>413</ele>
        <time>2012-03-04T11:08:04Z</time>
      </trkpt>
      <trkpt lat="43.54012" lon="5.53651">
        <ele>412</ele>
        <time>2012-03-04T11:08:06Z</time>
      </trkpt>
      <trkpt lat="43.54019" lon="5.53653">
        <ele>412</ele>
        <time>2012-03-04T11:08:08Z</time>
      </trkpt>
      <trkpt lat="43.54027" lon="5.53653">
        <ele>412</ele>
        <time>2012-03-04T11:08:10Z</time>
      </trkpt>
      <trkpt lat="43.54033" lon="5.53655">
        <ele>412</ele>
        <time>2012-03-04T11:08:12Z</time>
      </trkpt>
      <trkpt lat="43.54041" lon="5.53655">
        <ele>412</ele>
        <time>2012-03-04T11:08:14Z</time>
      </trkpt>
      <trkpt lat="43.54047" lon="5.53655">
        <ele>412</ele>
        <time>2012-03-04T11:08:16Z</time>
      </trkpt>
      <trkpt lat="43.54051" lon="5.53653">
        <ele>412</ele>
        <time>2012-03-04T11:08:17Z</time>
      </trkpt>
      <trkpt lat="43.54059" lon="5.53653">
        <ele>412</ele>
        <time>2012-03-04T11:08:19Z</time>
      </trkpt>
      <trkpt lat="43.54064" lon="5.53651">
        <ele>412</ele>
        <time>2012-03-04T11:08:21Z</time>
      </trkpt>
      <trkpt lat="43.54073" lon="5.53649">
        <ele>412</ele>
        <time>2012-03-04T11:08:23Z</time>
      </trkpt>
      <trkpt lat="43.5408" lon="5.53646">
        <ele>411</ele>
        <time>2012-03-04T11:08:25Z</time>
      </trkpt>
      <trkpt lat="43.54085" lon="5.53644">
        <ele>411</ele>
        <time>2012-03-04T11:08:26Z</time>
      </trkpt>
      <trkpt lat="43.54089" lon="5.53642">
        <ele>410</ele>
        <time>2012-03-04T11:08:27Z</time>
      </trkpt>
      <trkpt lat="43.54093" lon="5.5364">
        <ele>410</ele>
        <time>2012-03-04T11:08:28Z</time>
      </trkpt>
      <trkpt lat="43.54096" lon="5.53636">
        <ele>410</ele>
        <time>2012-03-04T11:08:29Z</time>
      </trkpt>
      <trkpt lat="43.54101" lon="5.53634">
        <ele>410</ele>
        <time>2012-03-04T11:08:30Z</time>
      </trkpt>
      <trkpt lat="43.54107" lon="5.53627">
        <ele>410</ele>
        <time>2012-03-04T11:08:32Z</time>
      </trkpt>
      <trkpt lat="43.54114" lon="5.53619">
        <ele>410</ele>
        <time>2012-03-04T11:08:34Z</time>
      </trkpt>
      <trkpt lat="43.54117" lon="5.53614">
        <ele>410</ele>
        <time>2012-03-04T11:08:35Z</time>
      </trkpt>
      <trkpt lat="43.54121" lon="5.5361">
        <ele>409</ele>
        <time>2012-03-04T11:08:36Z</time>
      </trkpt>
      <trkpt lat="43.54124" lon="5.53606">
        <ele>410</ele>
        <time>2012-03-04T11:08:37Z</time>
      </trkpt>
      <trkpt lat="43.54131" lon="5.53597">
        <ele>410</ele>
        <time>2012-03-04T11:08:39Z</time>
      </trkpt>
      <trkpt lat="43.54134" lon="5.53593">
        <ele>410</ele>
        <time>2012-03-04T11:08:40Z</time>
      </trkpt>
      <trkpt lat="43.54139" lon="5.53584">
        <ele>410</ele>
        <time>2012-03-04T11:08:42Z</time>
      </trkpt>
      <trkpt lat="43.54144" lon="5.5358">
        <ele>410</ele>
        <time>2012-03-04T11:08:43Z</time>
      </trkpt>
      <trkpt lat="43.54147" lon="5.53574">
        <ele>411</ele>
        <time>2012-03-04T11:08:44Z</time>
      </trkpt>
      <trkpt lat="43.54149" lon="5.53567">
        <ele>411</ele>
        <time>2012-03-04T11:08:45Z</time>
      </trkpt>
      <trkpt lat="43.54151" lon="5.53561">
        <ele>411</ele>
        <time>2012-03-04T11:08:46Z</time>
      </trkpt>
      <trkpt lat="43.54152" lon="5.53554">
        <ele>411</ele>
        <time>2012-03-04T11:08:47Z</time>
      </trkpt>
      <trkpt lat="43.54153" lon="5.53546">
        <ele>411</ele>
        <time>2012-03-04T11:08:48Z</time>
      </trkpt>
      <trkpt lat="43.54153" lon="5.53539">
        <ele>411</ele>
        <time>2012-03-04T11:08:49Z</time>
      </trkpt>
      <trkpt lat="43.54153" lon="5.53533">
        <ele>411</ele>
        <time>2012-03-04T11:08:50Z</time>
      </trkpt>
      <trkpt lat="43.54151" lon="5.53522">
        <ele>411</ele>
        <time>2012-03-04T11:08:52Z</time>
      </trkpt>
      <trkpt lat="43.5415" lon="5.53514">
        <ele>411</ele>
        <time>2012-03-04T11:08:54Z</time>
      </trkpt>
      <trkpt lat="43.54148" lon="5.53507">
        <ele>411</ele>
        <time>2012-03-04T11:08:56Z</time>
      </trkpt>
      <trkpt lat="43.54146" lon="5.53498">
        <ele>411</ele>
        <time>2012-03-04T11:08:58Z</time>
      </trkpt>
      <trkpt lat="43.54144" lon="5.53492">
        <ele>411</ele>
        <time>2012-03-04T11:09:00Z</time>
      </trkpt>
      <trkpt lat="43.54142" lon="5.53486">
        <ele>411</ele>
        <time>2012-03-04T11:09:02Z</time>
      </trkpt>
      <trkpt lat="43.5414" lon="5.53479">
        <ele>411</ele>
        <time>2012-03-04T11:09:04Z</time>
      </trkpt>
      <trkpt lat="43.54139" lon="5.53473">
        <ele>410</ele>
        <time>2012-03-04T11:09:06Z</time>
      </trkpt>
      <trkpt lat="43.54139" lon="5.53466">
        <ele>411</ele>
        <time>2012-03-04T11:09:08Z</time>
      </trkpt>
      <trkpt lat="43.54139" lon="5.53458">
        <ele>411</ele>
        <time>2012-03-04T11:09:12Z</time>
      </trkpt>
      <trkpt lat="43.54138" lon="5.53451">
        <ele>411</ele>
        <time>2012-03-04T11:09:14Z</time>
      </trkpt>
      <trkpt lat="43.54138" lon="5.53445">
        <ele>411</ele>
        <time>2012-03-04T11:09:16Z</time>
      </trkpt>
      <trkpt lat="43.54139" lon="5.53436">
        <ele>411</ele>
        <time>2012-03-04T11:09:19Z</time>
      </trkpt>
      <trkpt lat="43.54142" lon="5.5343">
        <ele>411</ele>
        <time>2012-03-04T11:09:22Z</time>
      </trkpt>
      <trkpt lat="43.54146" lon="5.53423">
        <ele>411</ele>
        <time>2012-03-04T11:09:24Z</time>
      </trkpt>
      <trkpt lat="43.54149" lon="5.53417">
        <ele>411</ele>
        <time>2012-03-04T11:09:26Z</time>
      </trkpt>
      <trkpt lat="43.54151" lon="5.5341">
        <ele>411</ele>
        <time>2012-03-04T11:09:28Z</time>
      </trkpt>
      <trkpt lat="43.54155" lon="5.53402">
        <ele>411</ele>
        <time>2012-03-04T11:09:31Z</time>
      </trkpt>
      <trkpt lat="43.54159" lon="5.53393">
        <ele>411</ele>
        <time>2012-03-04T11:09:34Z</time>
      </trkpt>
      <trkpt lat="43.5416" lon="5.53387">
        <ele>411</ele>
        <time>2012-03-04T11:09:36Z</time>
      </trkpt>
      <trkpt lat="43.5416" lon="5.5338">
        <ele>411</ele>
        <time>2012-03-04T11:09:38Z</time>
      </trkpt>
      <trkpt lat="43.54161" lon="5.53374">
        <ele>411</ele>
        <time>2012-03-04T11:09:40Z</time>
      </trkpt>
      <trkpt lat="43.54162" lon="5.53368">
        <ele>411</ele>
        <time>2012-03-04T11:09:42Z</time>
      </trkpt>
      <trkpt lat="43.54163" lon="5.53359">
        <ele>411</ele>
        <time>2012-03-04T11:09:44Z</time>
      </trkpt>
      <trkpt lat="43.54163" lon="5.5335">
        <ele>411</ele>
        <time>2012-03-04T11:09:46Z</time>
      </trkpt>
      <trkpt lat="43.54163" lon="5.53344">
        <ele>411</ele>
        <time>2012-03-04T11:09:47Z</time>
      </trkpt>
      <trkpt lat="43.54163" lon="5.53333">
        <ele>412</ele>
        <time>2012-03-04T11:09:49Z</time>
      </trkpt>
      <trkpt lat="43.54163" lon="5.53322">
        <ele>412</ele>
        <time>2012-03-04T11:09:51Z</time>
      </trkpt>
      <trkpt lat="43.54162" lon="5.53316">
        <ele>413</ele>
        <time>2012-03-04T11:09:52Z</time>
      </trkpt>
      <trkpt lat="43.54161" lon="5.53305">
        <ele>413</ele>
        <time>2012-03-04T11:09:54Z</time>
      </trkpt>
      <trkpt lat="43.5416" lon="5.53297">
        <ele>413</ele>
        <time>2012-03-04T11:09:56Z</time>
      </trkpt>
      <trkpt lat="43.54159" lon="5.53288">
        <ele>413</ele>
        <time>2012-03-04T11:09:58Z</time>
      </trkpt>
      <trkpt lat="43.54158" lon="5.5328">
        <ele>413</ele>
        <time>2012-03-04T11:10:00Z</time>
      </trkpt>
      <trkpt lat="43.54155" lon="5.53273">
        <ele>413</ele>
        <time>2012-03-04T11:10:02Z</time>
      </trkpt>
      <trkpt lat="43.54154" lon="5.53265">
        <ele>413</ele>
        <time>2012-03-04T11:10:04Z</time>
      </trkpt>
      <trkpt lat="43.54148" lon="5.53256">
        <ele>413</ele>
        <time>2012-03-04T11:10:07Z</time>
      </trkpt>
      <trkpt lat="43.54142" lon="5.5325">
        <ele>414</ele>
        <time>2012-03-04T11:10:09Z</time>
      </trkpt>
      <trkpt lat="43.54138" lon="5.53243">
        <ele>414</ele>
        <time>2012-03-04T11:10:11Z</time>
      </trkpt>
      <trkpt lat="43.54135" lon="5.53234">
        <ele>414</ele>
        <time>2012-03-04T11:10:13Z</time>
      </trkpt>
      <trkpt lat="43.54131" lon="5.53228">
        <ele>414</ele>
        <time>2012-03-04T11:10:15Z</time>
      </trkpt>
      <trkpt lat="43.54128" lon="5.5322">
        <ele>414</ele>
        <time>2012-03-04T11:10:17Z</time>
      </trkpt>
      <trkpt lat="43.54123" lon="5.53211">
        <ele>414</ele>
        <time>2012-03-04T11:10:19Z</time>
      </trkpt>
      <trkpt lat="43.54118" lon="5.53204">
        <ele>414</ele>
        <time>2012-03-04T11:10:21Z</time>
      </trkpt>
      <trkpt lat="43.54114" lon="5.53196">
        <ele>414</ele>
        <time>2012-03-04T11:10:23Z</time>
      </trkpt>
      <trkpt lat="43.54109" lon="5.5319">
        <ele>414</ele>
        <time>2012-03-04T11:10:25Z</time>
      </trkpt>
      <trkpt lat="43.54105" lon="5.53183">
        <ele>414</ele>
        <time>2012-03-04T11:10:27Z</time>
      </trkpt>
      <trkpt lat="43.54101" lon="5.53174">
        <ele>414</ele>
        <time>2012-03-04T11:10:29Z</time>
      </trkpt>
      <trkpt lat="43.54097" lon="5.53168">
        <ele>414</ele>
        <time>2012-03-04T11:10:31Z</time>
      </trkpt>
      <trkpt lat="43.54094" lon="5.53159">
        <ele>414</ele>
        <time>2012-03-04T11:10:33Z</time>
      </trkpt>
      <trkpt lat="43.54092" lon="5.53151">
        <ele>414</ele>
        <time>2012-03-04T11:10:35Z</time>
      </trkpt>
      <trkpt lat="43.54089" lon="5.53142">
        <ele>414</ele>
        <time>2012-03-04T11:10:37Z</time>
      </trkpt>
      <trkpt lat="43.54087" lon="5.53134">
        <ele>414</ele>
        <time>2012-03-04T11:10:39Z</time>
      </trkpt>
      <trkpt lat="43.54085" lon="5.53123">
        <ele>414</ele>
        <time>2012-03-04T11:10:41Z</time>
      </trkpt>
      <trkpt lat="43.54082" lon="5.53112">
        <ele>414</ele>
        <time>2012-03-04T11:10:43Z</time>
      </trkpt>
      <trkpt lat="43.54082" lon="5.53102">
        <ele>414</ele>
        <time>2012-03-04T11:10:45Z</time>
      </trkpt>
      <trkpt lat="43.54084" lon="5.53095">
        <ele>414</ele>
        <time>2012-03-04T11:10:47Z</time>
      </trkpt>
      <trkpt lat="43.54087" lon="5.53089">
        <ele>414</ele>
        <time>2012-03-04T11:10:49Z</time>
      </trkpt>
      <trkpt lat="43.54091" lon="5.53082">
        <ele>414</ele>
        <time>2012-03-04T11:10:51Z</time>
      </trkpt>
      <trkpt lat="43.54094" lon="5.53078">
        <ele>414</ele>
        <time>2012-03-04T11:10:52Z</time>
      </trkpt>
      <trkpt lat="43.54098" lon="5.53071">
        <ele>415</ele>
        <time>2012-03-04T11:10:54Z</time>
      </trkpt>
      <trkpt lat="43.54104" lon="5.53065">
        <ele>415</ele>
        <time>2012-03-04T11:10:56Z</time>
      </trkpt>
      <trkpt lat="43.54108" lon="5.53056">
        <ele>415</ele>
        <time>2012-03-04T11:10:58Z</time>
      </trkpt>
      <trkpt lat="43.54111" lon="5.53048">
        <ele>415</ele>
        <time>2012-03-04T11:11:00Z</time>
      </trkpt>
      <trkpt lat="43.54116" lon="5.53041">
        <ele>415</ele>
        <time>2012-03-04T11:11:02Z</time>
      </trkpt>
      <trkpt lat="43.54119" lon="5.53031">
        <ele>415</ele>
        <time>2012-03-04T11:11:04Z</time>
      </trkpt>
      <trkpt lat="43.54124" lon="5.53022">
        <ele>416</ele>
        <time>2012-03-04T11:11:06Z</time>
      </trkpt>
      <trkpt lat="43.54128" lon="5.53016">
        <ele>416</ele>
        <time>2012-03-04T11:11:07Z</time>
      </trkpt>
      <trkpt lat="43.54132" lon="5.53005">
        <ele>416</ele>
        <time>2012-03-04T11:11:09Z</time>
      </trkpt>
      <trkpt lat="43.54132" lon="5.52998">
        <ele>416</ele>
        <time>2012-03-04T11:11:10Z</time>
      </trkpt>
      <trkpt lat="43.5413" lon="5.5299">
        <ele>417</ele>
        <time>2012-03-04T11:11:12Z</time>
      </trkpt>
      <trkpt lat="43.54128" lon="5.52984">
        <ele>417</ele>
        <time>2012-03-04T11:11:13Z</time>
      </trkpt>
      <trkpt lat="43.54122" lon="5.52977">
        <ele>417</ele>
        <time>2012-03-04T11:11:15Z</time>
      </trkpt>
      <trkpt lat="43.54118" lon="5.52973">
        <ele>417</ele>
        <time>2012-03-04T11:11:16Z</time>
      </trkpt>
      <trkpt lat="43.54111" lon="5.52968">
        <ele>418</ele>
        <time>2012-03-04T11:11:18Z</time>
      </trkpt>
      <trkpt lat="43.54107" lon="5.52964">
        <ele>418</ele>
        <time>2012-03-04T11:11:19Z</time>
      </trkpt>
      <trkpt lat="43.54101" lon="5.5296">
        <ele>418</ele>
        <time>2012-03-04T11:11:21Z</time>
      </trkpt>
      <trkpt lat="43.54095" lon="5.52953">
        <ele>418</ele>
        <time>2012-03-04T11:11:23Z</time>
      </trkpt>
      <trkpt lat="43.5409" lon="5.52947">
        <ele>418</ele>
        <time>2012-03-04T11:11:25Z</time>
      </trkpt>
      <trkpt lat="43.54086" lon="5.52938">
        <ele>418</ele>
        <time>2012-03-04T11:11:27Z</time>
      </trkpt>
      <trkpt lat="43.5408" lon="5.5293">
        <ele>418</ele>
        <time>2012-03-04T11:11:29Z</time>
      </trkpt>
      <trkpt lat="43.54076" lon="5.52921">
        <ele>418</ele>
        <time>2012-03-04T11:11:31Z</time>
      </trkpt>
      <trkpt lat="43.54072" lon="5.5291">
        <ele>418</ele>
        <time>2012-03-04T11:11:33Z</time>
      </trkpt>
      <trkpt lat="43.5407" lon="5.52904">
        <ele>418</ele>
        <time>2012-03-04T11:11:34Z</time>
      </trkpt>
      <trkpt lat="43.54067" lon="5.52898">
        <ele>418</ele>
        <time>2012-03-04T11:11:35Z</time>
      </trkpt>
      <trkpt lat="43.54064" lon="5.52887">
        <ele>417</ele>
        <time>2012-03-04T11:11:37Z</time>
      </trkpt>
      <trkpt lat="43.54059" lon="5.52878">
        <ele>417</ele>
        <time>2012-03-04T11:11:39Z</time>
      </trkpt>
      <trkpt lat="43.54053" lon="5.52872">
        <ele>417</ele>
        <time>2012-03-04T11:11:41Z</time>
      </trkpt>
      <trkpt lat="43.54047" lon="5.52866">
        <ele>417</ele>
        <time>2012-03-04T11:11:43Z</time>
      </trkpt>
      <trkpt lat="43.54041" lon="5.52857">
        <ele>416</ele>
        <time>2012-03-04T11:11:45Z</time>
      </trkpt>
      <trkpt lat="43.54035" lon="5.52848">
        <ele>416</ele>
        <time>2012-03-04T11:11:47Z</time>
      </trkpt>
      <trkpt lat="43.54031" lon="5.52842">
        <ele>416</ele>
        <time>2012-03-04T11:11:48Z</time>
      </trkpt>
      <trkpt lat="43.54023" lon="5.52833">
        <ele>416</ele>
        <time>2012-03-04T11:11:50Z</time>
      </trkpt>
      <trkpt lat="43.54017" lon="5.52827">
        <ele>416</ele>
        <time>2012-03-04T11:11:52Z</time>
      </trkpt>
      <trkpt lat="43.5401" lon="5.52822">
        <ele>416</ele>
        <time>2012-03-04T11:11:54Z</time>
      </trkpt>
      <trkpt lat="43.54005" lon="5.5282">
        <ele>416</ele>
        <time>2012-03-04T11:11:55Z</time>
      </trkpt>
      <trkpt lat="43.54001" lon="5.52818">
        <ele>416</ele>
        <time>2012-03-04T11:11:56Z</time>
      </trkpt>
      <trkpt lat="43.53996" lon="5.5281">
        <ele>415</ele>
        <time>2012-03-04T11:11:58Z</time>
      </trkpt>
      <trkpt lat="43.53993" lon="5.52803">
        <ele>415</ele>
        <time>2012-03-04T11:11:59Z</time>
      </trkpt>
      <trkpt lat="43.53992" lon="5.52797">
        <ele>416</ele>
        <time>2012-03-04T11:12:00Z</time>
      </trkpt>
      <trkpt lat="43.53991" lon="5.5279">
        <ele>416</ele>
        <time>2012-03-04T11:12:01Z</time>
      </trkpt>
      <trkpt lat="43.53991" lon="5.52784">
        <ele>416</ele>
        <time>2012-03-04T11:12:02Z</time>
      </trkpt>
      <trkpt lat="43.5399" lon="5.52778">
        <ele>416</ele>
        <time>2012-03-04T11:12:04Z</time>
      </trkpt>
      <trkpt lat="43.5399" lon="5.52771">
        <ele>416</ele>
        <time>2012-03-04T11:12:06Z</time>
      </trkpt>
      <trkpt lat="43.5399" lon="5.52765">
        <ele>416</ele>
        <time>2012-03-04T11:12:10Z</time>
      </trkpt>
      <trkpt lat="43.53991" lon="5.52758">
        <ele>416</ele>
        <time>2012-03-04T11:12:12Z</time>
      </trkpt>
      <trkpt lat="43.53992" lon="5.52752">
        <ele>416</ele>
        <time>2012-03-04T11:12:14Z</time>
      </trkpt>
      <trkpt lat="43.53992" lon="5.52745">
        <ele>416</ele>
        <time>2012-03-04T11:12:17Z</time>
      </trkpt>
      <trkpt lat="43.53991" lon="5.52739">
        <ele>416</ele>
        <time>2012-03-04T11:12:19Z</time>
      </trkpt>
      <trkpt lat="43.53989" lon="5.52728">
        <ele>416</ele>
        <time>2012-03-04T11:12:21Z</time>
      </trkpt>
      <trkpt lat="43.53988" lon="5.5272">
        <ele>415</ele>
        <time>2012-03-04T11:12:23Z</time>
      </trkpt>
      <trkpt lat="43.53987" lon="5.52713">
        <ele>415</ele>
        <time>2012-03-04T11:12:24Z</time>
      </trkpt>
      <trkpt lat="43.53985" lon="5.52702">
        <ele>415</ele>
        <time>2012-03-04T11:12:26Z</time>
      </trkpt>
      <trkpt lat="43.53982" lon="5.52694">
        <ele>415</ele>
        <time>2012-03-04T11:12:28Z</time>
      </trkpt>
      <trkpt lat="43.53977" lon="5.52685">
        <ele>414</ele>
        <time>2012-03-04T11:12:30Z</time>
      </trkpt>
      <trkpt lat="43.53975" lon="5.52677">
        <ele>414</ele>
        <time>2012-03-04T11:12:32Z</time>
      </trkpt>
      <trkpt lat="43.53971" lon="5.52668">
        <ele>414</ele>
        <time>2012-03-04T11:12:34Z</time>
      </trkpt>
      <trkpt lat="43.5397" lon="5.52662">
        <ele>414</ele>
        <time>2012-03-04T11:12:35Z</time>
      </trkpt>
      <trkpt lat="43.53969" lon="5.52653">
        <ele>414</ele>
        <time>2012-03-04T11:12:37Z</time>
      </trkpt>
      <trkpt lat="43.5397" lon="5.52647">
        <ele>414</ele>
        <time>2012-03-04T11:12:38Z</time>
      </trkpt>
      <trkpt lat="43.5397" lon="5.52636">
        <ele>414</ele>
        <time>2012-03-04T11:12:40Z</time>
      </trkpt>
      <trkpt lat="43.53971" lon="5.52627">
        <ele>414</ele>
        <time>2012-03-04T11:12:42Z</time>
      </trkpt>
      <trkpt lat="43.53969" lon="5.52619">
        <ele>414</ele>
        <time>2012-03-04T11:12:44Z</time>
      </trkpt>
      <trkpt lat="43.53966" lon="5.5261">
        <ele>414</ele>
        <time>2012-03-04T11:12:46Z</time>
      </trkpt>
      <trkpt lat="43.53964" lon="5.52602">
        <ele>414</ele>
        <time>2012-03-04T11:12:48Z</time>
      </trkpt>
      <trkpt lat="43.53961" lon="5.52593">
        <ele>414</ele>
        <time>2012-03-04T11:12:50Z</time>
      </trkpt>
      <trkpt lat="43.53959" lon="5.52586">
        <ele>414</ele>
        <time>2012-03-04T11:12:51Z</time>
      </trkpt>
      <trkpt lat="43.53957" lon="5.5258">
        <ele>414</ele>
        <time>2012-03-04T11:12:52Z</time>
      </trkpt>
      <trkpt lat="43.53956" lon="5.52574">
        <ele>414</ele>
        <time>2012-03-04T11:12:53Z</time>
      </trkpt>
      <trkpt lat="43.53954" lon="5.52567">
        <ele>414</ele>
        <time>2012-03-04T11:12:54Z</time>
      </trkpt>
      <trkpt lat="43.53952" lon="5.52556">
        <ele>414</ele>
        <time>2012-03-04T11:12:56Z</time>
      </trkpt>
      <trkpt lat="43.5395" lon="5.52548">
        <ele>414</ele>
        <time>2012-03-04T11:12:58Z</time>
      </trkpt>
      <trkpt lat="43.53952" lon="5.52541">
        <ele>414</ele>
        <time>2012-03-04T11:13:00Z</time>
      </trkpt>
      <trkpt lat="43.53954" lon="5.52535">
        <ele>414</ele>
        <time>2012-03-04T11:13:02Z</time>
      </trkpt>
      <trkpt lat="43.53955" lon="5.52518">
        <ele>414</ele>
        <time>2012-03-04T11:13:17Z</time>
      </trkpt>
      <trkpt lat="43.53954" lon="5.52511">
        <ele>414</ele>
        <time>2012-03-04T11:13:21Z</time>
      </trkpt>
      <trkpt lat="43.53954" lon="5.52511">
        <ele>414</ele>
        <time>2012-03-04T11:13:21Z</time>
      </trkpt>
      <trkpt lat="43.53954" lon="5.52511">
        <ele>413</ele>
        <time>2012-03-04T11:13:51Z</time>
      </trkpt>
      <trkpt lat="43.53953" lon="5.52503">
        <ele>413</ele>
        <time>2012-03-04T11:13:52Z</time>
      </trkpt>
      <trkpt lat="43.53953" lon="5.52503">
        <ele>413</ele>
        <time>2012-03-04T11:13:52Z</time>
      </trkpt>
      <trkpt lat="43.53953" lon="5.52503">
        <ele>413</ele>
        <time>2012-03-04T11:13:54Z</time>
      </trkpt>
      <trkpt lat="43.53948" lon="5.52498">
        <ele>413</ele>
        <time>2012-03-04T11:13:56Z</time>
      </trkpt>
      <trkpt lat="43.53944" lon="5.52492">
        <ele>413</ele>
        <time>2012-03-04T11:13:58Z</time>
      </trkpt>
      <trkpt lat="43.5394" lon="5.52486">
        <ele>413</ele>
        <time>2012-03-04T11:14:00Z</time>
      </trkpt>
      <trkpt lat="43.53932" lon="5.52484">
        <ele>412</ele>
        <time>2012-03-04T11:14:03Z</time>
      </trkpt>
      <trkpt lat="43.53925" lon="5.52484">
        <ele>412</ele>
        <time>2012-03-04T11:14:06Z</time>
      </trkpt>
      <trkpt lat="43.5392" lon="5.52479">
        <ele>412</ele>
        <time>2012-03-04T11:14:08Z</time>
      </trkpt>
      <trkpt lat="43.53916" lon="5.52475">
        <ele>412</ele>
        <time>2012-03-04T11:14:10Z</time>
      </trkpt>
      <trkpt lat="43.53912" lon="5.52471">
        <ele>412</ele>
        <time>2012-03-04T11:14:12Z</time>
      </trkpt>
      <trkpt lat="43.5391" lon="5.52464">
        <ele>412</ele>
        <time>2012-03-04T11:14:14Z</time>
      </trkpt>
      <trkpt lat="43.53908" lon="5.52458">
        <ele>412</ele>
        <time>2012-03-04T11:14:16Z</time>
      </trkpt>
      <trkpt lat="43.53906" lon="5.52451">
        <ele>412</ele>
        <time>2012-03-04T11:14:19Z</time>
      </trkpt>
      <trkpt lat="43.53902" lon="5.52445">
        <ele>412</ele>
        <time>2012-03-04T11:14:22Z</time>
      </trkpt>
      <trkpt lat="43.539" lon="5.52438">
        <ele>412</ele>
        <time>2012-03-04T11:14:24Z</time>
      </trkpt>
      <trkpt lat="43.53899" lon="5.5243">
        <ele>411</ele>
        <time>2012-03-04T11:14:26Z</time>
      </trkpt>
      <trkpt lat="43.53897" lon="5.52421">
        <ele>411</ele>
        <time>2012-03-04T11:14:28Z</time>
      </trkpt>
      <trkpt lat="43.53896" lon="5.52413">
        <ele>411</ele>
        <time>2012-03-04T11:14:30Z</time>
      </trkpt>
      <trkpt lat="43.53894" lon="5.52406">
        <ele>411</ele>
        <time>2012-03-04T11:14:32Z</time>
      </trkpt>
      <trkpt lat="43.53892" lon="5.524">
        <ele>411</ele>
        <time>2012-03-04T11:14:34Z</time>
      </trkpt>
      <trkpt lat="43.53892" lon="5.52391">
        <ele>411</ele>
        <time>2012-03-04T11:14:36Z</time>
      </trkpt>
      <trkpt lat="43.53891" lon="5.52385">
        <ele>410</ele>
        <time>2012-03-04T11:14:38Z</time>
      </trkpt>
      <trkpt lat="43.53891" lon="5.52376">
        <ele>410</ele>
        <time>2012-03-04T11:14:40Z</time>
      </trkpt>
      <trkpt lat="43.53891" lon="5.52368">
        <ele>410</ele>
        <time>2012-03-04T11:14:42Z</time>
      </trkpt>
      <trkpt lat="43.53891" lon="5.52361">
        <ele>410</ele>
        <time>2012-03-04T11:14:44Z</time>
      </trkpt>
      <trkpt lat="43.5389" lon="5.52355">
        <ele>409</ele>
        <time>2012-03-04T11:14:46Z</time>
      </trkpt>
      <trkpt lat="43.53885" lon="5.52348">
        <ele>409</ele>
        <time>2012-03-04T11:14:49Z</time>
      </trkpt>
      <trkpt lat="43.53882" lon="5.52342">
        <ele>409</ele>
        <time>2012-03-04T11:14:51Z</time>
      </trkpt>
      <trkpt lat="43.5388" lon="5.52336">
        <ele>409</ele>
        <time>2012-03-04T11:14:53Z</time>
      </trkpt>
      <trkpt lat="43.53879" lon="5.52329">
        <ele>408</ele>
        <time>2012-03-04T11:14:56Z</time>
      </trkpt>
      <trkpt lat="43.53878" lon="5.52323">
        <ele>408</ele>
        <time>2012-03-04T11:15:00Z</time>
      </trkpt>
      <trkpt lat="43.53876" lon="5.52316">
        <ele>407</ele>
        <time>2012-03-04T11:15:02Z</time>
      </trkpt>
      <trkpt lat="43.53875" lon="5.52308">
        <ele>407</ele>
        <time>2012-03-04T11:15:04Z</time>
      </trkpt>
      <trkpt lat="43.53874" lon="5.52299">
        <ele>407</ele>
        <time>2012-03-04T11:15:06Z</time>
      </trkpt>
      <trkpt lat="43.53871" lon="5.5229">
        <ele>407</ele>
        <time>2012-03-04T11:15:08Z</time>
      </trkpt>
      <trkpt lat="43.53868" lon="5.52284">
        <ele>407</ele>
        <time>2012-03-04T11:15:10Z</time>
      </trkpt>
      <trkpt lat="43.53862" lon="5.52278">
        <ele>406</ele>
        <time>2012-03-04T11:15:13Z</time>
      </trkpt>
      <trkpt lat="43.5386" lon="5.52271">
        <ele>406</ele>
        <time>2012-03-04T11:15:15Z</time>
      </trkpt>
      <trkpt lat="43.53856" lon="5.52265">
        <ele>406</ele>
        <time>2012-03-04T11:15:18Z</time>
      </trkpt>
      <trkpt lat="43.53851" lon="5.52258">
        <ele>405</ele>
        <time>2012-03-04T11:15:22Z</time>
      </trkpt>
      <trkpt lat="43.53848" lon="5.52252">
        <ele>405</ele>
        <time>2012-03-04T11:15:24Z</time>
      </trkpt>
      <trkpt lat="43.53843" lon="5.52245">
        <ele>404</ele>
        <time>2012-03-04T11:15:27Z</time>
      </trkpt>
      <trkpt lat="43.53838" lon="5.52241">
        <ele>404</ele>
        <time>2012-03-04T11:15:29Z</time>
      </trkpt>
      <trkpt lat="43.53834" lon="5.52237">
        <ele>404</ele>
        <time>2012-03-04T11:15:31Z</time>
      </trkpt>
      <trkpt lat="43.53829" lon="5.52232">
        <ele>404</ele>
        <time>2012-03-04T11:15:33Z</time>
      </trkpt>
      <trkpt lat="43.53827" lon="5.52226">
        <ele>404</ele>
        <time>2012-03-04T11:15:35Z</time>
      </trkpt>
      <trkpt lat="43.53821" lon="5.52226">
        <ele>403</ele>
        <time>2012-03-04T11:15:38Z</time>
      </trkpt>
      <trkpt lat="43.53814" lon="5.52226">
        <ele>403</ele>
        <time>2012-03-04T11:15:41Z</time>
      </trkpt>
      <trkpt lat="43.5381" lon="5.52224">
        <ele>402</ele>
        <time>2012-03-04T11:16:53Z</time>
      </trkpt>
      <trkpt lat="43.5381" lon="5.52224">
        <ele>402</ele>
        <time>2012-03-04T11:16:53Z</time>
      </trkpt>
      <trkpt lat="43.5381" lon="5.52224">
        <ele>402</ele>
        <time>2012-03-04T11:17:11Z</time>
      </trkpt>
      <trkpt lat="43.53808" lon="5.52217">
        <ele>401</ele>
        <time>2012-03-04T11:17:20Z</time>
      </trkpt>
      <trkpt lat="43.53804" lon="5.52209">
        <ele>401</ele>
        <time>2012-03-04T11:17:23Z</time>
      </trkpt>
      <trkpt lat="43.53804" lon="5.522">
        <ele>401</ele>
        <time>2012-03-04T11:17:25Z</time>
      </trkpt>
      <trkpt lat="43.53801" lon="5.52194">
        <ele>401</ele>
        <time>2012-03-04T11:17:27Z</time>
      </trkpt>
      <trkpt lat="43.53799" lon="5.52187">
        <ele>401</ele>
        <time>2012-03-04T11:17:29Z</time>
      </trkpt>
      <trkpt lat="43.53797" lon="5.52181">
        <ele>400</ele>
        <time>2012-03-04T11:17:32Z</time>
      </trkpt>
      <trkpt lat="43.53797" lon="5.52174">
        <ele>400</ele>
        <time>2012-03-04T11:17:39Z</time>
      </trkpt>
      <trkpt lat="43.53798" lon="5.52166">
        <ele>400</ele>
        <time>2012-03-04T11:17:42Z</time>
      </trkpt>
      <trkpt lat="43.53801" lon="5.5216">
        <ele>400</ele>
        <time>2012-03-04T11:17:45Z</time>
      </trkpt>
      <trkpt lat="43.53804" lon="5.52155">
        <ele>400</ele>
        <time>2012-03-04T11:17:48Z</time>
      </trkpt>
      <trkpt lat="43.53808" lon="5.52151">
        <ele>400</ele>
        <time>2012-03-04T11:17:50Z</time>
      </trkpt>
      <trkpt lat="43.53813" lon="5.52149">
        <ele>400</ele>
        <time>2012-03-04T11:17:53Z</time>
      </trkpt>
      <trkpt lat="43.53817" lon="5.52147">
        <ele>400</ele>
        <time>2012-03-04T11:17:55Z</time>
      </trkpt>
      <trkpt lat="43.53824" lon="5.52147">
        <ele>400</ele>
        <time>2012-03-04T11:17:58Z</time>
      </trkpt>
      <trkpt lat="43.5383" lon="5.52147">
        <ele>400</ele>
        <time>2012-03-04T11:18:01Z</time>
      </trkpt>
      <trkpt lat="43.53835" lon="5.52149">
        <ele>399</ele>
        <time>2012-03-04T11:18:03Z</time>
      </trkpt>
      <trkpt lat="43.53839" lon="5.52153">
        <ele>399</ele>
        <time>2012-03-04T11:18:05Z</time>
      </trkpt>
      <trkpt lat="43.53844" lon="5.52155">
        <ele>399</ele>
        <time>2012-03-04T11:18:08Z</time>
      </trkpt>
      <trkpt lat="43.53848" lon="5.5216">
        <ele>399</ele>
        <time>2012-03-04T11:18:11Z</time>
      </trkpt>
      <trkpt lat="43.53854" lon="5.52164">
        <ele>399</ele>
        <time>2012-03-04T11:18:14Z</time>
      </trkpt>
      <trkpt lat="43.53859" lon="5.52168">
        <ele>399</ele>
        <time>2012-03-04T11:18:17Z</time>
      </trkpt>
      <trkpt lat="43.53865" lon="5.52172">
        <ele>399</ele>
        <time>2012-03-04T11:18:20Z</time>
      </trkpt>
      <trkpt lat="43.53869" lon="5.52174">
        <ele>399</ele>
        <time>2012-03-04T11:18:22Z</time>
      </trkpt>
      <trkpt lat="43.53876" lon="5.52179">
        <ele>399</ele>
        <time>2012-03-04T11:18:24Z</time>
      </trkpt>
      <trkpt lat="43.53883" lon="5.52179">
        <ele>399</ele>
        <time>2012-03-04T11:18:26Z</time>
      </trkpt>
      <trkpt lat="43.53889" lon="5.52179">
        <ele>399</ele>
        <time>2012-03-04T11:18:28Z</time>
      </trkpt>
      <trkpt lat="43.53895" lon="5.52177">
        <ele>399</ele>
        <time>2012-03-04T11:18:30Z</time>
      </trkpt>
      <trkpt lat="43.539" lon="5.52174">
        <ele>399</ele>
        <time>2012-03-04T11:18:32Z</time>
      </trkpt>
      <trkpt lat="43.53906" lon="5.5217">
        <ele>399</ele>
        <time>2012-03-04T11:18:34Z</time>
      </trkpt>
      <trkpt lat="43.53912" lon="5.52166">
        <ele>399</ele>
        <time>2012-03-04T11:18:36Z</time>
      </trkpt>
      <trkpt lat="43.53917" lon="5.52162">
        <ele>399</ele>
        <time>2012-03-04T11:18:38Z</time>
      </trkpt>
      <trkpt lat="43.53923" lon="5.5216">
        <ele>399</ele>
        <time>2012-03-04T11:18:40Z</time>
      </trkpt>
      <trkpt lat="43.53928" lon="5.52155">
        <ele>399</ele>
        <time>2012-03-04T11:18:42Z</time>
      </trkpt>
      <trkpt lat="43.53932" lon="5.52153">
        <ele>399</ele>
        <time>2012-03-04T11:18:44Z</time>
      </trkpt>
      <trkpt lat="43.53936" lon="5.52151">
        <ele>399</ele>
        <time>2012-03-04T11:18:46Z</time>
      </trkpt>
      <trkpt lat="43.53941" lon="5.52147">
        <ele>399</ele>
        <time>2012-03-04T11:18:48Z</time>
      </trkpt>
      <trkpt lat="43.53946" lon="5.5214">
        <ele>399</ele>
        <time>2012-03-04T11:18:51Z</time>
      </trkpt>
      <trkpt lat="43.5395" lon="5.52136">
        <ele>399</ele>
        <time>2012-03-04T11:18:53Z</time>
      </trkpt>
      <trkpt lat="43.53955" lon="5.52134">
        <ele>399</ele>
        <time>2012-03-04T11:18:55Z</time>
      </trkpt>
      <trkpt lat="43.53959" lon="5.52132">
        <ele>399</ele>
        <time>2012-03-04T11:18:58Z</time>
      </trkpt>
      <trkpt lat="43.53963" lon="5.52127">
        <ele>399</ele>
        <time>2012-03-04T11:19:01Z</time>
      </trkpt>
      <trkpt lat="43.53968" lon="5.52123">
        <ele>399</ele>
        <time>2012-03-04T11:19:04Z</time>
      </trkpt>
      <trkpt lat="43.53972" lon="5.52119">
        <ele>399</ele>
        <time>2012-03-04T11:19:07Z</time>
      </trkpt>
      <trkpt lat="43.53975" lon="5.52112">
        <ele>399</ele>
        <time>2012-03-04T11:19:13Z</time>
      </trkpt>
      <trkpt lat="43.53975" lon="5.52112">
        <ele>399</ele>
        <time>2012-03-04T11:19:13Z</time>
      </trkpt>
      <trkpt lat="43.53975" lon="5.52112">
        <ele>399</ele>
        <time>2012-03-04T11:19:14Z</time>
      </trkpt>
      <trkpt lat="43.53977" lon="5.52106">
        <ele>399</ele>
        <time>2012-03-04T11:19:19Z</time>
      </trkpt>
      <trkpt lat="43.53977" lon="5.52106">
        <ele>399</ele>
        <time>2012-03-04T11:19:19Z</time>
      </trkpt>
      <trkpt lat="43.53977" lon="5.52106">
        <ele>398</ele>
        <time>2012-03-04T11:19:20Z</time>
      </trkpt>
      <trkpt lat="43.53977" lon="5.52099">
        <ele>398</ele>
        <time>2012-03-04T11:19:24Z</time>
      </trkpt>
      <trkpt lat="43.53977" lon="5.52099">
        <ele>398</ele>
        <time>2012-03-04T11:19:24Z</time>
      </trkpt>
      <trkpt lat="43.53977" lon="5.52099">
        <ele>398</ele>
        <time>2012-03-04T11:19:25Z</time>
      </trkpt>
      <trkpt lat="43.53975" lon="5.52093">
        <ele>398</ele>
        <time>2012-03-04T11:19:30Z</time>
      </trkpt>
      <trkpt lat="43.53975" lon="5.52093">
        <ele>398</ele>
        <time>2012-03-04T11:19:30Z</time>
      </trkpt>
      <trkpt lat="43.53975" lon="5.52093">
        <ele>398</ele>
        <time>2012-03-04T11:19:31Z</time>
      </trkpt>
      <trkpt lat="43.53971" lon="5.52086">
        <ele>398</ele>
        <time>2012-03-04T11:19:37Z</time>
      </trkpt>
      <trkpt lat="43.53966" lon="5.5208">
        <ele>398</ele>
        <time>2012-03-04T11:19:40Z</time>
      </trkpt>
      <trkpt lat="43.53961" lon="5.52076">
        <ele>398</ele>
        <time>2012-03-04T11:19:43Z</time>
      </trkpt>
      <trkpt lat="43.53956" lon="5.52072">
        <ele>398</ele>
        <time>2012-03-04T11:19:46Z</time>
      </trkpt>
      <trkpt lat="43.53952" lon="5.52065">
        <ele>398</ele>
        <time>2012-03-04T11:19:49Z</time>
      </trkpt>
      <trkpt lat="43.53948" lon="5.52059">
        <ele>398</ele>
        <time>2012-03-04T11:19:52Z</time>
      </trkpt>
      <trkpt lat="43.53946" lon="5.52052">
        <ele>398</ele>
        <time>2012-03-04T11:19:54Z</time>
      </trkpt>
      <trkpt lat="43.53942" lon="5.52046">
        <ele>398</ele>
        <time>2012-03-04T11:19:57Z</time>
      </trkpt>
      <trkpt lat="43.53938" lon="5.52039">
        <ele>398</ele>
        <time>2012-03-04T11:20:00Z</time>
      </trkpt>
      <trkpt lat="43.53933" lon="5.52035">
        <ele>398</ele>
        <time>2012-03-04T11:20:03Z</time>
      </trkpt>
      <trkpt lat="43.5393" lon="5.52029">
        <ele>398</ele>
        <time>2012-03-04T11:20:07Z</time>
      </trkpt>
      <trkpt lat="43.53929" lon="5.5202">
        <ele>398</ele>
        <time>2012-03-04T11:20:10Z</time>
      </trkpt>
      <trkpt lat="43.53929" lon="5.52014">
        <ele>398</ele>
        <time>2012-03-04T11:20:12Z</time>
      </trkpt>
      <trkpt lat="43.53931" lon="5.52005">
        <ele>398</ele>
        <time>2012-03-04T11:20:14Z</time>
      </trkpt>
      <trkpt lat="43.53934" lon="5.51999">
        <ele>398</ele>
        <time>2012-03-04T11:20:16Z</time>
      </trkpt>
      <trkpt lat="43.53941" lon="5.51992">
        <ele>398</ele>
        <time>2012-03-04T11:20:19Z</time>
      </trkpt>
      <trkpt lat="43.53945" lon="5.51988">
        <ele>398</ele>
        <time>2012-03-04T11:20:21Z</time>
      </trkpt>
      <trkpt lat="43.53949" lon="5.51986">
        <ele>398</ele>
        <time>2012-03-04T11:20:23Z</time>
      </trkpt>
      <trkpt lat="43.53954" lon="5.51984">
        <ele>399</ele>
        <time>2012-03-04T11:20:25Z</time>
      </trkpt>
      <trkpt lat="43.53959" lon="5.51984">
        <ele>399</ele>
        <time>2012-03-04T11:20:28Z</time>
      </trkpt>
      <trkpt lat="43.53964" lon="5.51981">
        <ele>399</ele>
        <time>2012-03-04T11:20:31Z</time>
      </trkpt>
      <trkpt lat="43.5397" lon="5.51977">
        <ele>398</ele>
        <time>2012-03-04T11:20:34Z</time>
      </trkpt>
      <trkpt lat="43.53975" lon="5.51973">
        <ele>398</ele>
        <time>2012-03-04T11:20:37Z</time>
      </trkpt>
      <trkpt lat="43.53979" lon="5.51971">
        <ele>398</ele>
        <time>2012-03-04T11:20:39Z</time>
      </trkpt>
      <trkpt lat="43.53984" lon="5.51968">
        <ele>398</ele>
        <time>2012-03-04T11:20:41Z</time>
      </trkpt>
      <trkpt lat="43.53989" lon="5.51964">
        <ele>398</ele>
        <time>2012-03-04T11:20:44Z</time>
      </trkpt>
      <trkpt lat="43.53994" lon="5.5196">
        <ele>398</ele>
        <time>2012-03-04T11:20:47Z</time>
      </trkpt>
      <trkpt lat="43.54" lon="5.51956">
        <ele>398</ele>
        <time>2012-03-04T11:20:50Z</time>
      </trkpt>
      <trkpt lat="43.54005" lon="5.51951">
        <ele>397</ele>
        <time>2012-03-04T11:20:52Z</time>
      </trkpt>
      <trkpt lat="43.5401" lon="5.51947">
        <ele>397</ele>
        <time>2012-03-04T11:20:54Z</time>
      </trkpt>
      <trkpt lat="43.54014" lon="5.51943">
        <ele>397</ele>
        <time>2012-03-04T11:20:55Z</time>
      </trkpt>
      <trkpt lat="43.54019" lon="5.51938">
        <ele>397</ele>
        <time>2012-03-04T11:20:57Z</time>
      </trkpt>
      <trkpt lat="43.54023" lon="5.51932">
        <ele>397</ele>
        <time>2012-03-04T11:20:59Z</time>
      </trkpt>
      <trkpt lat="43.54028" lon="5.51928">
        <ele>396</ele>
        <time>2012-03-04T11:21:01Z</time>
      </trkpt>
      <trkpt lat="43.54031" lon="5.51919">
        <ele>396</ele>
        <time>2012-03-04T11:21:03Z</time>
      </trkpt>
      <trkpt lat="43.54034" lon="5.51913">
        <ele>396</ele>
        <time>2012-03-04T11:21:05Z</time>
      </trkpt>
      <trkpt lat="43.54037" lon="5.51906">
        <ele>396</ele>
        <time>2012-03-04T11:21:07Z</time>
      </trkpt>
      <trkpt lat="43.54041" lon="5.519">
        <ele>395</ele>
        <time>2012-03-04T11:21:09Z</time>
      </trkpt>
      <trkpt lat="43.54046" lon="5.51893">
        <ele>395</ele>
        <time>2012-03-04T11:21:12Z</time>
      </trkpt>
      <trkpt lat="43.54047" lon="5.51887">
        <ele>395</ele>
        <time>2012-03-04T11:21:14Z</time>
      </trkpt>
      <trkpt lat="43.54047" lon="5.5188">
        <ele>395</ele>
        <time>2012-03-04T11:21:16Z</time>
      </trkpt>
      <trkpt lat="43.54045" lon="5.51874">
        <ele>394</ele>
        <time>2012-03-04T11:21:18Z</time>
      </trkpt>
      <trkpt lat="43.54041" lon="5.5187">
        <ele>394</ele>
        <time>2012-03-04T11:21:23Z</time>
      </trkpt>
      <trkpt lat="43.54041" lon="5.5187">
        <ele>394</ele>
        <time>2012-03-04T11:21:23Z</time>
      </trkpt>
      <trkpt lat="43.54041" lon="5.5187">
        <ele>394</ele>
        <time>2012-03-04T11:21:25Z</time>
      </trkpt>
      <trkpt lat="43.54037" lon="5.51863">
        <ele>394</ele>
        <time>2012-03-04T11:21:58Z</time>
      </trkpt>
      <trkpt lat="43.54037" lon="5.51863">
        <ele>394</ele>
        <time>2012-03-04T11:21:58Z</time>
      </trkpt>
      <trkpt lat="43.54037" lon="5.51863">
        <ele>394</ele>
        <time>2012-03-04T11:22:00Z</time>
      </trkpt>
      <trkpt lat="43.54036" lon="5.51857">
        <ele>393</ele>
        <time>2012-03-04T11:22:03Z</time>
      </trkpt>
      <trkpt lat="43.54032" lon="5.51848">
        <ele>393</ele>
        <time>2012-03-04T11:22:06Z</time>
      </trkpt>
      <trkpt lat="43.54028" lon="5.51844">
        <ele>393</ele>
        <time>2012-03-04T11:22:08Z</time>
      </trkpt>
      <trkpt lat="43.54021" lon="5.51844">
        <ele>394</ele>
        <time>2012-03-04T11:22:13Z</time>
      </trkpt>
      <trkpt lat="43.54017" lon="5.51842">
        <ele>394</ele>
        <time>2012-03-04T11:22:16Z</time>
      </trkpt>
      <trkpt lat="43.54012" lon="5.5184">
        <ele>394</ele>
        <time>2012-03-04T11:22:18Z</time>
      </trkpt>
      <trkpt lat="43.54007" lon="5.51838">
        <ele>394</ele>
        <time>2012-03-04T11:22:20Z</time>
      </trkpt>
      <trkpt lat="43.54001" lon="5.51838">
        <ele>394</ele>
        <time>2012-03-04T11:22:22Z</time>
      </trkpt>
      <trkpt lat="43.53996" lon="5.51838">
        <ele>394</ele>
        <time>2012-03-04T11:22:24Z</time>
      </trkpt>
      <trkpt lat="43.5399" lon="5.51836">
        <ele>394</ele>
        <time>2012-03-04T11:22:26Z</time>
      </trkpt>
      <trkpt lat="43.53985" lon="5.51833">
        <ele>394</ele>
        <time>2012-03-04T11:22:28Z</time>
      </trkpt>
      <trkpt lat="43.5398" lon="5.51831">
        <ele>394</ele>
        <time>2012-03-04T11:22:30Z</time>
      </trkpt>
      <trkpt lat="43.53975" lon="5.51827">
        <ele>394</ele>
        <time>2012-03-04T11:22:32Z</time>
      </trkpt>
      <trkpt lat="43.5397" lon="5.51827">
        <ele>394</ele>
        <time>2012-03-04T11:22:35Z</time>
      </trkpt>
      <trkpt lat="43.53966" lon="5.51823">
        <ele>393</ele>
        <time>2012-03-04T11:22:38Z</time>
      </trkpt>
      <trkpt lat="43.53961" lon="5.51816">
        <ele>393</ele>
        <time>2012-03-04T11:22:41Z</time>
      </trkpt>
      <trkpt lat="43.53959" lon="5.5181">
        <ele>393</ele>
        <time>2012-03-04T11:22:44Z</time>
      </trkpt>
      <trkpt lat="43.53958" lon="5.51803">
        <ele>393</ele>
        <time>2012-03-04T11:22:46Z</time>
      </trkpt>
      <trkpt lat="43.53957" lon="5.51797">
        <ele>393</ele>
        <time>2012-03-04T11:22:48Z</time>
      </trkpt>
      <trkpt lat="43.53955" lon="5.5179">
        <ele>393</ele>
        <time>2012-03-04T11:22:50Z</time>
      </trkpt>
      <trkpt lat="43.53954" lon="5.51782">
        <ele>392</ele>
        <time>2012-03-04T11:22:52Z</time>
      </trkpt>
      <trkpt lat="43.53952" lon="5.51775">
        <ele>392</ele>
        <time>2012-03-04T11:22:54Z</time>
      </trkpt>
      <trkpt lat="43.53948" lon="5.51767">
        <ele>392</ele>
        <time>2012-03-04T11:22:56Z</time>
      </trkpt>
      <trkpt lat="43.53944" lon="5.51758">
        <ele>391</ele>
        <time>2012-03-04T11:22:58Z</time>
      </trkpt>
      <trkpt lat="43.53939" lon="5.51748">
        <ele>391</ele>
        <time>2012-03-04T11:23:00Z</time>
      </trkpt>
      <trkpt lat="43.53934" lon="5.51739">
        <ele>390</ele>
        <time>2012-03-04T11:23:02Z</time>
      </trkpt>
      <trkpt lat="43.5393" lon="5.51732">
        <ele>390</ele>
        <time>2012-03-04T11:23:04Z</time>
      </trkpt>
      <trkpt lat="43.53926" lon="5.51726">
        <ele>390</ele>
        <time>2012-03-04T11:23:06Z</time>
      </trkpt>
      <trkpt lat="43.53922" lon="5.51722">
        <ele>390</ele>
        <time>2012-03-04T11:23:08Z</time>
      </trkpt>
      <trkpt lat="43.53916" lon="5.51718">
        <ele>390</ele>
        <time>2012-03-04T11:23:10Z</time>
      </trkpt>
      <trkpt lat="43.53911" lon="5.51713">
        <ele>390</ele>
        <time>2012-03-04T11:23:12Z</time>
      </trkpt>
      <trkpt lat="43.53904" lon="5.51711">
        <ele>389</ele>
        <time>2012-03-04T11:23:14Z</time>
      </trkpt>
      <trkpt lat="43.53898" lon="5.51711">
        <ele>389</ele>
        <time>2012-03-04T11:23:16Z</time>
      </trkpt>
      <trkpt lat="43.53892" lon="5.51709">
        <ele>389</ele>
        <time>2012-03-04T11:23:18Z</time>
      </trkpt>
      <trkpt lat="43.53887" lon="5.51705">
        <ele>389</ele>
        <time>2012-03-04T11:23:20Z</time>
      </trkpt>
      <trkpt lat="43.53881" lon="5.51702">
        <ele>389</ele>
        <time>2012-03-04T11:23:22Z</time>
      </trkpt>
      <trkpt lat="43.53873" lon="5.51698">
        <ele>388</ele>
        <time>2012-03-04T11:23:24Z</time>
      </trkpt>
      <trkpt lat="43.53867" lon="5.51694">
        <ele>388</ele>
        <time>2012-03-04T11:23:26Z</time>
      </trkpt>
      <trkpt lat="43.53862" lon="5.5169">
        <ele>388</ele>
        <time>2012-03-04T11:23:27Z</time>
      </trkpt>
      <trkpt lat="43.53856" lon="5.51685">
        <ele>388</ele>
        <time>2012-03-04T11:23:29Z</time>
      </trkpt>
      <trkpt lat="43.53848" lon="5.51679">
        <ele>387</ele>
        <time>2012-03-04T11:23:31Z</time>
      </trkpt>
      <trkpt lat="43.5384" lon="5.51677">
        <ele>388</ele>
        <time>2012-03-04T11:23:33Z</time>
      </trkpt>
      <trkpt lat="43.53832" lon="5.51672">
        <ele>388</ele>
        <time>2012-03-04T11:23:35Z</time>
      </trkpt>
      <trkpt lat="43.53826" lon="5.5167">
        <ele>388</ele>
        <time>2012-03-04T11:23:37Z</time>
      </trkpt>
      <trkpt lat="43.5382" lon="5.51668">
        <ele>388</ele>
        <time>2012-03-04T11:23:39Z</time>
      </trkpt>
      <trkpt lat="43.53812" lon="5.51664">
        <ele>388</ele>
        <time>2012-03-04T11:23:41Z</time>
      </trkpt>
      <trkpt lat="43.53807" lon="5.5166">
        <ele>388</ele>
        <time>2012-03-04T11:23:43Z</time>
      </trkpt>
      <trkpt lat="43.53802" lon="5.51655">
        <ele>388</ele>
        <time>2012-03-04T11:23:45Z</time>
      </trkpt>
      <trkpt lat="43.53801" lon="5.51649">
        <ele>388</ele>
        <time>2012-03-04T11:23:47Z</time>
      </trkpt>
      <trkpt lat="43.538" lon="5.5164">
        <ele>388</ele>
        <time>2012-03-04T11:23:49Z</time>
      </trkpt>
      <trkpt lat="43.53799" lon="5.5163">
        <ele>388</ele>
        <time>2012-03-04T11:23:51Z</time>
      </trkpt>
      <trkpt lat="43.53798" lon="5.51621">
        <ele>388</ele>
        <time>2012-03-04T11:23:53Z</time>
      </trkpt>
      <trkpt lat="43.53794" lon="5.51614">
        <ele>388</ele>
        <time>2012-03-04T11:23:55Z</time>
      </trkpt>
      <trkpt lat="43.53792" lon="5.51604">
        <ele>389</ele>
        <time>2012-03-04T11:23:57Z</time>
      </trkpt>
      <trkpt lat="43.5379" lon="5.51595">
        <ele>389</ele>
        <time>2012-03-04T11:23:59Z</time>
      </trkpt>
      <trkpt lat="43.53786" lon="5.51587">
        <ele>389</ele>
        <time>2012-03-04T11:24:01Z</time>
      </trkpt>
      <trkpt lat="43.53782" lon="5.5158">
        <ele>389</ele>
        <time>2012-03-04T11:24:03Z</time>
      </trkpt>
      <trkpt lat="43.53776" lon="5.51576">
        <ele>389</ele>
        <time>2012-03-04T11:24:05Z</time>
      </trkpt>
      <trkpt lat="43.5377" lon="5.51569">
        <ele>389</ele>
        <time>2012-03-04T11:24:07Z</time>
      </trkpt>
      <trkpt lat="43.53764" lon="5.51563">
        <ele>390</ele>
        <time>2012-03-04T11:24:09Z</time>
      </trkpt>
      <trkpt lat="43.5376" lon="5.51554">
        <ele>390</ele>
        <time>2012-03-04T11:24:11Z</time>
      </trkpt>
      <trkpt lat="43.53754" lon="5.51544">
        <ele>390</ele>
        <time>2012-03-04T11:24:13Z</time>
      </trkpt>
      <trkpt lat="43.5375" lon="5.51535">
        <ele>390</ele>
        <time>2012-03-04T11:24:15Z</time>
      </trkpt>
      <trkpt lat="43.53747" lon="5.51529">
        <ele>390</ele>
        <time>2012-03-04T11:24:16Z</time>
      </trkpt>
      <trkpt lat="43.53742" lon="5.5152">
        <ele>391</ele>
        <time>2012-03-04T11:24:18Z</time>
      </trkpt>
      <trkpt lat="43.53737" lon="5.51512">
        <ele>391</ele>
        <time>2012-03-04T11:24:20Z</time>
      </trkpt>
      <trkpt lat="43.53734" lon="5.51503">
        <ele>391</ele>
        <time>2012-03-04T11:24:22Z</time>
      </trkpt>
      <trkpt lat="43.53729" lon="5.51494">
        <ele>391</ele>
        <time>2012-03-04T11:24:24Z</time>
      </trkpt>
      <trkpt lat="43.53725" lon="5.51484">
        <ele>391</ele>
        <time>2012-03-04T11:24:26Z</time>
      </trkpt>
      <trkpt lat="43.53721" lon="5.51475">
        <ele>391</ele>
        <time>2012-03-04T11:24:28Z</time>
      </trkpt>
      <trkpt lat="43.53718" lon="5.51466">
        <ele>391</ele>
        <time>2012-03-04T11:24:30Z</time>
      </trkpt>
      <trkpt lat="43.53719" lon="5.51458">
        <ele>391</ele>
        <time>2012-03-04T11:24:32Z</time>
      </trkpt>
      <trkpt lat="43.5372" lon="5.51449">
        <ele>390</ele>
        <time>2012-03-04T11:24:34Z</time>
      </trkpt>
      <trkpt lat="43.53723" lon="5.51441">
        <ele>390</ele>
        <time>2012-03-04T11:24:37Z</time>
      </trkpt>
      <trkpt lat="43.53727" lon="5.51434">
        <ele>390</ele>
        <time>2012-03-04T11:24:40Z</time>
      </trkpt>
      <trkpt lat="43.53732" lon="5.51432">
        <ele>390</ele>
        <time>2012-03-04T11:24:42Z</time>
      </trkpt>
      <trkpt lat="43.53736" lon="5.5143">
        <ele>390</ele>
        <time>2012-03-04T11:24:44Z</time>
      </trkpt>
      <trkpt lat="43.53741" lon="5.51428">
        <ele>389</ele>
        <time>2012-03-04T11:24:46Z</time>
      </trkpt>
      <trkpt lat="43.53744" lon="5.51421">
        <ele>389</ele>
        <time>2012-03-04T11:24:48Z</time>
      </trkpt>
      <trkpt lat="43.53746" lon="5.51415">
        <ele>389</ele>
        <time>2012-03-04T11:24:50Z</time>
      </trkpt>
      <trkpt lat="43.53743" lon="5.51408">
        <ele>389</ele>
        <time>2012-03-04T11:24:52Z</time>
      </trkpt>
      <trkpt lat="43.53741" lon="5.514">
        <ele>388</ele>
        <time>2012-03-04T11:24:55Z</time>
      </trkpt>
      <trkpt lat="43.53736" lon="5.51396">
        <ele>388</ele>
        <time>2012-03-04T11:24:57Z</time>
      </trkpt>
      <trkpt lat="43.53729" lon="5.51389">
        <ele>388</ele>
        <time>2012-03-04T11:24:59Z</time>
      </trkpt>
      <trkpt lat="43.53723" lon="5.51385">
        <ele>388</ele>
        <time>2012-03-04T11:25:01Z</time>
      </trkpt>
      <trkpt lat="43.53719" lon="5.51383">
        <ele>388</ele>
        <time>2012-03-04T11:25:02Z</time>
      </trkpt>
      <trkpt lat="43.53712" lon="5.51376">
        <ele>388</ele>
        <time>2012-03-04T11:25:04Z</time>
      </trkpt>
      <trkpt lat="43.53705" lon="5.51372">
        <ele>388</ele>
        <time>2012-03-04T11:25:06Z</time>
      </trkpt>
      <trkpt lat="43.53697" lon="5.51366">
        <ele>388</ele>
        <time>2012-03-04T11:25:08Z</time>
      </trkpt>
      <trkpt lat="43.53691" lon="5.51359">
        <ele>388</ele>
        <time>2012-03-04T11:25:10Z</time>
      </trkpt>
      <trkpt lat="43.53685" lon="5.51348">
        <ele>388</ele>
        <time>2012-03-04T11:25:12Z</time>
      </trkpt>
      <trkpt lat="43.5368" lon="5.5134">
        <ele>387</ele>
        <time>2012-03-04T11:25:14Z</time>
      </trkpt>
      <trkpt lat="43.53679" lon="5.51333">
        <ele>387</ele>
        <time>2012-03-04T11:25:15Z</time>
      </trkpt>
      <trkpt lat="43.53676" lon="5.51323">
        <ele>387</ele>
        <time>2012-03-04T11:25:17Z</time>
      </trkpt>
      <trkpt lat="43.53674" lon="5.51316">
        <ele>387</ele>
        <time>2012-03-04T11:25:18Z</time>
      </trkpt>
      <trkpt lat="43.53674" lon="5.51306">
        <ele>387</ele>
        <time>2012-03-04T11:25:20Z</time>
      </trkpt>
      <trkpt lat="43.53675" lon="5.51299">
        <ele>387</ele>
        <time>2012-03-04T11:25:21Z</time>
      </trkpt>
      <trkpt lat="43.53676" lon="5.51288">
        <ele>388</ele>
        <time>2012-03-04T11:25:23Z</time>
      </trkpt>
      <trkpt lat="43.53677" lon="5.51278">
        <ele>388</ele>
        <time>2012-03-04T11:25:25Z</time>
      </trkpt>
      <trkpt lat="43.53677" lon="5.51271">
        <ele>388</ele>
        <time>2012-03-04T11:25:26Z</time>
      </trkpt>
      <trkpt lat="43.53679" lon="5.5126">
        <ele>387</ele>
        <time>2012-03-04T11:25:28Z</time>
      </trkpt>
      <trkpt lat="43.53681" lon="5.51252">
        <ele>387</ele>
        <time>2012-03-04T11:25:30Z</time>
      </trkpt>
      <trkpt lat="43.53684" lon="5.51243">
        <ele>387</ele>
        <time>2012-03-04T11:25:32Z</time>
      </trkpt>
      <trkpt lat="43.53686" lon="5.51232">
        <ele>387</ele>
        <time>2012-03-04T11:25:34Z</time>
      </trkpt>
      <trkpt lat="43.5369" lon="5.51226">
        <ele>387</ele>
        <time>2012-03-04T11:25:36Z</time>
      </trkpt>
      <trkpt lat="43.53694" lon="5.51218">
        <ele>387</ele>
        <time>2012-03-04T11:25:38Z</time>
      </trkpt>
      <trkpt lat="43.53698" lon="5.51211">
        <ele>387</ele>
        <time>2012-03-04T11:25:40Z</time>
      </trkpt>
      <trkpt lat="43.53703" lon="5.51207">
        <ele>387</ele>
        <time>2012-03-04T11:25:42Z</time>
      </trkpt>
      <trkpt lat="43.53709" lon="5.51202">
        <ele>387</ele>
        <time>2012-03-04T11:25:44Z</time>
      </trkpt>
      <trkpt lat="43.53714" lon="5.512">
        <ele>387</ele>
        <time>2012-03-04T11:25:46Z</time>
      </trkpt>
      <trkpt lat="43.53721" lon="5.51196">
        <ele>387</ele>
        <time>2012-03-04T11:25:48Z</time>
      </trkpt>
      <trkpt lat="43.53726" lon="5.51196">
        <ele>387</ele>
        <time>2012-03-04T11:25:50Z</time>
      </trkpt>
      <trkpt lat="43.53733" lon="5.51194">
        <ele>387</ele>
        <time>2012-03-04T11:25:52Z</time>
      </trkpt>
      <trkpt lat="43.53739" lon="5.5119">
        <ele>387</ele>
        <time>2012-03-04T11:25:54Z</time>
      </trkpt>
      <trkpt lat="43.53744" lon="5.51185">
        <ele>386</ele>
        <time>2012-03-04T11:25:56Z</time>
      </trkpt>
      <trkpt lat="43.5375" lon="5.51177">
        <ele>386</ele>
        <time>2012-03-04T11:25:58Z</time>
      </trkpt>
      <trkpt lat="43.53751" lon="5.5117">
        <ele>386</ele>
        <time>2012-03-04T11:25:59Z</time>
      </trkpt>
      <trkpt lat="43.5375" lon="5.51162">
        <ele>385</ele>
        <time>2012-03-04T11:26:01Z</time>
      </trkpt>
      <trkpt lat="43.53743" lon="5.51153">
        <ele>385</ele>
        <time>2012-03-04T11:26:03Z</time>
      </trkpt>
      <trkpt lat="43.53736" lon="5.51144">
        <ele>385</ele>
        <time>2012-03-04T11:26:05Z</time>
      </trkpt>
      <trkpt lat="43.53728" lon="5.51136">
        <ele>385</ele>
        <time>2012-03-04T11:26:07Z</time>
      </trkpt>
      <trkpt lat="43.53725" lon="5.5113">
        <ele>385</ele>
        <time>2012-03-04T11:26:08Z</time>
      </trkpt>
      <trkpt lat="43.53719" lon="5.51119">
        <ele>385</ele>
        <time>2012-03-04T11:26:10Z</time>
      </trkpt>
      <trkpt lat="43.53714" lon="5.51112">
        <ele>385</ele>
        <time>2012-03-04T11:26:12Z</time>
      </trkpt>
      <trkpt lat="43.53712" lon="5.51106">
        <ele>385</ele>
        <time>2012-03-04T11:26:14Z</time>
      </trkpt>
      <trkpt lat="43.5371" lon="5.511">
        <ele>384</ele>
        <time>2012-03-04T11:26:16Z</time>
      </trkpt>
      <trkpt lat="43.53709" lon="5.51093">
        <ele>382</ele>
        <time>2012-03-04T11:28:36Z</time>
      </trkpt>
      <trkpt lat="43.53709" lon="5.51093">
        <ele>382</ele>
        <time>2012-03-04T11:28:36Z</time>
      </trkpt>
      <trkpt lat="43.53709" lon="5.51093">
        <ele>382</ele>
        <time>2012-03-04T11:28:39Z</time>
      </trkpt>
      <trkpt lat="43.53706" lon="5.51087">
        <ele>382</ele>
        <time>2012-03-04T11:28:56Z</time>
      </trkpt>
      <trkpt lat="43.53706" lon="5.51087">
        <ele>382</ele>
        <time>2012-03-04T11:28:56Z</time>
      </trkpt>
      <trkpt lat="43.53706" lon="5.51087">
        <ele>382</ele>
        <time>2012-03-04T11:28:59Z</time>
      </trkpt>
      <trkpt lat="43.537" lon="5.51084">
        <ele>382</ele>
        <time>2012-03-04T11:29:05Z</time>
      </trkpt>
      <trkpt lat="43.53696" lon="5.5108">
        <ele>383</ele>
        <time>2012-03-04T11:29:08Z</time>
      </trkpt>
      <trkpt lat="43.53694" lon="5.51087">
        <ele>382</ele>
        <time>2012-03-04T11:29:29Z</time>
      </trkpt>
      <trkpt lat="43.53699" lon="5.51087">
        <ele>382</ele>
        <time>2012-03-04T11:29:32Z</time>
      </trkpt>
      <trkpt lat="43.53704" lon="5.51084">
        <ele>382</ele>
        <time>2012-03-04T11:29:34Z</time>
      </trkpt>
      <trkpt lat="43.53708" lon="5.51082">
        <ele>382</ele>
        <time>2012-03-04T11:29:36Z</time>
      </trkpt>
      <trkpt lat="43.53713" lon="5.5108">
        <ele>382</ele>
        <time>2012-03-04T11:29:39Z</time>
      </trkpt>
      <trkpt lat="43.53718" lon="5.51076">
        <ele>382</ele>
        <time>2012-03-04T11:29:42Z</time>
      </trkpt>
      <trkpt lat="43.53719" lon="5.51069">
        <ele>382</ele>
        <time>2012-03-04T11:29:50Z</time>
      </trkpt>
      <trkpt lat="43.53719" lon="5.51069">
        <ele>382</ele>
        <time>2012-03-04T11:29:50Z</time>
      </trkpt>
      <trkpt lat="43.53719" lon="5.51069">
        <ele>382</ele>
        <time>2012-03-04T11:29:51Z</time>
      </trkpt>
      <trkpt lat="43.53718" lon="5.51063">
        <ele>382</ele>
        <time>2012-03-04T11:29:58Z</time>
      </trkpt>
      <trkpt lat="43.53718" lon="5.51063">
        <ele>382</ele>
        <time>2012-03-04T11:29:58Z</time>
      </trkpt>
      <trkpt lat="43.53718" lon="5.51063">
        <ele>382</ele>
        <time>2012-03-04T11:29:59Z</time>
      </trkpt>
      <trkpt lat="43.53713" lon="5.51059">
        <ele>382</ele>
        <time>2012-03-04T11:30:06Z</time>
      </trkpt>
      <trkpt lat="43.53713" lon="5.51059">
        <ele>382</ele>
        <time>2012-03-04T11:30:06Z</time>
      </trkpt>
      <trkpt lat="43.53713" lon="5.51059">
        <ele>382</ele>
        <time>2012-03-04T11:30:07Z</time>
      </trkpt>
      <trkpt lat="43.53711" lon="5.51052">
        <ele>383</ele>
        <time>2012-03-04T11:30:15Z</time>
      </trkpt>
      <trkpt lat="43.53711" lon="5.51052">
        <ele>383</ele>
        <time>2012-03-04T11:30:15Z</time>
      </trkpt>
      <trkpt lat="43.53711" lon="5.51052">
        <ele>383</ele>
        <time>2012-03-04T11:30:16Z</time>
      </trkpt>
      <trkpt lat="43.53707" lon="5.51048">
        <ele>384</ele>
        <time>2012-03-04T11:30:28Z</time>
      </trkpt>
      <trkpt lat="43.53707" lon="5.51048">
        <ele>384</ele>
        <time>2012-03-04T11:30:28Z</time>
      </trkpt>
      <trkpt lat="43.53707" lon="5.51048">
        <ele>384</ele>
        <time>2012-03-04T11:30:29Z</time>
      </trkpt>
      <trkpt lat="43.53705" lon="5.51042">
        <ele>384</ele>
        <time>2012-03-04T11:30:36Z</time>
      </trkpt>
      <trkpt lat="43.53705" lon="5.51042">
        <ele>384</ele>
        <time>2012-03-04T11:30:36Z</time>
      </trkpt>
      <trkpt lat="43.53705" lon="5.51042">
        <ele>385</ele>
        <time>2012-03-04T11:30:38Z</time>
      </trkpt>
      <trkpt lat="43.53709" lon="5.51037">
        <ele>385</ele>
        <time>2012-03-04T11:30:55Z</time>
      </trkpt>
      <trkpt lat="43.53709" lon="5.51037">
        <ele>385</ele>
        <time>2012-03-04T11:30:55Z</time>
      </trkpt>
      <trkpt lat="43.53709" lon="5.51037">
        <ele>385</ele>
        <time>2012-03-04T11:30:57Z</time>
      </trkpt>
      <trkpt lat="43.53713" lon="5.51033">
        <ele>385</ele>
        <time>2012-03-04T11:31:12Z</time>
      </trkpt>
      <trkpt lat="43.53713" lon="5.51033">
        <ele>385</ele>
        <time>2012-03-04T11:31:12Z</time>
      </trkpt>
      <trkpt lat="43.53713" lon="5.51033">
        <ele>385</ele>
        <time>2012-03-04T11:31:13Z</time>
      </trkpt>
      <trkpt lat="43.53717" lon="5.51037">
        <ele>386</ele>
        <time>2012-03-04T11:31:26Z</time>
      </trkpt>
      <trkpt lat="43.53718" lon="5.51044">
        <ele>386</ele>
        <time>2012-03-04T11:31:34Z</time>
      </trkpt>
      <trkpt lat="43.53718" lon="5.51044">
        <ele>386</ele>
        <time>2012-03-04T11:31:34Z</time>
      </trkpt>
      <trkpt lat="43.53718" lon="5.51044">
        <ele>386</ele>
        <time>2012-03-04T11:31:35Z</time>
      </trkpt>
      <trkpt lat="43.53719" lon="5.51037">
        <ele>384</ele>
        <time>2012-03-04T11:31:51Z</time>
      </trkpt>
      <trkpt lat="43.53718" lon="5.51031">
        <ele>384</ele>
        <time>2012-03-04T11:31:54Z</time>
      </trkpt>
      <trkpt lat="43.53716" lon="5.51024">
        <ele>384</ele>
        <time>2012-03-04T11:31:59Z</time>
      </trkpt>
      <trkpt lat="43.53716" lon="5.51024">
        <ele>384</ele>
        <time>2012-03-04T11:31:59Z</time>
      </trkpt>
      <trkpt lat="43.53716" lon="5.51024">
        <ele>384</ele>
        <time>2012-03-04T11:32:02Z</time>
      </trkpt>
      <trkpt lat="43.53714" lon="5.51018">
        <ele>385</ele>
        <time>2012-03-04T11:32:07Z</time>
      </trkpt>
      <trkpt lat="43.53711" lon="5.51012">
        <ele>385</ele>
        <time>2012-03-04T11:32:10Z</time>
      </trkpt>
      <trkpt lat="43.53709" lon="5.51005">
        <ele>385</ele>
        <time>2012-03-04T11:32:13Z</time>
      </trkpt>
      <trkpt lat="43.53706" lon="5.50999">
        <ele>386</ele>
        <time>2012-03-04T11:32:18Z</time>
      </trkpt>
      <trkpt lat="43.53705" lon="5.50992">
        <ele>386</ele>
        <time>2012-03-04T11:32:22Z</time>
      </trkpt>
      <trkpt lat="43.53705" lon="5.50992">
        <ele>386</ele>
        <time>2012-03-04T11:32:22Z</time>
      </trkpt>
      <trkpt lat="43.53705" lon="5.50992">
        <ele>386</ele>
        <time>2012-03-04T11:32:23Z</time>
      </trkpt>
      <trkpt lat="43.53705" lon="5.50986">
        <ele>387</ele>
        <time>2012-03-04T11:32:26Z</time>
      </trkpt>
      <trkpt lat="43.53703" lon="5.50979">
        <ele>387</ele>
        <time>2012-03-04T11:32:29Z</time>
      </trkpt>
      <trkpt lat="43.53699" lon="5.50973">
        <ele>388</ele>
        <time>2012-03-04T11:32:31Z</time>
      </trkpt>
      <trkpt lat="43.53696" lon="5.50966">
        <ele>388</ele>
        <time>2012-03-04T11:32:34Z</time>
      </trkpt>
      <trkpt lat="43.53693" lon="5.5096">
        <ele>389</ele>
        <time>2012-03-04T11:32:38Z</time>
      </trkpt>
      <trkpt lat="43.53693" lon="5.50954">
        <ele>389</ele>
        <time>2012-03-04T11:32:41Z</time>
      </trkpt>
      <trkpt lat="43.53694" lon="5.50947">
        <ele>389</ele>
        <time>2012-03-04T11:32:43Z</time>
      </trkpt>
      <trkpt lat="43.53695" lon="5.50941">
        <ele>389</ele>
        <time>2012-03-04T11:32:45Z</time>
      </trkpt>
      <trkpt lat="43.53699" lon="5.50934">
        <ele>390</ele>
        <time>2012-03-04T11:32:48Z</time>
      </trkpt>
      <trkpt lat="43.53702" lon="5.50928">
        <ele>390</ele>
        <time>2012-03-04T11:32:50Z</time>
      </trkpt>
      <trkpt lat="43.53704" lon="5.50921">
        <ele>390</ele>
        <time>2012-03-04T11:32:52Z</time>
      </trkpt>
      <trkpt lat="43.53705" lon="5.50915">
        <ele>390</ele>
        <time>2012-03-04T11:32:54Z</time>
      </trkpt>
      <trkpt lat="43.53706" lon="5.50908">
        <ele>390</ele>
        <time>2012-03-04T11:32:56Z</time>
      </trkpt>
      <trkpt lat="43.53708" lon="5.50902">
        <ele>390</ele>
        <time>2012-03-04T11:32:58Z</time>
      </trkpt>
      <trkpt lat="43.53709" lon="5.50894">
        <ele>390</ele>
        <time>2012-03-04T11:33:00Z</time>
      </trkpt>
      <trkpt lat="43.53711" lon="5.50885">
        <ele>390</ele>
        <time>2012-03-04T11:33:02Z</time>
      </trkpt>
      <trkpt lat="43.53712" lon="5.50876">
        <ele>391</ele>
        <time>2012-03-04T11:33:04Z</time>
      </trkpt>
      <trkpt lat="43.53713" lon="5.5087">
        <ele>391</ele>
        <time>2012-03-04T11:33:05Z</time>
      </trkpt>
      <trkpt lat="43.53713" lon="5.50859">
        <ele>391</ele>
        <time>2012-03-04T11:33:07Z</time>
      </trkpt>
      <trkpt lat="43.53712" lon="5.50853">
        <ele>392</ele>
        <time>2012-03-04T11:33:08Z</time>
      </trkpt>
      <trkpt lat="43.53711" lon="5.50846">
        <ele>392</ele>
        <time>2012-03-04T11:33:09Z</time>
      </trkpt>
      <trkpt lat="43.53711" lon="5.5084">
        <ele>392</ele>
        <time>2012-03-04T11:33:10Z</time>
      </trkpt>
      <trkpt lat="43.5371" lon="5.50833">
        <ele>392</ele>
        <time>2012-03-04T11:33:11Z</time>
      </trkpt>
      <trkpt lat="43.53709" lon="5.50827">
        <ele>392</ele>
        <time>2012-03-04T11:33:12Z</time>
      </trkpt>
      <trkpt lat="43.53707" lon="5.50816">
        <ele>392</ele>
        <time>2012-03-04T11:33:14Z</time>
      </trkpt>
      <trkpt lat="43.53705" lon="5.5081">
        <ele>392</ele>
        <time>2012-03-04T11:33:15Z</time>
      </trkpt>
      <trkpt lat="43.53704" lon="5.50801">
        <ele>392</ele>
        <time>2012-03-04T11:33:16Z</time>
      </trkpt>
      <trkpt lat="43.53703" lon="5.50795">
        <ele>392</ele>
        <time>2012-03-04T11:33:17Z</time>
      </trkpt>
      <trkpt lat="43.537" lon="5.50788">
        <ele>392</ele>
        <time>2012-03-04T11:33:18Z</time>
      </trkpt>
      <trkpt lat="43.53698" lon="5.50782">
        <ele>392</ele>
        <time>2012-03-04T11:33:19Z</time>
      </trkpt>
      <trkpt lat="43.53694" lon="5.50773">
        <ele>393</ele>
        <time>2012-03-04T11:33:21Z</time>
      </trkpt>
      <trkpt lat="43.53688" lon="5.50765">
        <ele>393</ele>
        <time>2012-03-04T11:33:23Z</time>
      </trkpt>
      <trkpt lat="43.53681" lon="5.50756">
        <ele>393</ele>
        <time>2012-03-04T11:33:25Z</time>
      </trkpt>
      <trkpt lat="43.53674" lon="5.5075">
        <ele>393</ele>
        <time>2012-03-04T11:33:27Z</time>
      </trkpt>
      <trkpt lat="43.53667" lon="5.50745">
        <ele>393</ele>
        <time>2012-03-04T11:33:29Z</time>
      </trkpt>
      <trkpt lat="43.53661" lon="5.50739">
        <ele>393</ele>
        <time>2012-03-04T11:33:31Z</time>
      </trkpt>
      <trkpt lat="43.53655" lon="5.50733">
        <ele>393</ele>
        <time>2012-03-04T11:33:33Z</time>
      </trkpt>
      <trkpt lat="43.5365" lon="5.50726">
        <ele>393</ele>
        <time>2012-03-04T11:33:35Z</time>
      </trkpt>
      <trkpt lat="43.53646" lon="5.50718">
        <ele>393</ele>
        <time>2012-03-04T11:33:37Z</time>
      </trkpt>
      <trkpt lat="43.53642" lon="5.50711">
        <ele>393</ele>
        <time>2012-03-04T11:33:39Z</time>
      </trkpt>
      <trkpt lat="43.53637" lon="5.50705">
        <ele>393</ele>
        <time>2012-03-04T11:33:41Z</time>
      </trkpt>
      <trkpt lat="43.53633" lon="5.50698">
        <ele>394</ele>
        <time>2012-03-04T11:33:43Z</time>
      </trkpt>
      <trkpt lat="43.53629" lon="5.50692">
        <ele>394</ele>
        <time>2012-03-04T11:33:45Z</time>
      </trkpt>
      <trkpt lat="43.53624" lon="5.50685">
        <ele>394</ele>
        <time>2012-03-04T11:33:47Z</time>
      </trkpt>
      <trkpt lat="43.5362" lon="5.50679">
        <ele>394</ele>
        <time>2012-03-04T11:33:49Z</time>
      </trkpt>
      <trkpt lat="43.53617" lon="5.5067">
        <ele>394</ele>
        <time>2012-03-04T11:33:51Z</time>
      </trkpt>
      <trkpt lat="43.53615" lon="5.50662">
        <ele>394</ele>
        <time>2012-03-04T11:33:53Z</time>
      </trkpt>
      <trkpt lat="43.53612" lon="5.50655">
        <ele>394</ele>
        <time>2012-03-04T11:33:55Z</time>
      </trkpt>
      <trkpt lat="43.5361" lon="5.50647">
        <ele>394</ele>
        <time>2012-03-04T11:33:57Z</time>
      </trkpt>
      <trkpt lat="43.53608" lon="5.5064">
        <ele>394</ele>
        <time>2012-03-04T11:33:59Z</time>
      </trkpt>
      <trkpt lat="43.53605" lon="5.50632">
        <ele>394</ele>
        <time>2012-03-04T11:34:01Z</time>
      </trkpt>
      <trkpt lat="43.53598" lon="5.50627">
        <ele>394</ele>
        <time>2012-03-04T11:34:03Z</time>
      </trkpt>
      <trkpt lat="43.53594" lon="5.50623">
        <ele>395</ele>
        <time>2012-03-04T11:34:04Z</time>
      </trkpt>
      <trkpt lat="43.53588" lon="5.50617">
        <ele>396</ele>
        <time>2012-03-04T11:34:06Z</time>
      </trkpt>
      <trkpt lat="43.5358" lon="5.5061">
        <ele>396</ele>
        <time>2012-03-04T11:34:08Z</time>
      </trkpt>
      <trkpt lat="43.53575" lon="5.50602">
        <ele>395</ele>
        <time>2012-03-04T11:34:10Z</time>
      </trkpt>
      <trkpt lat="43.5357" lon="5.50595">
        <ele>395</ele>
        <time>2012-03-04T11:34:12Z</time>
      </trkpt>
      <trkpt lat="43.53565" lon="5.50587">
        <ele>395</ele>
        <time>2012-03-04T11:34:14Z</time>
      </trkpt>
      <trkpt lat="43.5356" lon="5.5058">
        <ele>395</ele>
        <time>2012-03-04T11:34:16Z</time>
      </trkpt>
      <trkpt lat="43.53552" lon="5.50576">
        <ele>395</ele>
        <time>2012-03-04T11:34:18Z</time>
      </trkpt>
      <trkpt lat="43.53546" lon="5.50574">
        <ele>395</ele>
        <time>2012-03-04T11:34:20Z</time>
      </trkpt>
      <trkpt lat="43.5354" lon="5.5057">
        <ele>395</ele>
        <time>2012-03-04T11:34:22Z</time>
      </trkpt>
      <trkpt lat="43.53532" lon="5.50567">
        <ele>395</ele>
        <time>2012-03-04T11:34:24Z</time>
      </trkpt>
      <trkpt lat="43.53524" lon="5.50563">
        <ele>395</ele>
        <time>2012-03-04T11:34:26Z</time>
      </trkpt>
      <trkpt lat="43.53517" lon="5.50559">
        <ele>395</ele>
        <time>2012-03-04T11:34:28Z</time>
      </trkpt>
      <trkpt lat="43.53513" lon="5.50554">
        <ele>395</ele>
        <time>2012-03-04T11:34:30Z</time>
      </trkpt>
      <trkpt lat="43.53508" lon="5.50548">
        <ele>395</ele>
        <time>2012-03-04T11:34:32Z</time>
      </trkpt>
      <trkpt lat="43.53504" lon="5.50539">
        <ele>395</ele>
        <time>2012-03-04T11:34:35Z</time>
      </trkpt>
      <trkpt lat="43.53503" lon="5.50533">
        <ele>395</ele>
        <time>2012-03-04T11:34:37Z</time>
      </trkpt>
      <trkpt lat="43.53501" lon="5.50527">
        <ele>395</ele>
        <time>2012-03-04T11:34:39Z</time>
      </trkpt>
      <trkpt lat="43.53499" lon="5.50518">
        <ele>395</ele>
        <time>2012-03-04T11:34:41Z</time>
      </trkpt>
      <trkpt lat="43.53497" lon="5.50512">
        <ele>395</ele>
        <time>2012-03-04T11:34:43Z</time>
      </trkpt>
      <trkpt lat="43.53494" lon="5.50503">
        <ele>395</ele>
        <time>2012-03-04T11:34:45Z</time>
      </trkpt>
      <trkpt lat="43.53491" lon="5.50496">
        <ele>395</ele>
        <time>2012-03-04T11:34:47Z</time>
      </trkpt>
      <trkpt lat="43.53489" lon="5.5049">
        <ele>394</ele>
        <time>2012-03-04T11:34:49Z</time>
      </trkpt>
      <trkpt lat="43.53486" lon="5.50482">
        <ele>394</ele>
        <time>2012-03-04T11:34:52Z</time>
      </trkpt>
      <trkpt lat="43.53484" lon="5.50475">
        <ele>394</ele>
        <time>2012-03-04T11:34:54Z</time>
      </trkpt>
      <trkpt lat="43.5348" lon="5.50466">
        <ele>394</ele>
        <time>2012-03-04T11:34:57Z</time>
      </trkpt>
      <trkpt lat="43.53477" lon="5.5046">
        <ele>394</ele>
        <time>2012-03-04T11:34:59Z</time>
      </trkpt>
      <trkpt lat="43.53475" lon="5.50454">
        <ele>394</ele>
        <time>2012-03-04T11:35:01Z</time>
      </trkpt>
      <trkpt lat="43.53471" lon="5.50449">
        <ele>393</ele>
        <time>2012-03-04T11:35:03Z</time>
      </trkpt>
      <trkpt lat="43.53466" lon="5.50443">
        <ele>393</ele>
        <time>2012-03-04T11:35:06Z</time>
      </trkpt>
      <trkpt lat="43.53461" lon="5.50441">
        <ele>393</ele>
        <time>2012-03-04T11:35:08Z</time>
      </trkpt>
      <trkpt lat="43.53457" lon="5.50434">
        <ele>393</ele>
        <time>2012-03-04T11:35:11Z</time>
      </trkpt>
      <trkpt lat="43.53453" lon="5.50428">
        <ele>393</ele>
        <time>2012-03-04T11:35:14Z</time>
      </trkpt>
      <trkpt lat="43.53449" lon="5.50419">
        <ele>393</ele>
        <time>2012-03-04T11:35:17Z</time>
      </trkpt>
      <trkpt lat="43.53448" lon="5.50413">
        <ele>393</ele>
        <time>2012-03-04T11:35:19Z</time>
      </trkpt>
      <trkpt lat="43.53447" lon="5.50406">
        <ele>393</ele>
        <time>2012-03-04T11:35:21Z</time>
      </trkpt>
      <trkpt lat="43.53446" lon="5.50398">
        <ele>393</ele>
        <time>2012-03-04T11:35:23Z</time>
      </trkpt>
      <trkpt lat="43.53446" lon="5.50389">
        <ele>393</ele>
        <time>2012-03-04T11:35:25Z</time>
      </trkpt>
      <trkpt lat="43.53446" lon="5.50383">
        <ele>394</ele>
        <time>2012-03-04T11:35:27Z</time>
      </trkpt>
      <trkpt lat="43.53446" lon="5.50374">
        <ele>394</ele>
        <time>2012-03-04T11:35:29Z</time>
      </trkpt>
      <trkpt lat="43.53446" lon="5.50366">
        <ele>394</ele>
        <time>2012-03-04T11:35:31Z</time>
      </trkpt>
      <trkpt lat="43.53445" lon="5.50359">
        <ele>394</ele>
        <time>2012-03-04T11:35:33Z</time>
      </trkpt>
      <trkpt lat="43.53443" lon="5.50351">
        <ele>394</ele>
        <time>2012-03-04T11:35:35Z</time>
      </trkpt>
      <trkpt lat="43.53438" lon="5.50344">
        <ele>394</ele>
        <time>2012-03-04T11:35:37Z</time>
      </trkpt>
      <trkpt lat="43.53431" lon="5.5034">
        <ele>394</ele>
        <time>2012-03-04T11:35:39Z</time>
      </trkpt>
      <trkpt lat="43.53424" lon="5.50336">
        <ele>395</ele>
        <time>2012-03-04T11:35:41Z</time>
      </trkpt>
      <trkpt lat="43.53418" lon="5.50333">
        <ele>395</ele>
        <time>2012-03-04T11:35:43Z</time>
      </trkpt>
      <trkpt lat="43.53411" lon="5.50331">
        <ele>395</ele>
        <time>2012-03-04T11:35:45Z</time>
      </trkpt>
      <trkpt lat="43.53403" lon="5.50331">
        <ele>395</ele>
        <time>2012-03-04T11:35:47Z</time>
      </trkpt>
      <trkpt lat="43.53395" lon="5.50331">
        <ele>395</ele>
        <time>2012-03-04T11:35:49Z</time>
      </trkpt>
      <trkpt lat="43.5339" lon="5.50333">
        <ele>395</ele>
        <time>2012-03-04T11:35:50Z</time>
      </trkpt>
      <trkpt lat="43.53383" lon="5.50336">
        <ele>396</ele>
        <time>2012-03-04T11:35:52Z</time>
      </trkpt>
      <trkpt lat="43.53376" lon="5.5034">
        <ele>396</ele>
        <time>2012-03-04T11:35:54Z</time>
      </trkpt>
      <trkpt lat="43.53371" lon="5.50344">
        <ele>396</ele>
        <time>2012-03-04T11:35:56Z</time>
      </trkpt>
      <trkpt lat="43.53365" lon="5.50351">
        <ele>396</ele>
        <time>2012-03-04T11:35:58Z</time>
      </trkpt>
      <trkpt lat="43.53359" lon="5.50355">
        <ele>396</ele>
        <time>2012-03-04T11:36:00Z</time>
      </trkpt>
      <trkpt lat="43.53353" lon="5.50357">
        <ele>396</ele>
        <time>2012-03-04T11:36:02Z</time>
      </trkpt>
      <trkpt lat="43.53348" lon="5.50361">
        <ele>396</ele>
        <time>2012-03-04T11:36:04Z</time>
      </trkpt>
      <trkpt lat="43.53341" lon="5.50366">
        <ele>396</ele>
        <time>2012-03-04T11:36:06Z</time>
      </trkpt>
      <trkpt lat="43.53335" lon="5.5037">
        <ele>396</ele>
        <time>2012-03-04T11:36:08Z</time>
      </trkpt>
      <trkpt lat="43.53329" lon="5.50374">
        <ele>395</ele>
        <time>2012-03-04T11:36:10Z</time>
      </trkpt>
      <trkpt lat="43.53325" lon="5.50378">
        <ele>395</ele>
        <time>2012-03-04T11:36:12Z</time>
      </trkpt>
      <trkpt lat="43.5332" lon="5.50381">
        <ele>395</ele>
        <time>2012-03-04T11:36:14Z</time>
      </trkpt>
      <trkpt lat="43.53315" lon="5.50385">
        <ele>395</ele>
        <time>2012-03-04T11:36:16Z</time>
      </trkpt>
      <trkpt lat="43.53311" lon="5.50387">
        <ele>395</ele>
        <time>2012-03-04T11:36:18Z</time>
      </trkpt>
      <trkpt lat="43.53307" lon="5.50391">
        <ele>395</ele>
        <time>2012-03-04T11:36:20Z</time>
      </trkpt>
      <trkpt lat="43.533" lon="5.50394">
        <ele>394</ele>
        <time>2012-03-04T11:36:22Z</time>
      </trkpt>
      <trkpt lat="43.53294" lon="5.50396">
        <ele>394</ele>
        <time>2012-03-04T11:36:24Z</time>
      </trkpt>
      <trkpt lat="43.5329" lon="5.504">
        <ele>394</ele>
        <time>2012-03-04T11:36:26Z</time>
      </trkpt>
      <trkpt lat="43.53284" lon="5.50402">
        <ele>394</ele>
        <time>2012-03-04T11:36:28Z</time>
      </trkpt>
      <trkpt lat="43.5328" lon="5.50404">
        <ele>394</ele>
        <time>2012-03-04T11:36:30Z</time>
      </trkpt>
      <trkpt lat="43.53274" lon="5.50404">
        <ele>394</ele>
        <time>2012-03-04T11:36:33Z</time>
      </trkpt>
      <trkpt lat="43.53269" lon="5.50402">
        <ele>394</ele>
        <time>2012-03-04T11:36:35Z</time>
      </trkpt>
      <trkpt lat="43.53262" lon="5.504">
        <ele>394</ele>
        <time>2012-03-04T11:36:38Z</time>
      </trkpt>
      <trkpt lat="43.53256" lon="5.50398">
        <ele>393</ele>
        <time>2012-03-04T11:36:41Z</time>
      </trkpt>
      <trkpt lat="43.53251" lon="5.50396">
        <ele>393</ele>
        <time>2012-03-04T11:36:44Z</time>
      </trkpt>
      <trkpt lat="43.53247" lon="5.50389">
        <ele>393</ele>
        <time>2012-03-04T11:36:47Z</time>
      </trkpt>
      <trkpt lat="43.53246" lon="5.50383">
        <ele>393</ele>
        <time>2012-03-04T11:36:49Z</time>
      </trkpt>
      <trkpt lat="43.53244" lon="5.50376">
        <ele>393</ele>
        <time>2012-03-04T11:36:51Z</time>
      </trkpt>
      <trkpt lat="43.53244" lon="5.5037">
        <ele>393</ele>
        <time>2012-03-04T11:36:53Z</time>
      </trkpt>
      <trkpt lat="43.53244" lon="5.50361">
        <ele>393</ele>
        <time>2012-03-04T11:36:55Z</time>
      </trkpt>
      <trkpt lat="43.53246" lon="5.50355">
        <ele>393</ele>
        <time>2012-03-04T11:36:58Z</time>
      </trkpt>
      <trkpt lat="43.53246" lon="5.50348">
        <ele>393</ele>
        <time>2012-03-04T11:37:01Z</time>
      </trkpt>
      <trkpt lat="43.53244" lon="5.50342">
        <ele>393</ele>
        <time>2012-03-04T11:37:04Z</time>
      </trkpt>
      <trkpt lat="43.53242" lon="5.50336">
        <ele>393</ele>
        <time>2012-03-04T11:37:07Z</time>
      </trkpt>
      <trkpt lat="43.5324" lon="5.50329">
        <ele>393</ele>
        <time>2012-03-04T11:37:09Z</time>
      </trkpt>
      <trkpt lat="43.53238" lon="5.50321">
        <ele>393</ele>
        <time>2012-03-04T11:37:12Z</time>
      </trkpt>
      <trkpt lat="43.53235" lon="5.50314">
        <ele>393</ele>
        <time>2012-03-04T11:37:14Z</time>
      </trkpt>
      <trkpt lat="43.53234" lon="5.50308">
        <ele>393</ele>
        <time>2012-03-04T11:37:16Z</time>
      </trkpt>
      <trkpt lat="43.53233" lon="5.50301">
        <ele>393</ele>
        <time>2012-03-04T11:37:17Z</time>
      </trkpt>
      <trkpt lat="43.5323" lon="5.50293">
        <ele>393</ele>
        <time>2012-03-04T11:37:19Z</time>
      </trkpt>
      <trkpt lat="43.53228" lon="5.50286">
        <ele>393</ele>
        <time>2012-03-04T11:37:21Z</time>
      </trkpt>
      <trkpt lat="43.53226" lon="5.50278">
        <ele>394</ele>
        <time>2012-03-04T11:37:23Z</time>
      </trkpt>
      <trkpt lat="43.53224" lon="5.50271">
        <ele>394</ele>
        <time>2012-03-04T11:37:26Z</time>
      </trkpt>
      <trkpt lat="43.53222" lon="5.50265">
        <ele>394</ele>
        <time>2012-03-04T11:37:28Z</time>
      </trkpt>
      <trkpt lat="43.53221" lon="5.50258">
        <ele>394</ele>
        <time>2012-03-04T11:37:30Z</time>
      </trkpt>
      <trkpt lat="43.5322" lon="5.5025">
        <ele>394</ele>
        <time>2012-03-04T11:37:33Z</time>
      </trkpt>
      <trkpt lat="43.53218" lon="5.50243">
        <ele>394</ele>
        <time>2012-03-04T11:37:35Z</time>
      </trkpt>
      <trkpt lat="43.53217" lon="5.50237">
        <ele>394</ele>
        <time>2012-03-04T11:37:37Z</time>
      </trkpt>
      <trkpt lat="43.53213" lon="5.5023">
        <ele>393</ele>
        <time>2012-03-04T11:37:39Z</time>
      </trkpt>
      <trkpt lat="43.53211" lon="5.50224">
        <ele>393</ele>
        <time>2012-03-04T11:37:42Z</time>
      </trkpt>
      <trkpt lat="43.53209" lon="5.50218">
        <ele>393</ele>
        <time>2012-03-04T11:37:44Z</time>
      </trkpt>
      <trkpt lat="43.53206" lon="5.50209">
        <ele>393</ele>
        <time>2012-03-04T11:37:47Z</time>
      </trkpt>
      <trkpt lat="43.53202" lon="5.50203">
        <ele>393</ele>
        <time>2012-03-04T11:37:50Z</time>
      </trkpt>
      <trkpt lat="43.53199" lon="5.50196">
        <ele>393</ele>
        <time>2012-03-04T11:37:52Z</time>
      </trkpt>
      <trkpt lat="43.53197" lon="5.5019">
        <ele>393</ele>
        <time>2012-03-04T11:37:55Z</time>
      </trkpt>
      <trkpt lat="43.53193" lon="5.50181">
        <ele>393</ele>
        <time>2012-03-04T11:37:58Z</time>
      </trkpt>
      <trkpt lat="43.5319" lon="5.50175">
        <ele>394</ele>
        <time>2012-03-04T11:38:00Z</time>
      </trkpt>
      <trkpt lat="43.53187" lon="5.50166">
        <ele>394</ele>
        <time>2012-03-04T11:38:02Z</time>
      </trkpt>
      <trkpt lat="43.53182" lon="5.5016">
        <ele>394</ele>
        <time>2012-03-04T11:38:04Z</time>
      </trkpt>
      <trkpt lat="43.53178" lon="5.50151">
        <ele>394</ele>
        <time>2012-03-04T11:38:06Z</time>
      </trkpt>
      <trkpt lat="43.53174" lon="5.50147">
        <ele>395</ele>
        <time>2012-03-04T11:38:08Z</time>
      </trkpt>
      <trkpt lat="43.5317" lon="5.5014">
        <ele>395</ele>
        <time>2012-03-04T11:38:10Z</time>
      </trkpt>
      <trkpt lat="43.53166" lon="5.50134">
        <ele>395</ele>
        <time>2012-03-04T11:38:12Z</time>
      </trkpt>
      <trkpt lat="43.53162" lon="5.50128">
        <ele>396</ele>
        <time>2012-03-04T11:38:14Z</time>
      </trkpt>
      <trkpt lat="43.53156" lon="5.50119">
        <ele>396</ele>
        <time>2012-03-04T11:38:16Z</time>
      </trkpt>
      <trkpt lat="43.53151" lon="5.50112">
        <ele>396</ele>
        <time>2012-03-04T11:38:18Z</time>
      </trkpt>
      <trkpt lat="43.53147" lon="5.50106">
        <ele>396</ele>
        <time>2012-03-04T11:38:20Z</time>
      </trkpt>
      <trkpt lat="43.53143" lon="5.501">
        <ele>396</ele>
        <time>2012-03-04T11:38:22Z</time>
      </trkpt>
      <trkpt lat="43.53142" lon="5.50093">
        <ele>397</ele>
        <time>2012-03-04T11:38:24Z</time>
      </trkpt>
      <trkpt lat="43.53142" lon="5.50084">
        <ele>397</ele>
        <time>2012-03-04T11:38:51Z</time>
      </trkpt>
      <trkpt lat="43.53142" lon="5.50084">
        <ele>397</ele>
        <time>2012-03-04T11:38:51Z</time>
      </trkpt>
      <trkpt lat="43.53142" lon="5.50084">
        <ele>397</ele>
        <time>2012-03-04T11:38:52Z</time>
      </trkpt>
      <trkpt lat="43.53138" lon="5.50078">
        <ele>398</ele>
        <time>2012-03-04T11:38:58Z</time>
      </trkpt>
      <trkpt lat="43.53139" lon="5.50072">
        <ele>398</ele>
        <time>2012-03-04T11:39:33Z</time>
      </trkpt>
      <trkpt lat="43.53145" lon="5.50072">
        <ele>398</ele>
        <time>2012-03-04T11:39:42Z</time>
      </trkpt>
      <trkpt lat="43.53145" lon="5.50072">
        <ele>398</ele>
        <time>2012-03-04T11:39:42Z</time>
      </trkpt>
      <trkpt lat="43.53145" lon="5.50072">
        <ele>398</ele>
        <time>2012-03-04T11:39:47Z</time>
      </trkpt>
      <trkpt lat="43.53142" lon="5.50078">
        <ele>397</ele>
        <time>2012-03-04T11:40:09Z</time>
      </trkpt>
      <trkpt lat="43.53142" lon="5.50078">
        <ele>397</ele>
        <time>2012-03-04T11:40:09Z</time>
      </trkpt>
      <trkpt lat="43.53142" lon="5.50078">
        <ele>397</ele>
        <time>2012-03-04T11:40:22Z</time>
      </trkpt>
      <trkpt lat="43.53137" lon="5.50082">
        <ele>397</ele>
        <time>2012-03-04T11:41:13Z</time>
      </trkpt>
      <trkpt lat="43.53137" lon="5.50089">
        <ele>397</ele>
        <time>2012-03-04T11:41:15Z</time>
      </trkpt>
      <trkpt lat="43.53138" lon="5.50095">
        <ele>397</ele>
        <time>2012-03-04T11:41:18Z</time>
      </trkpt>
      <trkpt lat="43.5314" lon="5.50102">
        <ele>397</ele>
        <time>2012-03-04T11:41:20Z</time>
      </trkpt>
      <trkpt lat="43.53143" lon="5.50108">
        <ele>397</ele>
        <time>2012-03-04T11:41:23Z</time>
      </trkpt>
      <trkpt lat="43.53145" lon="5.50115">
        <ele>397</ele>
        <time>2012-03-04T11:41:25Z</time>
      </trkpt>
      <trkpt lat="43.53148" lon="5.50119">
        <ele>397</ele>
        <time>2012-03-04T11:41:27Z</time>
      </trkpt>
      <trkpt lat="43.53152" lon="5.50125">
        <ele>397</ele>
        <time>2012-03-04T11:41:30Z</time>
      </trkpt>
      <trkpt lat="43.53154" lon="5.50132">
        <ele>397</ele>
        <time>2012-03-04T11:41:32Z</time>
      </trkpt>
      <trkpt lat="43.53158" lon="5.50136">
        <ele>397</ele>
        <time>2012-03-04T11:41:34Z</time>
      </trkpt>
      <trkpt lat="43.53161" lon="5.5014">
        <ele>397</ele>
        <time>2012-03-04T11:41:36Z</time>
      </trkpt>
      <trkpt lat="43.53164" lon="5.50145">
        <ele>397</ele>
        <time>2012-03-04T11:41:38Z</time>
      </trkpt>
      <trkpt lat="43.53167" lon="5.50149">
        <ele>397</ele>
        <time>2012-03-04T11:41:40Z</time>
      </trkpt>
      <trkpt lat="43.5317" lon="5.50155">
        <ele>397</ele>
        <time>2012-03-04T11:41:43Z</time>
      </trkpt>
      <trkpt lat="43.53173" lon="5.50162">
        <ele>397</ele>
        <time>2012-03-04T11:41:45Z</time>
      </trkpt>
      <trkpt lat="43.53175" lon="5.50168">
        <ele>397</ele>
        <time>2012-03-04T11:41:47Z</time>
      </trkpt>
      <trkpt lat="43.53177" lon="5.50175">
        <ele>397</ele>
        <time>2012-03-04T11:41:49Z</time>
      </trkpt>
      <trkpt lat="43.53179" lon="5.50181">
        <ele>397</ele>
        <time>2012-03-04T11:41:51Z</time>
      </trkpt>
      <trkpt lat="43.53182" lon="5.5019">
        <ele>397</ele>
        <time>2012-03-04T11:41:53Z</time>
      </trkpt>
      <trkpt lat="43.53183" lon="5.50196">
        <ele>397</ele>
        <time>2012-03-04T11:41:54Z</time>
      </trkpt>
      <trkpt lat="43.53188" lon="5.50203">
        <ele>398</ele>
        <time>2012-03-04T11:41:56Z</time>
      </trkpt>
      <trkpt lat="43.53192" lon="5.50211">
        <ele>398</ele>
        <time>2012-03-04T11:41:58Z</time>
      </trkpt>
      <trkpt lat="43.53193" lon="5.50218">
        <ele>398</ele>
        <time>2012-03-04T11:41:59Z</time>
      </trkpt>
      <trkpt lat="43.53196" lon="5.50226">
        <ele>398</ele>
        <time>2012-03-04T11:42:01Z</time>
      </trkpt>
      <trkpt lat="43.53199" lon="5.50235">
        <ele>398</ele>
        <time>2012-03-04T11:42:03Z</time>
      </trkpt>
      <trkpt lat="43.53204" lon="5.50243">
        <ele>399</ele>
        <time>2012-03-04T11:42:05Z</time>
      </trkpt>
      <trkpt lat="43.53206" lon="5.5025">
        <ele>400</ele>
        <time>2012-03-04T11:42:06Z</time>
      </trkpt>
      <trkpt lat="43.53207" lon="5.50256">
        <ele>400</ele>
        <time>2012-03-04T11:42:07Z</time>
      </trkpt>
      <trkpt lat="43.53211" lon="5.50267">
        <ele>400</ele>
        <time>2012-03-04T11:42:09Z</time>
      </trkpt>
      <trkpt lat="43.53216" lon="5.50276">
        <ele>400</ele>
        <time>2012-03-04T11:42:11Z</time>
      </trkpt>
      <trkpt lat="43.53219" lon="5.50284">
        <ele>400</ele>
        <time>2012-03-04T11:42:13Z</time>
      </trkpt>
      <trkpt lat="43.5322" lon="5.5029">
        <ele>400</ele>
        <time>2012-03-04T11:42:14Z</time>
      </trkpt>
      <trkpt lat="43.53222" lon="5.50299">
        <ele>400</ele>
        <time>2012-03-04T11:42:16Z</time>
      </trkpt>
      <trkpt lat="43.53221" lon="5.50308">
        <ele>400</ele>
        <time>2012-03-04T11:42:18Z</time>
      </trkpt>
      <trkpt lat="43.53219" lon="5.50314">
        <ele>400</ele>
        <time>2012-03-04T11:42:20Z</time>
      </trkpt>
      <trkpt lat="43.53216" lon="5.50323">
        <ele>400</ele>
        <time>2012-03-04T11:42:22Z</time>
      </trkpt>
      <trkpt lat="43.53213" lon="5.50329">
        <ele>400</ele>
        <time>2012-03-04T11:42:24Z</time>
      </trkpt>
      <trkpt lat="43.53209" lon="5.50338">
        <ele>400</ele>
        <time>2012-03-04T11:42:26Z</time>
      </trkpt>
      <trkpt lat="43.53203" lon="5.5034">
        <ele>399</ele>
        <time>2012-03-04T11:42:28Z</time>
      </trkpt>
      <trkpt lat="43.53197" lon="5.50344">
        <ele>399</ele>
        <time>2012-03-04T11:42:30Z</time>
      </trkpt>
      <trkpt lat="43.53191" lon="5.50348">
        <ele>399</ele>
        <time>2012-03-04T11:42:32Z</time>
      </trkpt>
      <trkpt lat="43.53184" lon="5.50353">
        <ele>399</ele>
        <time>2012-03-04T11:42:34Z</time>
      </trkpt>
      <trkpt lat="43.53178" lon="5.50359">
        <ele>398</ele>
        <time>2012-03-04T11:42:36Z</time>
      </trkpt>
      <trkpt lat="43.53172" lon="5.50366">
        <ele>398</ele>
        <time>2012-03-04T11:42:38Z</time>
      </trkpt>
      <trkpt lat="43.53166" lon="5.50372">
        <ele>398</ele>
        <time>2012-03-04T11:42:40Z</time>
      </trkpt>
      <trkpt lat="43.5316" lon="5.50381">
        <ele>398</ele>
        <time>2012-03-04T11:42:42Z</time>
      </trkpt>
      <trkpt lat="43.53155" lon="5.50387">
        <ele>398</ele>
        <time>2012-03-04T11:42:44Z</time>
      </trkpt>
      <trkpt lat="43.5315" lon="5.50394">
        <ele>398</ele>
        <time>2012-03-04T11:42:46Z</time>
      </trkpt>
      <trkpt lat="43.53146" lon="5.504">
        <ele>398</ele>
        <time>2012-03-04T11:42:48Z</time>
      </trkpt>
      <trkpt lat="43.53142" lon="5.50406">
        <ele>398</ele>
        <time>2012-03-04T11:42:50Z</time>
      </trkpt>
      <trkpt lat="43.53136" lon="5.50413">
        <ele>398</ele>
        <time>2012-03-04T11:42:52Z</time>
      </trkpt>
      <trkpt lat="43.5313" lon="5.50419">
        <ele>398</ele>
        <time>2012-03-04T11:42:54Z</time>
      </trkpt>
      <trkpt lat="43.53124" lon="5.50426">
        <ele>398</ele>
        <time>2012-03-04T11:42:56Z</time>
      </trkpt>
      <trkpt lat="43.53118" lon="5.50432">
        <ele>399</ele>
        <time>2012-03-04T11:42:58Z</time>
      </trkpt>
      <trkpt lat="43.53112" lon="5.50439">
        <ele>399</ele>
        <time>2012-03-04T11:43:00Z</time>
      </trkpt>
      <trkpt lat="43.53107" lon="5.50441">
        <ele>400</ele>
        <time>2012-03-04T11:43:01Z</time>
      </trkpt>
      <trkpt lat="43.53101" lon="5.50445">
        <ele>400</ele>
        <time>2012-03-04T11:43:03Z</time>
      </trkpt>
      <trkpt lat="43.53096" lon="5.50447">
        <ele>400</ele>
        <time>2012-03-04T11:43:04Z</time>
      </trkpt>
      <trkpt lat="43.53088" lon="5.50452">
        <ele>400</ele>
        <time>2012-03-04T11:43:06Z</time>
      </trkpt>
      <trkpt lat="43.53081" lon="5.50458">
        <ele>400</ele>
        <time>2012-03-04T11:43:08Z</time>
      </trkpt>
      <trkpt lat="43.53075" lon="5.50466">
        <ele>400</ele>
        <time>2012-03-04T11:43:10Z</time>
      </trkpt>
      <trkpt lat="43.53068" lon="5.50471">
        <ele>399</ele>
        <time>2012-03-04T11:43:12Z</time>
      </trkpt>
      <trkpt lat="43.53062" lon="5.50473">
        <ele>398</ele>
        <time>2012-03-04T11:43:13Z</time>
      </trkpt>
      <trkpt lat="43.53057" lon="5.50475">
        <ele>398</ele>
        <time>2012-03-04T11:43:14Z</time>
      </trkpt>
      <trkpt lat="43.53051" lon="5.50477">
        <ele>398</ele>
        <time>2012-03-04T11:43:15Z</time>
      </trkpt>
      <trkpt lat="43.53045" lon="5.50479">
        <ele>398</ele>
        <time>2012-03-04T11:43:16Z</time>
      </trkpt>
      <trkpt lat="43.5304" lon="5.50482">
        <ele>398</ele>
        <time>2012-03-04T11:43:17Z</time>
      </trkpt>
      <trkpt lat="43.53034" lon="5.50482">
        <ele>397</ele>
        <time>2012-03-04T11:43:18Z</time>
      </trkpt>
      <trkpt lat="43.53029" lon="5.50484">
        <ele>397</ele>
        <time>2012-03-04T11:43:19Z</time>
      </trkpt>
      <trkpt lat="43.53019" lon="5.50486">
        <ele>396</ele>
        <time>2012-03-04T11:43:21Z</time>
      </trkpt>
      <trkpt lat="43.53014" lon="5.50488">
        <ele>396</ele>
        <time>2012-03-04T11:43:22Z</time>
      </trkpt>
      <trkpt lat="43.53008" lon="5.5049">
        <ele>396</ele>
        <time>2012-03-04T11:43:23Z</time>
      </trkpt>
      <trkpt lat="43.53003" lon="5.50494">
        <ele>396</ele>
        <time>2012-03-04T11:43:24Z</time>
      </trkpt>
      <trkpt lat="43.52998" lon="5.50496">
        <ele>395</ele>
        <time>2012-03-04T11:43:25Z</time>
      </trkpt>
      <trkpt lat="43.52992" lon="5.50499">
        <ele>395</ele>
        <time>2012-03-04T11:43:26Z</time>
      </trkpt>
      <trkpt lat="43.52987" lon="5.50499">
        <ele>395</ele>
        <time>2012-03-04T11:43:27Z</time>
      </trkpt>
      <trkpt lat="43.52983" lon="5.50496">
        <ele>395</ele>
        <time>2012-03-04T11:43:28Z</time>
      </trkpt>
      <trkpt lat="43.52977" lon="5.50496">
        <ele>394</ele>
        <time>2012-03-04T11:43:29Z</time>
      </trkpt>
      <trkpt lat="43.52972" lon="5.50494">
        <ele>394</ele>
        <time>2012-03-04T11:43:30Z</time>
      </trkpt>
      <trkpt lat="43.52968" lon="5.50492">
        <ele>394</ele>
        <time>2012-03-04T11:43:31Z</time>
      </trkpt>
      <trkpt lat="43.52962" lon="5.50492">
        <ele>394</ele>
        <time>2012-03-04T11:43:32Z</time>
      </trkpt>
      <trkpt lat="43.52955" lon="5.50494">
        <ele>394</ele>
        <time>2012-03-04T11:43:34Z</time>
      </trkpt>
      <trkpt lat="43.5295" lon="5.50501">
        <ele>394</ele>
        <time>2012-03-04T11:43:36Z</time>
      </trkpt>
      <trkpt lat="43.52943" lon="5.50503">
        <ele>394</ele>
        <time>2012-03-04T11:43:38Z</time>
      </trkpt>
      <trkpt lat="43.52934" lon="5.50503">
        <ele>393</ele>
        <time>2012-03-04T11:43:40Z</time>
      </trkpt>
      <trkpt lat="43.52926" lon="5.50507">
        <ele>392</ele>
        <time>2012-03-04T11:43:42Z</time>
      </trkpt>
      <trkpt lat="43.52919" lon="5.50509">
        <ele>392</ele>
        <time>2012-03-04T11:43:44Z</time>
      </trkpt>
      <trkpt lat="43.52914" lon="5.50512">
        <ele>392</ele>
        <time>2012-03-04T11:43:46Z</time>
      </trkpt>
      <trkpt lat="43.5291" lon="5.50514">
        <ele>391</ele>
        <time>2012-03-04T11:43:48Z</time>
      </trkpt>
      <trkpt lat="43.52904" lon="5.50514">
        <ele>391</ele>
        <time>2012-03-04T11:43:51Z</time>
      </trkpt>
      <trkpt lat="43.52899" lon="5.50512">
        <ele>391</ele>
        <time>2012-03-04T11:44:28Z</time>
      </trkpt>
      <trkpt lat="43.52894" lon="5.50505">
        <ele>390</ele>
        <time>2012-03-04T11:44:31Z</time>
      </trkpt>
      <trkpt lat="43.52888" lon="5.50499">
        <ele>390</ele>
        <time>2012-03-04T11:44:34Z</time>
      </trkpt>
      <trkpt lat="43.52884" lon="5.50492">
        <ele>390</ele>
        <time>2012-03-04T11:44:36Z</time>
      </trkpt>
      <trkpt lat="43.52882" lon="5.50486">
        <ele>390</ele>
        <time>2012-03-04T11:44:38Z</time>
      </trkpt>
      <trkpt lat="43.52879" lon="5.50477">
        <ele>390</ele>
        <time>2012-03-04T11:44:41Z</time>
      </trkpt>
      <trkpt lat="43.52878" lon="5.50471">
        <ele>389</ele>
        <time>2012-03-04T11:44:43Z</time>
      </trkpt>
      <trkpt lat="43.52876" lon="5.50462">
        <ele>389</ele>
        <time>2012-03-04T11:44:45Z</time>
      </trkpt>
      <trkpt lat="43.52875" lon="5.50452">
        <ele>388</ele>
        <time>2012-03-04T11:44:47Z</time>
      </trkpt>
      <trkpt lat="43.52874" lon="5.50441">
        <ele>385</ele>
        <time>2012-03-04T11:44:49Z</time>
      </trkpt>
      <trkpt lat="43.52873" lon="5.50434">
        <ele>385</ele>
        <time>2012-03-04T11:44:50Z</time>
      </trkpt>
      <trkpt lat="43.52873" lon="5.50428">
        <ele>384</ele>
        <time>2012-03-04T11:44:51Z</time>
      </trkpt>
      <trkpt lat="43.52873" lon="5.50421">
        <ele>384</ele>
        <time>2012-03-04T11:44:52Z</time>
      </trkpt>
      <trkpt lat="43.52874" lon="5.50411">
        <ele>384</ele>
        <time>2012-03-04T11:44:54Z</time>
      </trkpt>
      <trkpt lat="43.52874" lon="5.50404">
        <ele>384</ele>
        <time>2012-03-04T11:44:55Z</time>
      </trkpt>
      <trkpt lat="43.52875" lon="5.50398">
        <ele>384</ele>
        <time>2012-03-04T11:44:57Z</time>
      </trkpt>
      <trkpt lat="43.52878" lon="5.50391">
        <ele>383</ele>
        <time>2012-03-04T11:44:59Z</time>
      </trkpt>
      <trkpt lat="43.5288" lon="5.50385">
        <ele>383</ele>
        <time>2012-03-04T11:45:01Z</time>
      </trkpt>
      <trkpt lat="43.52881" lon="5.50378">
        <ele>383</ele>
        <time>2012-03-04T11:45:04Z</time>
      </trkpt>
      <trkpt lat="43.52881" lon="5.50378">
        <ele>383</ele>
        <time>2012-03-04T11:45:04Z</time>
      </trkpt>
      <trkpt lat="43.52881" lon="5.50378">
        <ele>383</ele>
        <time>2012-03-04T11:45:05Z</time>
      </trkpt>
      <trkpt lat="43.52874" lon="5.50374">
        <ele>383</ele>
        <time>2012-03-04T11:45:09Z</time>
      </trkpt>
      <trkpt lat="43.52874" lon="5.50374">
        <ele>383</ele>
        <time>2012-03-04T11:45:09Z</time>
      </trkpt>
      <trkpt lat="43.52874" lon="5.50374">
        <ele>383</ele>
        <time>2012-03-04T11:45:10Z</time>
      </trkpt>
      <trkpt lat="43.5287" lon="5.50381">
        <ele>382</ele>
        <time>2012-03-04T11:45:12Z</time>
      </trkpt>
      <trkpt lat="43.52869" lon="5.50387">
        <ele>382</ele>
        <time>2012-03-04T11:45:14Z</time>
      </trkpt>
      <trkpt lat="43.52866" lon="5.50394">
        <ele>382</ele>
        <time>2012-03-04T11:45:17Z</time>
      </trkpt>
      <trkpt lat="43.52864" lon="5.504">
        <ele>382</ele>
        <time>2012-03-04T11:45:19Z</time>
      </trkpt>
      <trkpt lat="43.5286" lon="5.50406">
        <ele>382</ele>
        <time>2012-03-04T11:45:21Z</time>
      </trkpt>
      <trkpt lat="43.52856" lon="5.50413">
        <ele>381</ele>
        <time>2012-03-04T11:45:23Z</time>
      </trkpt>
      <trkpt lat="43.52854" lon="5.50419">
        <ele>380</ele>
        <time>2012-03-04T11:45:24Z</time>
      </trkpt>
      <trkpt lat="43.52851" lon="5.50426">
        <ele>380</ele>
        <time>2012-03-04T11:45:25Z</time>
      </trkpt>
      <trkpt lat="43.52849" lon="5.50432">
        <ele>379</ele>
        <time>2012-03-04T11:45:26Z</time>
      </trkpt>
      <trkpt lat="43.52845" lon="5.50439">
        <ele>379</ele>
        <time>2012-03-04T11:45:27Z</time>
      </trkpt>
      <trkpt lat="43.52842" lon="5.50445">
        <ele>378</ele>
        <time>2012-03-04T11:45:28Z</time>
      </trkpt>
      <trkpt lat="43.52841" lon="5.50454">
        <ele>378</ele>
        <time>2012-03-04T11:45:29Z</time>
      </trkpt>
      <trkpt lat="43.52839" lon="5.5046">
        <ele>377</ele>
        <time>2012-03-04T11:45:30Z</time>
      </trkpt>
      <trkpt lat="43.5284" lon="5.50469">
        <ele>377</ele>
        <time>2012-03-04T11:45:31Z</time>
      </trkpt>
      <trkpt lat="43.5284" lon="5.50475">
        <ele>377</ele>
        <time>2012-03-04T11:45:32Z</time>
      </trkpt>
      <trkpt lat="43.5284" lon="5.50484">
        <ele>377</ele>
        <time>2012-03-04T11:45:33Z</time>
      </trkpt>
      <trkpt lat="43.52841" lon="5.5049">
        <ele>377</ele>
        <time>2012-03-04T11:45:34Z</time>
      </trkpt>
      <trkpt lat="43.52841" lon="5.50496">
        <ele>376</ele>
        <time>2012-03-04T11:45:35Z</time>
      </trkpt>
      <trkpt lat="43.52842" lon="5.50503">
        <ele>376</ele>
        <time>2012-03-04T11:45:36Z</time>
      </trkpt>
      <trkpt lat="43.52843" lon="5.50509">
        <ele>376</ele>
        <time>2012-03-04T11:45:37Z</time>
      </trkpt>
      <trkpt lat="43.52843" lon="5.50518">
        <ele>376</ele>
        <time>2012-03-04T11:45:38Z</time>
      </trkpt>
      <trkpt lat="43.52845" lon="5.50524">
        <ele>376</ele>
        <time>2012-03-04T11:45:39Z</time>
      </trkpt>
      <trkpt lat="43.52846" lon="5.50531">
        <ele>376</ele>
        <time>2012-03-04T11:45:40Z</time>
      </trkpt>
      <trkpt lat="43.52849" lon="5.50537">
        <ele>376</ele>
        <time>2012-03-04T11:45:41Z</time>
      </trkpt>
      <trkpt lat="43.52851" lon="5.50544">
        <ele>376</ele>
        <time>2012-03-04T11:45:42Z</time>
      </trkpt>
      <trkpt lat="43.52853" lon="5.5055">
        <ele>376</ele>
        <time>2012-03-04T11:45:43Z</time>
      </trkpt>
      <trkpt lat="43.52855" lon="5.50559">
        <ele>376</ele>
        <time>2012-03-04T11:45:44Z</time>
      </trkpt>
      <trkpt lat="43.52858" lon="5.50565">
        <ele>376</ele>
        <time>2012-03-04T11:45:45Z</time>
      </trkpt>
      <trkpt lat="43.5286" lon="5.50572">
        <ele>376</ele>
        <time>2012-03-04T11:45:46Z</time>
      </trkpt>
      <trkpt lat="43.52864" lon="5.50576">
        <ele>376</ele>
        <time>2012-03-04T11:45:47Z</time>
      </trkpt>
      <trkpt lat="43.52866" lon="5.50582">
        <ele>376</ele>
        <time>2012-03-04T11:45:48Z</time>
      </trkpt>
      <trkpt lat="43.5287" lon="5.50593">
        <ele>376</ele>
        <time>2012-03-04T11:45:50Z</time>
      </trkpt>
      <trkpt lat="43.52873" lon="5.50604">
        <ele>376</ele>
        <time>2012-03-04T11:45:52Z</time>
      </trkpt>
      <trkpt lat="43.52874" lon="5.50612">
        <ele>376</ele>
        <time>2012-03-04T11:45:54Z</time>
      </trkpt>
      <trkpt lat="43.52872" lon="5.50621">
        <ele>376</ele>
        <time>2012-03-04T11:45:56Z</time>
      </trkpt>
      <trkpt lat="43.52871" lon="5.5063">
        <ele>376</ele>
        <time>2012-03-04T11:45:58Z</time>
      </trkpt>
      <trkpt lat="43.5287" lon="5.50636">
        <ele>376</ele>
        <time>2012-03-04T11:46:00Z</time>
      </trkpt>
      <trkpt lat="43.5287" lon="5.50636">
        <ele>376</ele>
        <time>2012-03-04T11:46:00Z</time>
      </trkpt>
      <trkpt lat="43.5287" lon="5.50636">
        <ele>376</ele>
        <time>2012-03-04T11:46:39Z</time>
      </trkpt>
      <trkpt lat="43.5287" lon="5.50645">
        <ele>373</ele>
        <time>2012-03-04T11:46:40Z</time>
      </trkpt>
      <trkpt lat="43.5287" lon="5.50645">
        <ele>373</ele>
        <time>2012-03-04T11:46:40Z</time>
      </trkpt>
      <trkpt lat="43.5287" lon="5.50645">
        <ele>373</ele>
        <time>2012-03-04T11:46:54Z</time>
      </trkpt>
      <trkpt lat="43.52871" lon="5.50653">
        <ele>371</ele>
        <time>2012-03-04T11:46:55Z</time>
      </trkpt>
      <trkpt lat="43.52872" lon="5.50662">
        <ele>370</ele>
        <time>2012-03-04T11:46:57Z</time>
      </trkpt>
      <trkpt lat="43.52874" lon="5.50668">
        <ele>369</ele>
        <time>2012-03-04T11:46:59Z</time>
      </trkpt>
      <trkpt lat="43.52879" lon="5.50675">
        <ele>367</ele>
        <time>2012-03-04T11:47:01Z</time>
      </trkpt>
      <trkpt lat="43.52882" lon="5.50679">
        <ele>367</ele>
        <time>2012-03-04T11:47:02Z</time>
      </trkpt>
      <trkpt lat="43.52885" lon="5.50683">
        <ele>361</ele>
        <time>2012-03-04T11:47:03Z</time>
      </trkpt>
      <trkpt lat="43.52893" lon="5.5069">
        <ele>353</ele>
        <time>2012-03-04T11:47:05Z</time>
      </trkpt>
      <trkpt lat="43.52896" lon="5.50694">
        <ele>350</ele>
        <time>2012-03-04T11:47:06Z</time>
      </trkpt>
      <trkpt lat="43.529" lon="5.50698">
        <ele>347</ele>
        <time>2012-03-04T11:47:07Z</time>
      </trkpt>
      <trkpt lat="43.52904" lon="5.50702">
        <ele>346</ele>
        <time>2012-03-04T11:47:08Z</time>
      </trkpt>
      <trkpt lat="43.52908" lon="5.50707">
        <ele>344</ele>
        <time>2012-03-04T11:47:09Z</time>
      </trkpt>
      <trkpt lat="43.52912" lon="5.50713">
        <ele>344</ele>
        <time>2012-03-04T11:47:11Z</time>
      </trkpt>
      <trkpt lat="43.52917" lon="5.50718">
        <ele>344</ele>
        <time>2012-03-04T11:47:13Z</time>
      </trkpt>
      <trkpt lat="43.52922" lon="5.5072">
        <ele>344</ele>
        <time>2012-03-04T11:47:15Z</time>
      </trkpt>
      <trkpt lat="43.52927" lon="5.50724">
        <ele>343</ele>
        <time>2012-03-04T11:47:17Z</time>
      </trkpt>
      <trkpt lat="43.52932" lon="5.50724">
        <ele>343</ele>
        <time>2012-03-04T11:47:20Z</time>
      </trkpt>
      <trkpt lat="43.52939" lon="5.50724">
        <ele>343</ele>
        <time>2012-03-04T11:47:23Z</time>
      </trkpt>
      <trkpt lat="43.52945" lon="5.50724">
        <ele>342</ele>
        <time>2012-03-04T11:47:25Z</time>
      </trkpt>
      <trkpt lat="43.5295" lon="5.50722">
        <ele>342</ele>
        <time>2012-03-04T11:47:27Z</time>
      </trkpt>
      <trkpt lat="43.52954" lon="5.50718">
        <ele>341</ele>
        <time>2012-03-04T11:47:31Z</time>
      </trkpt>
      <trkpt lat="43.52954" lon="5.50718">
        <ele>341</ele>
        <time>2012-03-04T11:47:31Z</time>
      </trkpt>
      <trkpt lat="43.52954" lon="5.50718">
        <ele>341</ele>
        <time>2012-03-04T11:47:32Z</time>
      </trkpt>
      <trkpt lat="43.5296" lon="5.50718">
        <ele>341</ele>
        <time>2012-03-04T11:47:35Z</time>
      </trkpt>
      <trkpt lat="43.52966" lon="5.5072">
        <ele>341</ele>
        <time>2012-03-04T11:47:37Z</time>
      </trkpt>
      <trkpt lat="43.5297" lon="5.50722">
        <ele>339</ele>
        <time>2012-03-04T11:47:38Z</time>
      </trkpt>
      <trkpt lat="43.52974" lon="5.50724">
        <ele>338</ele>
        <time>2012-03-04T11:47:39Z</time>
      </trkpt>
      <trkpt lat="43.52978" lon="5.50728">
        <ele>337</ele>
        <time>2012-03-04T11:47:40Z</time>
      </trkpt>
      <trkpt lat="43.52983" lon="5.5073">
        <ele>336</ele>
        <time>2012-03-04T11:47:41Z</time>
      </trkpt>
      <trkpt lat="43.52993" lon="5.50733">
        <ele>335</ele>
        <time>2012-03-04T11:47:43Z</time>
      </trkpt>
      <trkpt lat="43.53" lon="5.50735">
        <ele>334</ele>
        <time>2012-03-04T11:47:44Z</time>
      </trkpt>
      <trkpt lat="43.53006" lon="5.50735">
        <ele>333</ele>
        <time>2012-03-04T11:47:45Z</time>
      </trkpt>
      <trkpt lat="43.53013" lon="5.50737">
        <ele>331</ele>
        <time>2012-03-04T11:47:46Z</time>
      </trkpt>
      <trkpt lat="43.53019" lon="5.50737">
        <ele>330</ele>
        <time>2012-03-04T11:47:47Z</time>
      </trkpt>
      <trkpt lat="43.53025" lon="5.50737">
        <ele>329</ele>
        <time>2012-03-04T11:47:48Z</time>
      </trkpt>
      <trkpt lat="43.53031" lon="5.50739">
        <ele>328</ele>
        <time>2012-03-04T11:47:49Z</time>
      </trkpt>
      <trkpt lat="43.5304" lon="5.50741">
        <ele>327</ele>
        <time>2012-03-04T11:47:51Z</time>
      </trkpt>
      <trkpt lat="43.53047" lon="5.50748">
        <ele>326</ele>
        <time>2012-03-04T11:47:53Z</time>
      </trkpt>
      <trkpt lat="43.53051" lon="5.50752">
        <ele>325</ele>
        <time>2012-03-04T11:47:54Z</time>
      </trkpt>
      <trkpt lat="43.53055" lon="5.50758">
        <ele>324</ele>
        <time>2012-03-04T11:47:55Z</time>
      </trkpt>
      <trkpt lat="43.5306" lon="5.50763">
        <ele>323</ele>
        <time>2012-03-04T11:47:56Z</time>
      </trkpt>
      <trkpt lat="43.53064" lon="5.50769">
        <ele>322</ele>
        <time>2012-03-04T11:47:57Z</time>
      </trkpt>
      <trkpt lat="43.5307" lon="5.50776">
        <ele>321</ele>
        <time>2012-03-04T11:47:58Z</time>
      </trkpt>
      <trkpt lat="43.53074" lon="5.5078">
        <ele>321</ele>
        <time>2012-03-04T11:47:59Z</time>
      </trkpt>
      <trkpt lat="43.53077" lon="5.50786">
        <ele>320</ele>
        <time>2012-03-04T11:48:00Z</time>
      </trkpt>
      <trkpt lat="43.53081" lon="5.5079">
        <ele>320</ele>
        <time>2012-03-04T11:48:01Z</time>
      </trkpt>
      <trkpt lat="43.53086" lon="5.50797">
        <ele>319</ele>
        <time>2012-03-04T11:48:02Z</time>
      </trkpt>
      <trkpt lat="43.5309" lon="5.50801">
        <ele>319</ele>
        <time>2012-03-04T11:48:03Z</time>
      </trkpt>
      <trkpt lat="43.53094" lon="5.50808">
        <ele>318</ele>
        <time>2012-03-04T11:48:04Z</time>
      </trkpt>
      <trkpt lat="43.531" lon="5.50812">
        <ele>318</ele>
        <time>2012-03-04T11:48:05Z</time>
      </trkpt>
      <trkpt lat="43.53105" lon="5.50818">
        <ele>317</ele>
        <time>2012-03-04T11:48:06Z</time>
      </trkpt>
      <trkpt lat="43.53112" lon="5.50823">
        <ele>315</ele>
        <time>2012-03-04T11:48:07Z</time>
      </trkpt>
      <trkpt lat="43.53117" lon="5.50827">
        <ele>314</ele>
        <time>2012-03-04T11:48:08Z</time>
      </trkpt>
      <trkpt lat="43.53122" lon="5.50829">
        <ele>312</ele>
        <time>2012-03-04T11:48:09Z</time>
      </trkpt>
      <trkpt lat="43.53128" lon="5.50833">
        <ele>311</ele>
        <time>2012-03-04T11:48:10Z</time>
      </trkpt>
      <trkpt lat="43.53133" lon="5.50836">
        <ele>309</ele>
        <time>2012-03-04T11:48:11Z</time>
      </trkpt>
      <trkpt lat="43.53137" lon="5.5084">
        <ele>307</ele>
        <time>2012-03-04T11:48:12Z</time>
      </trkpt>
      <trkpt lat="43.53142" lon="5.50844">
        <ele>305</ele>
        <time>2012-03-04T11:48:13Z</time>
      </trkpt>
      <trkpt lat="43.53146" lon="5.50846">
        <ele>304</ele>
        <time>2012-03-04T11:48:14Z</time>
      </trkpt>
      <trkpt lat="43.5315" lon="5.50851">
        <ele>303</ele>
        <time>2012-03-04T11:48:15Z</time>
      </trkpt>
      <trkpt lat="43.53154" lon="5.50853">
        <ele>302</ele>
        <time>2012-03-04T11:48:16Z</time>
      </trkpt>
      <trkpt lat="43.53159" lon="5.50855">
        <ele>301</ele>
        <time>2012-03-04T11:48:17Z</time>
      </trkpt>
      <trkpt lat="43.53165" lon="5.50859">
        <ele>301</ele>
        <time>2012-03-04T11:48:19Z</time>
      </trkpt>
      <trkpt lat="43.5317" lon="5.50864">
        <ele>301</ele>
        <time>2012-03-04T11:48:21Z</time>
      </trkpt>
      <trkpt lat="43.53176" lon="5.50864">
        <ele>301</ele>
        <time>2012-03-04T11:48:23Z</time>
      </trkpt>
      <trkpt lat="43.53181" lon="5.50866">
        <ele>300</ele>
        <time>2012-03-04T11:48:25Z</time>
      </trkpt>
      <trkpt lat="43.53188" lon="5.50866">
        <ele>300</ele>
        <time>2012-03-04T11:48:27Z</time>
      </trkpt>
      <trkpt lat="43.53195" lon="5.50864">
        <ele>299</ele>
        <time>2012-03-04T11:48:31Z</time>
      </trkpt>
      <trkpt lat="43.532" lon="5.50864">
        <ele>299</ele>
        <time>2012-03-04T11:48:34Z</time>
      </trkpt>
      <trkpt lat="43.53207" lon="5.50864">
        <ele>298</ele>
        <time>2012-03-04T11:48:37Z</time>
      </trkpt>
      <trkpt lat="43.53212" lon="5.50864">
        <ele>297</ele>
        <time>2012-03-04T11:48:39Z</time>
      </trkpt>
      <trkpt lat="43.53218" lon="5.50866">
        <ele>296</ele>
        <time>2012-03-04T11:48:42Z</time>
      </trkpt>
      <trkpt lat="43.53223" lon="5.50864">
        <ele>295</ele>
        <time>2012-03-04T11:48:45Z</time>
      </trkpt>
      <trkpt lat="43.5323" lon="5.50864">
        <ele>294</ele>
        <time>2012-03-04T11:48:49Z</time>
      </trkpt>
      <trkpt lat="43.53236" lon="5.50864">
        <ele>293</ele>
        <time>2012-03-04T11:48:52Z</time>
      </trkpt>
      <trkpt lat="43.53241" lon="5.50864">
        <ele>292</ele>
        <time>2012-03-04T11:48:54Z</time>
      </trkpt>
      <trkpt lat="43.53248" lon="5.50864">
        <ele>291</ele>
        <time>2012-03-04T11:48:57Z</time>
      </trkpt>
      <trkpt lat="43.53253" lon="5.50864">
        <ele>290</ele>
        <time>2012-03-04T11:48:59Z</time>
      </trkpt>
      <trkpt lat="43.53257" lon="5.50861">
        <ele>290</ele>
        <time>2012-03-04T11:49:01Z</time>
      </trkpt>
      <trkpt lat="43.53264" lon="5.50861">
        <ele>289</ele>
        <time>2012-03-04T11:49:04Z</time>
      </trkpt>
      <trkpt lat="43.53264" lon="5.50861">
        <ele>289</ele>
        <time>2012-03-04T11:49:04Z</time>
      </trkpt>
      <trkpt lat="43.53264" lon="5.50861">
        <ele>289</ele>
        <time>2012-03-04T11:49:15Z</time>
      </trkpt>
      <trkpt lat="43.53268" lon="5.50864">
        <ele>288</ele>
        <time>2012-03-04T11:49:17Z</time>
      </trkpt>
      <trkpt lat="43.53274" lon="5.50868">
        <ele>287</ele>
        <time>2012-03-04T11:49:19Z</time>
      </trkpt>
      <trkpt lat="43.53278" lon="5.5087">
        <ele>287</ele>
        <time>2012-03-04T11:49:21Z</time>
      </trkpt>
      <trkpt lat="43.53282" lon="5.50872">
        <ele>286</ele>
        <time>2012-03-04T11:49:24Z</time>
      </trkpt>
      <trkpt lat="43.53285" lon="5.50876">
        <ele>285</ele>
        <time>2012-03-04T11:49:27Z</time>
      </trkpt>
      <trkpt lat="43.53288" lon="5.50881">
        <ele>285</ele>
        <time>2012-03-04T11:49:30Z</time>
      </trkpt>
      <trkpt lat="43.53291" lon="5.50889">
        <ele>284</ele>
        <time>2012-03-04T11:49:33Z</time>
      </trkpt>
      <trkpt lat="43.53295" lon="5.50896">
        <ele>283</ele>
        <time>2012-03-04T11:49:36Z</time>
      </trkpt>
      <trkpt lat="43.53298" lon="5.50902">
        <ele>283</ele>
        <time>2012-03-04T11:49:39Z</time>
      </trkpt>
      <trkpt lat="43.533" lon="5.50908">
        <ele>282</ele>
        <time>2012-03-04T11:49:42Z</time>
      </trkpt>
      <trkpt lat="43.53302" lon="5.50917">
        <ele>281</ele>
        <time>2012-03-04T11:49:45Z</time>
      </trkpt>
      <trkpt lat="43.53304" lon="5.50926">
        <ele>281</ele>
        <time>2012-03-04T11:49:48Z</time>
      </trkpt>
      <trkpt lat="43.53306" lon="5.50934">
        <ele>280</ele>
        <time>2012-03-04T11:49:51Z</time>
      </trkpt>
      <trkpt lat="43.53307" lon="5.50941">
        <ele>280</ele>
        <time>2012-03-04T11:49:53Z</time>
      </trkpt>
      <trkpt lat="43.53308" lon="5.50947">
        <ele>279</ele>
        <time>2012-03-04T11:49:55Z</time>
      </trkpt>
      <trkpt lat="43.5331" lon="5.50956">
        <ele>279</ele>
        <time>2012-03-04T11:49:58Z</time>
      </trkpt>
      <trkpt lat="43.53312" lon="5.50964">
        <ele>278</ele>
        <time>2012-03-04T11:50:01Z</time>
      </trkpt>
      <trkpt lat="43.53314" lon="5.50973">
        <ele>278</ele>
        <time>2012-03-04T11:50:04Z</time>
      </trkpt>
      <trkpt lat="43.53316" lon="5.50984">
        <ele>277</ele>
        <time>2012-03-04T11:50:09Z</time>
      </trkpt>
      <trkpt lat="43.53316" lon="5.5099">
        <ele>277</ele>
        <time>2012-03-04T11:50:12Z</time>
      </trkpt>
      <trkpt lat="43.5332" lon="5.50996">
        <ele>277</ele>
        <time>2012-03-04T11:50:15Z</time>
      </trkpt>
      <trkpt lat="43.53323" lon="5.51005">
        <ele>277</ele>
        <time>2012-03-04T11:50:18Z</time>
      </trkpt>
      <trkpt lat="43.53327" lon="5.51014">
        <ele>277</ele>
        <time>2012-03-04T11:50:22Z</time>
      </trkpt>
      <trkpt lat="43.53328" lon="5.5102">
        <ele>277</ele>
        <time>2012-03-04T11:50:24Z</time>
      </trkpt>
      <trkpt lat="43.53328" lon="5.51029">
        <ele>277</ele>
        <time>2012-03-04T11:50:27Z</time>
      </trkpt>
      <trkpt lat="43.53327" lon="5.51035">
        <ele>278</ele>
        <time>2012-03-04T11:50:29Z</time>
      </trkpt>
      <trkpt lat="43.53326" lon="5.51042">
        <ele>278</ele>
        <time>2012-03-04T11:50:32Z</time>
      </trkpt>
      <trkpt lat="43.53324" lon="5.51048">
        <ele>278</ele>
        <time>2012-03-04T11:50:35Z</time>
      </trkpt>
      <trkpt lat="43.53322" lon="5.51054">
        <ele>278</ele>
        <time>2012-03-04T11:50:37Z</time>
      </trkpt>
      <trkpt lat="43.53317" lon="5.51063">
        <ele>279</ele>
        <time>2012-03-04T11:50:41Z</time>
      </trkpt>
      <trkpt lat="43.53312" lon="5.51067">
        <ele>279</ele>
        <time>2012-03-04T11:50:44Z</time>
      </trkpt>
      <trkpt lat="43.53309" lon="5.51074">
        <ele>279</ele>
        <time>2012-03-04T11:50:47Z</time>
      </trkpt>
      <trkpt lat="43.53306" lon="5.51078">
        <ele>279</ele>
        <time>2012-03-04T11:50:50Z</time>
      </trkpt>
      <trkpt lat="43.53306" lon="5.51078">
        <ele>279</ele>
        <time>2012-03-04T11:50:50Z</time>
      </trkpt>
      <trkpt lat="43.53306" lon="5.51078">
        <ele>280</ele>
        <time>2012-03-04T11:51:18Z</time>
      </trkpt>
      <trkpt lat="43.53305" lon="5.51084">
        <ele>280</ele>
        <time>2012-03-04T11:51:20Z</time>
      </trkpt>
      <trkpt lat="43.53302" lon="5.51091">
        <ele>280</ele>
        <time>2012-03-04T11:51:22Z</time>
      </trkpt>
      <trkpt lat="43.533" lon="5.51097">
        <ele>280</ele>
        <time>2012-03-04T11:51:26Z</time>
      </trkpt>
      <trkpt lat="43.533" lon="5.51097">
        <ele>280</ele>
        <time>2012-03-04T11:51:26Z</time>
      </trkpt>
      <trkpt lat="43.533" lon="5.51097">
        <ele>280</ele>
        <time>2012-03-04T11:51:28Z</time>
      </trkpt>
      <trkpt lat="43.53298" lon="5.51091">
        <ele>280</ele>
        <time>2012-03-04T11:51:58Z</time>
      </trkpt>
      <trkpt lat="43.53298" lon="5.51091">
        <ele>280</ele>
        <time>2012-03-04T11:51:58Z</time>
      </trkpt>
      <trkpt lat="43.53298" lon="5.51091">
        <ele>281</ele>
        <time>2012-03-04T11:52:08Z</time>
      </trkpt>
      <trkpt lat="43.53294" lon="5.51095">
        <ele>281</ele>
        <time>2012-03-04T11:52:31Z</time>
      </trkpt>
      <trkpt lat="43.53297" lon="5.51102">
        <ele>282</ele>
        <time>2012-03-04T11:52:35Z</time>
      </trkpt>
      <trkpt lat="43.533" lon="5.5111">
        <ele>283</ele>
        <time>2012-03-04T11:52:38Z</time>
      </trkpt>
      <trkpt lat="43.53302" lon="5.51117">
        <ele>283</ele>
        <time>2012-03-04T11:52:41Z</time>
      </trkpt>
      <trkpt lat="43.53305" lon="5.51123">
        <ele>284</ele>
        <time>2012-03-04T11:52:44Z</time>
      </trkpt>
      <trkpt lat="43.53307" lon="5.5113">
        <ele>284</ele>
        <time>2012-03-04T11:52:47Z</time>
      </trkpt>
      <trkpt lat="43.53309" lon="5.51136">
        <ele>284</ele>
        <time>2012-03-04T11:52:49Z</time>
      </trkpt>
      <trkpt lat="43.53311" lon="5.51142">
        <ele>285</ele>
        <time>2012-03-04T11:52:52Z</time>
      </trkpt>
      <trkpt lat="43.53313" lon="5.51151">
        <ele>285</ele>
        <time>2012-03-04T11:52:56Z</time>
      </trkpt>
      <trkpt lat="43.53313" lon="5.5116">
        <ele>286</ele>
        <time>2012-03-04T11:52:59Z</time>
      </trkpt>
      <trkpt lat="43.53313" lon="5.51166">
        <ele>286</ele>
        <time>2012-03-04T11:53:02Z</time>
      </trkpt>
      <trkpt lat="43.53312" lon="5.51172">
        <ele>286</ele>
        <time>2012-03-04T11:53:04Z</time>
      </trkpt>
      <trkpt lat="43.53309" lon="5.51179">
        <ele>287</ele>
        <time>2012-03-04T11:53:07Z</time>
      </trkpt>
      <trkpt lat="43.53304" lon="5.51183">
        <ele>287</ele>
        <time>2012-03-04T11:53:10Z</time>
      </trkpt>
      <trkpt lat="43.53298" lon="5.51183">
        <ele>287</ele>
        <time>2012-03-04T11:53:13Z</time>
      </trkpt>
      <trkpt lat="43.53293" lon="5.51183">
        <ele>288</ele>
        <time>2012-03-04T11:53:15Z</time>
      </trkpt>
      <trkpt lat="43.53287" lon="5.51179">
        <ele>288</ele>
        <time>2012-03-04T11:53:18Z</time>
      </trkpt>
      <trkpt lat="43.53283" lon="5.51177">
        <ele>289</ele>
        <time>2012-03-04T11:53:21Z</time>
      </trkpt>
      <trkpt lat="43.53281" lon="5.5117">
        <ele>290</ele>
        <time>2012-03-04T11:53:37Z</time>
      </trkpt>
      <trkpt lat="43.53281" lon="5.5117">
        <ele>290</ele>
        <time>2012-03-04T11:53:37Z</time>
      </trkpt>
      <trkpt lat="43.53281" lon="5.5117">
        <ele>290</ele>
        <time>2012-03-04T11:54:03Z</time>
      </trkpt>
      <trkpt lat="43.53277" lon="5.51168">
        <ele>291</ele>
        <time>2012-03-04T11:54:32Z</time>
      </trkpt>
      <trkpt lat="43.53272" lon="5.5116">
        <ele>291</ele>
        <time>2012-03-04T11:54:35Z</time>
      </trkpt>
      <trkpt lat="43.53268" lon="5.51151">
        <ele>291</ele>
        <time>2012-03-04T11:54:38Z</time>
      </trkpt>
      <trkpt lat="43.53263" lon="5.51144">
        <ele>292</ele>
        <time>2012-03-04T11:54:41Z</time>
      </trkpt>
      <trkpt lat="43.5326" lon="5.51138">
        <ele>292</ele>
        <time>2012-03-04T11:54:44Z</time>
      </trkpt>
      <trkpt lat="43.53255" lon="5.51134">
        <ele>292</ele>
        <time>2012-03-04T11:54:47Z</time>
      </trkpt>
      <trkpt lat="43.5325" lon="5.51134">
        <ele>292</ele>
        <time>2012-03-04T11:54:50Z</time>
      </trkpt>
      <trkpt lat="43.53244" lon="5.51136">
        <ele>293</ele>
        <time>2012-03-04T11:54:53Z</time>
      </trkpt>
      <trkpt lat="43.53239" lon="5.51136">
        <ele>293</ele>
        <time>2012-03-04T11:54:55Z</time>
      </trkpt>
      <trkpt lat="43.53232" lon="5.51136">
        <ele>293</ele>
        <time>2012-03-04T11:54:58Z</time>
      </trkpt>
      <trkpt lat="43.53225" lon="5.51134">
        <ele>293</ele>
        <time>2012-03-04T11:55:01Z</time>
      </trkpt>
      <trkpt lat="43.5322" lon="5.51134">
        <ele>294</ele>
        <time>2012-03-04T11:55:42Z</time>
      </trkpt>
      <trkpt lat="43.5322" lon="5.51134">
        <ele>294</ele>
        <time>2012-03-04T11:55:42Z</time>
      </trkpt>
      <trkpt lat="43.5322" lon="5.51134">
        <ele>294</ele>
        <time>2012-03-04T11:55:55Z</time>
      </trkpt>
      <trkpt lat="43.53216" lon="5.5113">
        <ele>295</ele>
        <time>2012-03-04T11:55:58Z</time>
      </trkpt>
      <trkpt lat="43.53211" lon="5.51125">
        <ele>295</ele>
        <time>2012-03-04T11:56:01Z</time>
      </trkpt>
      <trkpt lat="43.53207" lon="5.51121">
        <ele>295</ele>
        <time>2012-03-04T11:56:04Z</time>
      </trkpt>
      <trkpt lat="43.53202" lon="5.51117">
        <ele>296</ele>
        <time>2012-03-04T11:56:08Z</time>
      </trkpt>
      <trkpt lat="43.53203" lon="5.5111">
        <ele>296</ele>
        <time>2012-03-04T11:56:25Z</time>
      </trkpt>
      <trkpt lat="43.53203" lon="5.5111">
        <ele>296</ele>
        <time>2012-03-04T11:56:25Z</time>
      </trkpt>
      <trkpt lat="43.53203" lon="5.5111">
        <ele>296</ele>
        <time>2012-03-04T11:56:27Z</time>
      </trkpt>
      <trkpt lat="43.532" lon="5.51104">
        <ele>296</ele>
        <time>2012-03-04T11:56:51Z</time>
      </trkpt>
      <trkpt lat="43.532" lon="5.51104">
        <ele>296</ele>
        <time>2012-03-04T11:56:51Z</time>
      </trkpt>
      <trkpt lat="43.532" lon="5.51104">
        <ele>296</ele>
        <time>2012-03-04T11:56:52Z</time>
      </trkpt>
      <trkpt lat="43.53196" lon="5.511">
        <ele>296</ele>
        <time>2012-03-04T11:57:11Z</time>
      </trkpt>
      <trkpt lat="43.53196" lon="5.511">
        <ele>296</ele>
        <time>2012-03-04T11:57:11Z</time>
      </trkpt>
      <trkpt lat="43.53196" lon="5.511">
        <ele>296</ele>
        <time>2012-03-04T11:57:12Z</time>
      </trkpt>
      <trkpt lat="43.53192" lon="5.51093">
        <ele>295</ele>
        <time>2012-03-04T11:57:38Z</time>
      </trkpt>
      <trkpt lat="43.53192" lon="5.51093">
        <ele>295</ele>
        <time>2012-03-04T11:57:38Z</time>
      </trkpt>
      <trkpt lat="43.53192" lon="5.51093">
        <ele>295</ele>
        <time>2012-03-04T11:57:42Z</time>
      </trkpt>
      <trkpt lat="43.53189" lon="5.51087">
        <ele>295</ele>
        <time>2012-03-04T11:57:51Z</time>
      </trkpt>
      <trkpt lat="43.53188" lon="5.5108">
        <ele>295</ele>
        <time>2012-03-04T11:58:01Z</time>
      </trkpt>
      <trkpt lat="43.53186" lon="5.51074">
        <ele>295</ele>
        <time>2012-03-04T11:58:06Z</time>
      </trkpt>
      <trkpt lat="43.53186" lon="5.51074">
        <ele>295</ele>
        <time>2012-03-04T11:58:06Z</time>
      </trkpt>
      <trkpt lat="43.53186" lon="5.51074">
        <ele>295</ele>
        <time>2012-03-04T11:58:07Z</time>
      </trkpt>
      <trkpt lat="43.53181" lon="5.51069">
        <ele>295</ele>
        <time>2012-03-04T11:58:12Z</time>
      </trkpt>
      <trkpt lat="43.53176" lon="5.51069">
        <ele>295</ele>
        <time>2012-03-04T11:58:19Z</time>
      </trkpt>
      <trkpt lat="43.5317" lon="5.51069">
        <ele>295</ele>
        <time>2012-03-04T11:58:27Z</time>
      </trkpt>
      <trkpt lat="43.5317" lon="5.51069">
        <ele>295</ele>
        <time>2012-03-04T11:58:27Z</time>
      </trkpt>
      <trkpt lat="43.5317" lon="5.51069">
        <ele>295</ele>
        <time>2012-03-04T11:58:28Z</time>
      </trkpt>
      <trkpt lat="43.53166" lon="5.51072">
        <ele>296</ele>
        <time>2012-03-04T11:58:33Z</time>
      </trkpt>
      <trkpt lat="43.53163" lon="5.51078">
        <ele>296</ele>
        <time>2012-03-04T11:58:41Z</time>
      </trkpt>
      <trkpt lat="43.53163" lon="5.51078">
        <ele>296</ele>
        <time>2012-03-04T11:58:41Z</time>
      </trkpt>
      <trkpt lat="43.53163" lon="5.51078">
        <ele>297</ele>
        <time>2012-03-04T11:58:42Z</time>
      </trkpt>
      <trkpt lat="43.53162" lon="5.51084">
        <ele>297</ele>
        <time>2012-03-04T11:58:47Z</time>
      </trkpt>
      <trkpt lat="43.53162" lon="5.51084">
        <ele>297</ele>
        <time>2012-03-04T11:58:47Z</time>
      </trkpt>
      <trkpt lat="43.53162" lon="5.51084">
        <ele>297</ele>
        <time>2012-03-04T11:58:48Z</time>
      </trkpt>
      <trkpt lat="43.53161" lon="5.51091">
        <ele>298</ele>
        <time>2012-03-04T11:59:09Z</time>
      </trkpt>
      <trkpt lat="43.53161" lon="5.51091">
        <ele>298</ele>
        <time>2012-03-04T11:59:09Z</time>
      </trkpt>
      <trkpt lat="43.53161" lon="5.51091">
        <ele>298</ele>
        <time>2012-03-04T11:59:11Z</time>
      </trkpt>
      <trkpt lat="43.53156" lon="5.51097">
        <ele>299</ele>
        <time>2012-03-04T11:59:19Z</time>
      </trkpt>
      <trkpt lat="43.53156" lon="5.51097">
        <ele>299</ele>
        <time>2012-03-04T11:59:19Z</time>
      </trkpt>
      <trkpt lat="43.53156" lon="5.51097">
        <ele>300</ele>
        <time>2012-03-04T11:59:47Z</time>
      </trkpt>
      <trkpt lat="43.53152" lon="5.51102">
        <ele>304</ele>
        <time>2012-03-04T12:01:41Z</time>
      </trkpt>
      <trkpt lat="43.53148" lon="5.51106">
        <ele>305</ele>
        <time>2012-03-04T12:01:44Z</time>
      </trkpt>
      <trkpt lat="43.53145" lon="5.51112">
        <ele>305</ele>
        <time>2012-03-04T12:01:47Z</time>
      </trkpt>
      <trkpt lat="43.53143" lon="5.51119">
        <ele>306</ele>
        <time>2012-03-04T12:01:50Z</time>
      </trkpt>
      <trkpt lat="43.5314" lon="5.51125">
        <ele>307</ele>
        <time>2012-03-04T12:01:53Z</time>
      </trkpt>
      <trkpt lat="43.53138" lon="5.51132">
        <ele>307</ele>
        <time>2012-03-04T12:01:55Z</time>
      </trkpt>
      <trkpt lat="43.53137" lon="5.51138">
        <ele>308</ele>
        <time>2012-03-04T12:01:57Z</time>
      </trkpt>
      <trkpt lat="43.53137" lon="5.51144">
        <ele>308</ele>
        <time>2012-03-04T12:02:00Z</time>
      </trkpt>
      <trkpt lat="43.53139" lon="5.51151">
        <ele>309</ele>
        <time>2012-03-04T12:02:02Z</time>
      </trkpt>
      <trkpt lat="43.53143" lon="5.51157">
        <ele>309</ele>
        <time>2012-03-04T12:02:05Z</time>
      </trkpt>
      <trkpt lat="43.53144" lon="5.51164">
        <ele>310</ele>
        <time>2012-03-04T12:02:07Z</time>
      </trkpt>
      <trkpt lat="43.53146" lon="5.5117">
        <ele>310</ele>
        <time>2012-03-04T12:02:10Z</time>
      </trkpt>
      <trkpt lat="43.53148" lon="5.51177">
        <ele>310</ele>
        <time>2012-03-04T12:02:12Z</time>
      </trkpt>
      <trkpt lat="43.53149" lon="5.51183">
        <ele>311</ele>
        <time>2012-03-04T12:02:15Z</time>
      </trkpt>
      <trkpt lat="43.53149" lon="5.5119">
        <ele>311</ele>
        <time>2012-03-04T12:02:17Z</time>
      </trkpt>
      <trkpt lat="43.53148" lon="5.51196">
        <ele>312</ele>
        <time>2012-03-04T12:02:20Z</time>
      </trkpt>
      <trkpt lat="43.53147" lon="5.51202">
        <ele>312</ele>
        <time>2012-03-04T12:02:22Z</time>
      </trkpt>
      <trkpt lat="43.53145" lon="5.51209">
        <ele>313</ele>
        <time>2012-03-04T12:02:25Z</time>
      </trkpt>
      <trkpt lat="43.53144" lon="5.51215">
        <ele>313</ele>
        <time>2012-03-04T12:02:28Z</time>
      </trkpt>
      <trkpt lat="43.53143" lon="5.51222">
        <ele>314</ele>
        <time>2012-03-04T12:02:31Z</time>
      </trkpt>
      <trkpt lat="43.5314" lon="5.51228">
        <ele>315</ele>
        <time>2012-03-04T12:02:34Z</time>
      </trkpt>
      <trkpt lat="43.53139" lon="5.51235">
        <ele>315</ele>
        <time>2012-03-04T12:02:37Z</time>
      </trkpt>
      <trkpt lat="43.53137" lon="5.51241">
        <ele>316</ele>
        <time>2012-03-04T12:02:41Z</time>
      </trkpt>
      <trkpt lat="43.53136" lon="5.51248">
        <ele>317</ele>
        <time>2012-03-04T12:02:44Z</time>
      </trkpt>
      <trkpt lat="43.53136" lon="5.51248">
        <ele>317</ele>
        <time>2012-03-04T12:02:44Z</time>
      </trkpt>
      <trkpt lat="43.53136" lon="5.51248">
        <ele>317</ele>
        <time>2012-03-04T12:02:45Z</time>
      </trkpt>
      <trkpt lat="43.53135" lon="5.51254">
        <ele>318</ele>
        <time>2012-03-04T12:02:48Z</time>
      </trkpt>
      <trkpt lat="43.53134" lon="5.5126">
        <ele>318</ele>
        <time>2012-03-04T12:02:51Z</time>
      </trkpt>
      <trkpt lat="43.53132" lon="5.51267">
        <ele>319</ele>
        <time>2012-03-04T12:02:54Z</time>
      </trkpt>
      <trkpt lat="43.5313" lon="5.51273">
        <ele>320</ele>
        <time>2012-03-04T12:02:57Z</time>
      </trkpt>
      <trkpt lat="43.53128" lon="5.5128">
        <ele>320</ele>
        <time>2012-03-04T12:03:00Z</time>
      </trkpt>
      <trkpt lat="43.53126" lon="5.51286">
        <ele>321</ele>
        <time>2012-03-04T12:03:03Z</time>
      </trkpt>
      <trkpt lat="43.53124" lon="5.51293">
        <ele>321</ele>
        <time>2012-03-04T12:03:07Z</time>
      </trkpt>
      <trkpt lat="43.53123" lon="5.51301">
        <ele>322</ele>
        <time>2012-03-04T12:03:10Z</time>
      </trkpt>
      <trkpt lat="43.53122" lon="5.51308">
        <ele>322</ele>
        <time>2012-03-04T12:03:13Z</time>
      </trkpt>
      <trkpt lat="43.53121" lon="5.51314">
        <ele>323</ele>
        <time>2012-03-04T12:03:15Z</time>
      </trkpt>
      <trkpt lat="43.5312" lon="5.5132">
        <ele>323</ele>
        <time>2012-03-04T12:03:18Z</time>
      </trkpt>
      <trkpt lat="43.53119" lon="5.51327">
        <ele>324</ele>
        <time>2012-03-04T12:03:21Z</time>
      </trkpt>
      <trkpt lat="43.53118" lon="5.51333">
        <ele>325</ele>
        <time>2012-03-04T12:03:24Z</time>
      </trkpt>
      <trkpt lat="43.53117" lon="5.5134">
        <ele>325</ele>
        <time>2012-03-04T12:03:27Z</time>
      </trkpt>
      <trkpt lat="43.53116" lon="5.51346">
        <ele>326</ele>
        <time>2012-03-04T12:03:30Z</time>
      </trkpt>
      <trkpt lat="43.53114" lon="5.51353">
        <ele>326</ele>
        <time>2012-03-04T12:03:33Z</time>
      </trkpt>
      <trkpt lat="43.53112" lon="5.51359">
        <ele>327</ele>
        <time>2012-03-04T12:03:37Z</time>
      </trkpt>
      <trkpt lat="43.53108" lon="5.51363">
        <ele>328</ele>
        <time>2012-03-04T12:03:40Z</time>
      </trkpt>
      <trkpt lat="43.53103" lon="5.51368">
        <ele>328</ele>
        <time>2012-03-04T12:03:44Z</time>
      </trkpt>
      <trkpt lat="43.53098" lon="5.51368">
        <ele>330</ele>
        <time>2012-03-04T12:03:54Z</time>
      </trkpt>
      <trkpt lat="43.53098" lon="5.51368">
        <ele>330</ele>
        <time>2012-03-04T12:03:54Z</time>
      </trkpt>
      <trkpt lat="43.53098" lon="5.51368">
        <ele>331</ele>
        <time>2012-03-04T12:04:05Z</time>
      </trkpt>
      <trkpt lat="43.53101" lon="5.51372">
        <ele>334</ele>
        <time>2012-03-04T12:04:31Z</time>
      </trkpt>
      <trkpt lat="43.53101" lon="5.51372">
        <ele>334</ele>
        <time>2012-03-04T12:04:31Z</time>
      </trkpt>
      <trkpt lat="43.53101" lon="5.51372">
        <ele>334</ele>
        <time>2012-03-04T12:04:32Z</time>
      </trkpt>
      <trkpt lat="43.53105" lon="5.51374">
        <ele>334</ele>
        <time>2012-03-04T12:04:53Z</time>
      </trkpt>
      <trkpt lat="43.53105" lon="5.51374">
        <ele>334</ele>
        <time>2012-03-04T12:04:53Z</time>
      </trkpt>
      <trkpt lat="43.53105" lon="5.51374">
        <ele>334</ele>
        <time>2012-03-04T12:04:54Z</time>
      </trkpt>
      <trkpt lat="43.53103" lon="5.51368">
        <ele>336</ele>
        <time>2012-03-04T12:07:04Z</time>
      </trkpt>
      <trkpt lat="43.53103" lon="5.51368">
        <ele>336</ele>
        <time>2012-03-04T12:07:04Z</time>
      </trkpt>
      <trkpt lat="43.53103" lon="5.51368">
        <ele>336</ele>
        <time>2012-03-04T12:07:06Z</time>
      </trkpt>
      <trkpt lat="43.53099" lon="5.51366">
        <ele>337</ele>
        <time>2012-03-04T12:07:11Z</time>
      </trkpt>
      <trkpt lat="43.53093" lon="5.51366">
        <ele>338</ele>
        <time>2012-03-04T12:07:16Z</time>
      </trkpt>
      <trkpt lat="43.53089" lon="5.51363">
        <ele>338</ele>
        <time>2012-03-04T12:07:18Z</time>
      </trkpt>
      <trkpt lat="43.53085" lon="5.51366">
        <ele>338</ele>
        <time>2012-03-04T12:07:20Z</time>
      </trkpt>
      <trkpt lat="43.53079" lon="5.51368">
        <ele>338</ele>
        <time>2012-03-04T12:07:22Z</time>
      </trkpt>
      <trkpt lat="43.53072" lon="5.51368">
        <ele>339</ele>
        <time>2012-03-04T12:07:24Z</time>
      </trkpt>
      <trkpt lat="43.53063" lon="5.5137">
        <ele>339</ele>
        <time>2012-03-04T12:07:26Z</time>
      </trkpt>
      <trkpt lat="43.53058" lon="5.5137">
        <ele>340</ele>
        <time>2012-03-04T12:07:27Z</time>
      </trkpt>
      <trkpt lat="43.53052" lon="5.5137">
        <ele>340</ele>
        <time>2012-03-04T12:07:28Z</time>
      </trkpt>
      <trkpt lat="43.53047" lon="5.5137">
        <ele>340</ele>
        <time>2012-03-04T12:07:29Z</time>
      </trkpt>
      <trkpt lat="43.53041" lon="5.5137">
        <ele>340</ele>
        <time>2012-03-04T12:07:30Z</time>
      </trkpt>
      <trkpt lat="43.53035" lon="5.5137">
        <ele>340</ele>
        <time>2012-03-04T12:07:31Z</time>
      </trkpt>
      <trkpt lat="43.53029" lon="5.5137">
        <ele>340</ele>
        <time>2012-03-04T12:07:32Z</time>
      </trkpt>
      <trkpt lat="43.53024" lon="5.5137">
        <ele>340</ele>
        <time>2012-03-04T12:07:33Z</time>
      </trkpt>
      <trkpt lat="43.53018" lon="5.5137">
        <ele>340</ele>
        <time>2012-03-04T12:07:34Z</time>
      </trkpt>
      <trkpt lat="43.53014" lon="5.51372">
        <ele>339</ele>
        <time>2012-03-04T12:07:35Z</time>
      </trkpt>
      <trkpt lat="43.53008" lon="5.51374">
        <ele>339</ele>
        <time>2012-03-04T12:07:36Z</time>
      </trkpt>
      <trkpt lat="43.53001" lon="5.51378">
        <ele>339</ele>
        <time>2012-03-04T12:07:37Z</time>
      </trkpt>
      <trkpt lat="43.52993" lon="5.51383">
        <ele>338</ele>
        <time>2012-03-04T12:07:38Z</time>
      </trkpt>
      <trkpt lat="43.52987" lon="5.51387">
        <ele>337</ele>
        <time>2012-03-04T12:07:39Z</time>
      </trkpt>
      <trkpt lat="43.52978" lon="5.51391">
        <ele>337</ele>
        <time>2012-03-04T12:07:40Z</time>
      </trkpt>
      <trkpt lat="43.52971" lon="5.51394">
        <ele>337</ele>
        <time>2012-03-04T12:07:41Z</time>
      </trkpt>
      <trkpt lat="43.52964" lon="5.51396">
        <ele>336</ele>
        <time>2012-03-04T12:07:42Z</time>
      </trkpt>
      <trkpt lat="43.52959" lon="5.51398">
        <ele>336</ele>
        <time>2012-03-04T12:07:43Z</time>
      </trkpt>
      <trkpt lat="43.52953" lon="5.514">
        <ele>336</ele>
        <time>2012-03-04T12:07:44Z</time>
      </trkpt>
      <trkpt lat="43.52944" lon="5.51402">
        <ele>335</ele>
        <time>2012-03-04T12:07:46Z</time>
      </trkpt>
      <trkpt lat="43.52937" lon="5.51404">
        <ele>334</ele>
        <time>2012-03-04T12:07:48Z</time>
      </trkpt>
      <trkpt lat="43.52928" lon="5.51404">
        <ele>333</ele>
        <time>2012-03-04T12:07:50Z</time>
      </trkpt>
      <trkpt lat="43.52923" lon="5.51406">
        <ele>333</ele>
        <time>2012-03-04T12:07:52Z</time>
      </trkpt>
      <trkpt lat="43.52918" lon="5.51408">
        <ele>333</ele>
        <time>2012-03-04T12:07:54Z</time>
      </trkpt>
      <trkpt lat="43.52913" lon="5.51408">
        <ele>333</ele>
        <time>2012-03-04T12:07:57Z</time>
      </trkpt>
      <trkpt lat="43.52909" lon="5.51411">
        <ele>333</ele>
        <time>2012-03-04T12:07:59Z</time>
      </trkpt>
      <trkpt lat="43.52904" lon="5.51413">
        <ele>333</ele>
        <time>2012-03-04T12:08:01Z</time>
      </trkpt>
      <trkpt lat="43.52904" lon="5.51413">
        <ele>333</ele>
        <time>2012-03-04T12:08:01Z</time>
      </trkpt>
      <trkpt lat="43.52904" lon="5.51413">
        <ele>333</ele>
        <time>2012-03-04T12:08:02Z</time>
      </trkpt>
      <trkpt lat="43.529" lon="5.51415">
        <ele>333</ele>
        <time>2012-03-04T12:08:03Z</time>
      </trkpt>
      <trkpt lat="43.52896" lon="5.51417">
        <ele>333</ele>
        <time>2012-03-04T12:08:05Z</time>
      </trkpt>
      <trkpt lat="43.52896" lon="5.51417">
        <ele>333</ele>
        <time>2012-03-04T12:08:05Z</time>
      </trkpt>
      <trkpt lat="43.52896" lon="5.51417">
        <ele>333</ele>
        <time>2012-03-04T12:08:06Z</time>
      </trkpt>
      <trkpt lat="43.52892" lon="5.51421">
        <ele>333</ele>
        <time>2012-03-04T12:08:07Z</time>
      </trkpt>
      <trkpt lat="43.52886" lon="5.51426">
        <ele>333</ele>
        <time>2012-03-04T12:08:09Z</time>
      </trkpt>
      <trkpt lat="43.52879" lon="5.5143">
        <ele>333</ele>
        <time>2012-03-04T12:08:11Z</time>
      </trkpt>
      <trkpt lat="43.52872" lon="5.51432">
        <ele>333</ele>
        <time>2012-03-04T12:08:13Z</time>
      </trkpt>
      <trkpt lat="43.52867" lon="5.51434">
        <ele>333</ele>
        <time>2012-03-04T12:08:15Z</time>
      </trkpt>
      <trkpt lat="43.52862" lon="5.51434">
        <ele>334</ele>
        <time>2012-03-04T12:08:17Z</time>
      </trkpt>
      <trkpt lat="43.52857" lon="5.51436">
        <ele>334</ele>
        <time>2012-03-04T12:08:19Z</time>
      </trkpt>
      <trkpt lat="43.52853" lon="5.51434">
        <ele>334</ele>
        <time>2012-03-04T12:08:21Z</time>
      </trkpt>
      <trkpt lat="43.52846" lon="5.51434">
        <ele>334</ele>
        <time>2012-03-04T12:08:24Z</time>
      </trkpt>
      <trkpt lat="43.52841" lon="5.51434">
        <ele>334</ele>
        <time>2012-03-04T12:08:27Z</time>
      </trkpt>
      <trkpt lat="43.52837" lon="5.51432">
        <ele>335</ele>
        <time>2012-03-04T12:08:29Z</time>
      </trkpt>
      <trkpt lat="43.52831" lon="5.51432">
        <ele>335</ele>
        <time>2012-03-04T12:08:32Z</time>
      </trkpt>
      <trkpt lat="43.52826" lon="5.51432">
        <ele>335</ele>
        <time>2012-03-04T12:08:35Z</time>
      </trkpt>
      <trkpt lat="43.52821" lon="5.51434">
        <ele>336</ele>
        <time>2012-03-04T12:08:38Z</time>
      </trkpt>
      <trkpt lat="43.52815" lon="5.51436">
        <ele>336</ele>
        <time>2012-03-04T12:08:41Z</time>
      </trkpt>
      <trkpt lat="43.5281" lon="5.51438">
        <ele>336</ele>
        <time>2012-03-04T12:08:45Z</time>
      </trkpt>
      <trkpt lat="43.52805" lon="5.51438">
        <ele>337</ele>
        <time>2012-03-04T12:08:48Z</time>
      </trkpt>
      <trkpt lat="43.52799" lon="5.51441">
        <ele>337</ele>
        <time>2012-03-04T12:08:51Z</time>
      </trkpt>
      <trkpt lat="43.52794" lon="5.51443">
        <ele>338</ele>
        <time>2012-03-04T12:08:55Z</time>
      </trkpt>
      <trkpt lat="43.5279" lon="5.51445">
        <ele>338</ele>
        <time>2012-03-04T12:08:58Z</time>
      </trkpt>
      <trkpt lat="43.52785" lon="5.51447">
        <ele>338</ele>
        <time>2012-03-04T12:09:01Z</time>
      </trkpt>
      <trkpt lat="43.5278" lon="5.51454">
        <ele>339</ele>
        <time>2012-03-04T12:09:05Z</time>
      </trkpt>
      <trkpt lat="43.52776" lon="5.51456">
        <ele>339</ele>
        <time>2012-03-04T12:09:08Z</time>
      </trkpt>
      <trkpt lat="43.52769" lon="5.5146">
        <ele>339</ele>
        <time>2012-03-04T12:09:12Z</time>
      </trkpt>
      <trkpt lat="43.52764" lon="5.51462">
        <ele>340</ele>
        <time>2012-03-04T12:09:16Z</time>
      </trkpt>
      <trkpt lat="43.52758" lon="5.51464">
        <ele>340</ele>
        <time>2012-03-04T12:09:19Z</time>
      </trkpt>
      <trkpt lat="43.52753" lon="5.51466">
        <ele>341</ele>
        <time>2012-03-04T12:09:22Z</time>
      </trkpt>
      <trkpt lat="43.52748" lon="5.51469">
        <ele>341</ele>
        <time>2012-03-04T12:09:25Z</time>
      </trkpt>
      <trkpt lat="43.52742" lon="5.51473">
        <ele>341</ele>
        <time>2012-03-04T12:09:28Z</time>
      </trkpt>
      <trkpt lat="43.52738" lon="5.51475">
        <ele>342</ele>
        <time>2012-03-04T12:09:31Z</time>
      </trkpt>
      <trkpt lat="43.52735" lon="5.51481">
        <ele>342</ele>
        <time>2012-03-04T12:09:35Z</time>
      </trkpt>
      <trkpt lat="43.52733" lon="5.51488">
        <ele>342</ele>
        <time>2012-03-04T12:09:38Z</time>
      </trkpt>
      <trkpt lat="43.52733" lon="5.51494">
        <ele>343</ele>
        <time>2012-03-04T12:09:41Z</time>
      </trkpt>
      <trkpt lat="43.52731" lon="5.51501">
        <ele>343</ele>
        <time>2012-03-04T12:09:45Z</time>
      </trkpt>
      <trkpt lat="43.5273" lon="5.51507">
        <ele>344</ele>
        <time>2012-03-04T12:09:48Z</time>
      </trkpt>
      <trkpt lat="43.5273" lon="5.51514">
        <ele>344</ele>
        <time>2012-03-04T12:09:51Z</time>
      </trkpt>
      <trkpt lat="43.52731" lon="5.5152">
        <ele>345</ele>
        <time>2012-03-04T12:09:53Z</time>
      </trkpt>
      <trkpt lat="43.52732" lon="5.51526">
        <ele>345</ele>
        <time>2012-03-04T12:09:56Z</time>
      </trkpt>
      <trkpt lat="43.52733" lon="5.51533">
        <ele>346</ele>
        <time>2012-03-04T12:09:59Z</time>
      </trkpt>
      <trkpt lat="43.52735" lon="5.51539">
        <ele>347</ele>
        <time>2012-03-04T12:10:03Z</time>
      </trkpt>
      <trkpt lat="43.52735" lon="5.51546">
        <ele>347</ele>
        <time>2012-03-04T12:10:06Z</time>
      </trkpt>
      <trkpt lat="43.52735" lon="5.51546">
        <ele>347</ele>
        <time>2012-03-04T12:10:06Z</time>
      </trkpt>
      <trkpt lat="43.52735" lon="5.51546">
        <ele>347</ele>
        <time>2012-03-04T12:10:07Z</time>
      </trkpt>
      <trkpt lat="43.52736" lon="5.51552">
        <ele>348</ele>
        <time>2012-03-04T12:10:09Z</time>
      </trkpt>
      <trkpt lat="43.52736" lon="5.51561">
        <ele>349</ele>
        <time>2012-03-04T12:10:12Z</time>
      </trkpt>
      <trkpt lat="43.52735" lon="5.51567">
        <ele>349</ele>
        <time>2012-03-04T12:10:15Z</time>
      </trkpt>
      <trkpt lat="43.52735" lon="5.51574">
        <ele>350</ele>
        <time>2012-03-04T12:10:17Z</time>
      </trkpt>
      <trkpt lat="43.52735" lon="5.51582">
        <ele>350</ele>
        <time>2012-03-04T12:10:20Z</time>
      </trkpt>
      <trkpt lat="43.52735" lon="5.51589">
        <ele>351</ele>
        <time>2012-03-04T12:10:23Z</time>
      </trkpt>
      <trkpt lat="43.52735" lon="5.51597">
        <ele>351</ele>
        <time>2012-03-04T12:10:26Z</time>
      </trkpt>
      <trkpt lat="43.52736" lon="5.51604">
        <ele>352</ele>
        <time>2012-03-04T12:10:29Z</time>
      </trkpt>
      <trkpt lat="43.52737" lon="5.5161">
        <ele>352</ele>
        <time>2012-03-04T12:10:32Z</time>
      </trkpt>
      <trkpt lat="43.52738" lon="5.51617">
        <ele>353</ele>
        <time>2012-03-04T12:10:35Z</time>
      </trkpt>
      <trkpt lat="43.52739" lon="5.51625">
        <ele>353</ele>
        <time>2012-03-04T12:10:38Z</time>
      </trkpt>
      <trkpt lat="43.5274" lon="5.51632">
        <ele>353</ele>
        <time>2012-03-04T12:10:41Z</time>
      </trkpt>
      <trkpt lat="43.52741" lon="5.5164">
        <ele>354</ele>
        <time>2012-03-04T12:10:44Z</time>
      </trkpt>
      <trkpt lat="43.52741" lon="5.51647">
        <ele>354</ele>
        <time>2012-03-04T12:10:47Z</time>
      </trkpt>
      <trkpt lat="43.52741" lon="5.51653">
        <ele>354</ele>
        <time>2012-03-04T12:10:50Z</time>
      </trkpt>
      <trkpt lat="43.52741" lon="5.5166">
        <ele>355</ele>
        <time>2012-03-04T12:10:52Z</time>
      </trkpt>
      <trkpt lat="43.52739" lon="5.51666">
        <ele>355</ele>
        <time>2012-03-04T12:10:56Z</time>
      </trkpt>
      <trkpt lat="43.52735" lon="5.5167">
        <ele>356</ele>
        <time>2012-03-04T12:11:02Z</time>
      </trkpt>
      <trkpt lat="43.52735" lon="5.5167">
        <ele>356</ele>
        <time>2012-03-04T12:11:02Z</time>
      </trkpt>
      <trkpt lat="43.52735" lon="5.5167">
        <ele>356</ele>
        <time>2012-03-04T12:11:04Z</time>
      </trkpt>
      <trkpt lat="43.52734" lon="5.51677">
        <ele>356</ele>
        <time>2012-03-04T12:11:15Z</time>
      </trkpt>
      <trkpt lat="43.52734" lon="5.51677">
        <ele>356</ele>
        <time>2012-03-04T12:11:15Z</time>
      </trkpt>
      <trkpt lat="43.52734" lon="5.51677">
        <ele>356</ele>
        <time>2012-03-04T12:11:18Z</time>
      </trkpt>
      <trkpt lat="43.5273" lon="5.51681">
        <ele>358</ele>
        <time>2012-03-04T12:12:05Z</time>
      </trkpt>
      <trkpt lat="43.5273" lon="5.51681">
        <ele>358</ele>
        <time>2012-03-04T12:12:05Z</time>
      </trkpt>
      <trkpt lat="43.5273" lon="5.51681">
        <ele>358</ele>
        <time>2012-03-04T12:12:06Z</time>
      </trkpt>
      <trkpt lat="43.52725" lon="5.51679">
        <ele>358</ele>
        <time>2012-03-04T12:12:21Z</time>
      </trkpt>
      <trkpt lat="43.52727" lon="5.51685">
        <ele>360</ele>
        <time>2012-03-04T12:12:54Z</time>
      </trkpt>
      <trkpt lat="43.52727" lon="5.51692">
        <ele>361</ele>
        <time>2012-03-04T12:12:57Z</time>
      </trkpt>
      <trkpt lat="43.52726" lon="5.51698">
        <ele>362</ele>
        <time>2012-03-04T12:13:00Z</time>
      </trkpt>
      <trkpt lat="43.52725" lon="5.51705">
        <ele>362</ele>
        <time>2012-03-04T12:13:02Z</time>
      </trkpt>
      <trkpt lat="43.52725" lon="5.51713">
        <ele>363</ele>
        <time>2012-03-04T12:13:05Z</time>
      </trkpt>
      <trkpt lat="43.52725" lon="5.51722">
        <ele>364</ele>
        <time>2012-03-04T12:13:08Z</time>
      </trkpt>
      <trkpt lat="43.52724" lon="5.51728">
        <ele>364</ele>
        <time>2012-03-04T12:13:11Z</time>
      </trkpt>
      <trkpt lat="43.52724" lon="5.51735">
        <ele>365</ele>
        <time>2012-03-04T12:13:14Z</time>
      </trkpt>
      <trkpt lat="43.52723" lon="5.51741">
        <ele>366</ele>
        <time>2012-03-04T12:13:16Z</time>
      </trkpt>
      <trkpt lat="43.52722" lon="5.5175">
        <ele>366</ele>
        <time>2012-03-04T12:13:19Z</time>
      </trkpt>
      <trkpt lat="43.5272" lon="5.51756">
        <ele>367</ele>
        <time>2012-03-04T12:13:21Z</time>
      </trkpt>
      <trkpt lat="43.52719" lon="5.51762">
        <ele>367</ele>
        <time>2012-03-04T12:13:23Z</time>
      </trkpt>
      <trkpt lat="43.52718" lon="5.51769">
        <ele>368</ele>
        <time>2012-03-04T12:13:25Z</time>
      </trkpt>
      <trkpt lat="43.52717" lon="5.51778">
        <ele>368</ele>
        <time>2012-03-04T12:13:28Z</time>
      </trkpt>
      <trkpt lat="43.52716" lon="5.51786">
        <ele>369</ele>
        <time>2012-03-04T12:13:31Z</time>
      </trkpt>
      <trkpt lat="43.52714" lon="5.51793">
        <ele>369</ele>
        <time>2012-03-04T12:13:33Z</time>
      </trkpt>
      <trkpt lat="43.52713" lon="5.51799">
        <ele>370</ele>
        <time>2012-03-04T12:13:36Z</time>
      </trkpt>
      <trkpt lat="43.52713" lon="5.51805">
        <ele>370</ele>
        <time>2012-03-04T12:13:39Z</time>
      </trkpt>
      <trkpt lat="43.52713" lon="5.51812">
        <ele>371</ele>
        <time>2012-03-04T12:13:42Z</time>
      </trkpt>
      <trkpt lat="43.52714" lon="5.51818">
        <ele>371</ele>
        <time>2012-03-04T12:13:44Z</time>
      </trkpt>
      <trkpt lat="43.52716" lon="5.51825">
        <ele>372</ele>
        <time>2012-03-04T12:13:47Z</time>
      </trkpt>
      <trkpt lat="43.52716" lon="5.51831">
        <ele>372</ele>
        <time>2012-03-04T12:13:50Z</time>
      </trkpt>
      <trkpt lat="43.52717" lon="5.51838">
        <ele>373</ele>
        <time>2012-03-04T12:13:53Z</time>
      </trkpt>
      <trkpt lat="43.52717" lon="5.51844">
        <ele>373</ele>
        <time>2012-03-04T12:13:55Z</time>
      </trkpt>
      <trkpt lat="43.52716" lon="5.5185">
        <ele>373</ele>
        <time>2012-03-04T12:13:58Z</time>
      </trkpt>
      <trkpt lat="43.52712" lon="5.51857">
        <ele>374</ele>
        <time>2012-03-04T12:14:01Z</time>
      </trkpt>
      <trkpt lat="43.52709" lon="5.51863">
        <ele>374</ele>
        <time>2012-03-04T12:14:04Z</time>
      </trkpt>
      <trkpt lat="43.52707" lon="5.5187">
        <ele>374</ele>
        <time>2012-03-04T12:14:07Z</time>
      </trkpt>
      <trkpt lat="43.52702" lon="5.51876">
        <ele>375</ele>
        <time>2012-03-04T12:14:10Z</time>
      </trkpt>
      <trkpt lat="43.52697" lon="5.51883">
        <ele>375</ele>
        <time>2012-03-04T12:14:12Z</time>
      </trkpt>
      <trkpt lat="43.52693" lon="5.51891">
        <ele>375</ele>
        <time>2012-03-04T12:14:15Z</time>
      </trkpt>
      <trkpt lat="43.5269" lon="5.519">
        <ele>376</ele>
        <time>2012-03-04T12:14:18Z</time>
      </trkpt>
      <trkpt lat="43.52688" lon="5.51908">
        <ele>376</ele>
        <time>2012-03-04T12:14:21Z</time>
      </trkpt>
      <trkpt lat="43.52686" lon="5.51915">
        <ele>377</ele>
        <time>2012-03-04T12:14:24Z</time>
      </trkpt>
      <trkpt lat="43.52686" lon="5.51921">
        <ele>377</ele>
        <time>2012-03-04T12:14:26Z</time>
      </trkpt>
      <trkpt lat="43.52684" lon="5.51928">
        <ele>377</ele>
        <time>2012-03-04T12:14:28Z</time>
      </trkpt>
      <trkpt lat="43.52684" lon="5.51934">
        <ele>377</ele>
        <time>2012-03-04T12:14:30Z</time>
      </trkpt>
      <trkpt lat="43.52684" lon="5.51941">
        <ele>377</ele>
        <time>2012-03-04T12:14:32Z</time>
      </trkpt>
      <trkpt lat="43.52686" lon="5.51947">
        <ele>377</ele>
        <time>2012-03-04T12:14:34Z</time>
      </trkpt>
      <trkpt lat="43.52686" lon="5.51956">
        <ele>378</ele>
        <time>2012-03-04T12:14:36Z</time>
      </trkpt>
      <trkpt lat="43.52687" lon="5.51962">
        <ele>378</ele>
        <time>2012-03-04T12:14:38Z</time>
      </trkpt>
      <trkpt lat="43.52688" lon="5.51968">
        <ele>378</ele>
        <time>2012-03-04T12:14:40Z</time>
      </trkpt>
      <trkpt lat="43.52689" lon="5.51975">
        <ele>378</ele>
        <time>2012-03-04T12:14:42Z</time>
      </trkpt>
      <trkpt lat="43.5269" lon="5.51981">
        <ele>378</ele>
        <time>2012-03-04T12:14:45Z</time>
      </trkpt>
      <trkpt lat="43.52691" lon="5.51988">
        <ele>378</ele>
        <time>2012-03-04T12:14:47Z</time>
      </trkpt>
      <trkpt lat="43.52692" lon="5.51994">
        <ele>378</ele>
        <time>2012-03-04T12:14:49Z</time>
      </trkpt>
      <trkpt lat="43.52692" lon="5.52001">
        <ele>378</ele>
        <time>2012-03-04T12:14:51Z</time>
      </trkpt>
      <trkpt lat="43.52693" lon="5.52007">
        <ele>379</ele>
        <time>2012-03-04T12:14:53Z</time>
      </trkpt>
      <trkpt lat="43.52693" lon="5.52014">
        <ele>379</ele>
        <time>2012-03-04T12:14:55Z</time>
      </trkpt>
      <trkpt lat="43.52694" lon="5.5202">
        <ele>379</ele>
        <time>2012-03-04T12:14:57Z</time>
      </trkpt>
      <trkpt lat="43.52694" lon="5.52029">
        <ele>379</ele>
        <time>2012-03-04T12:15:00Z</time>
      </trkpt>
      <trkpt lat="43.52694" lon="5.52037">
        <ele>379</ele>
        <time>2012-03-04T12:15:03Z</time>
      </trkpt>
      <trkpt lat="43.52694" lon="5.52044">
        <ele>380</ele>
        <time>2012-03-04T12:15:05Z</time>
      </trkpt>
      <trkpt lat="43.52695" lon="5.52052">
        <ele>380</ele>
        <time>2012-03-04T12:15:08Z</time>
      </trkpt>
      <trkpt lat="43.52696" lon="5.52059">
        <ele>380</ele>
        <time>2012-03-04T12:15:10Z</time>
      </trkpt>
      <trkpt lat="43.52697" lon="5.52067">
        <ele>381</ele>
        <time>2012-03-04T12:15:13Z</time>
      </trkpt>
      <trkpt lat="43.52697" lon="5.52074">
        <ele>381</ele>
        <time>2012-03-04T12:15:15Z</time>
      </trkpt>
      <trkpt lat="43.52698" lon="5.5208">
        <ele>381</ele>
        <time>2012-03-04T12:15:17Z</time>
      </trkpt>
      <trkpt lat="43.527" lon="5.52089">
        <ele>381</ele>
        <time>2012-03-04T12:15:19Z</time>
      </trkpt>
      <trkpt lat="43.527" lon="5.52099">
        <ele>381</ele>
        <time>2012-03-04T12:15:21Z</time>
      </trkpt>
      <trkpt lat="43.52702" lon="5.5211">
        <ele>381</ele>
        <time>2012-03-04T12:15:23Z</time>
      </trkpt>
      <trkpt lat="43.52704" lon="5.52119">
        <ele>382</ele>
        <time>2012-03-04T12:15:25Z</time>
      </trkpt>
      <trkpt lat="43.52705" lon="5.52127">
        <ele>382</ele>
        <time>2012-03-04T12:15:27Z</time>
      </trkpt>
      <trkpt lat="43.52707" lon="5.52136">
        <ele>382</ele>
        <time>2012-03-04T12:15:30Z</time>
      </trkpt>
      <trkpt lat="43.52708" lon="5.52144">
        <ele>382</ele>
        <time>2012-03-04T12:15:33Z</time>
      </trkpt>
      <trkpt lat="43.52709" lon="5.52151">
        <ele>382</ele>
        <time>2012-03-04T12:15:35Z</time>
      </trkpt>
      <trkpt lat="43.5271" lon="5.5216">
        <ele>382</ele>
        <time>2012-03-04T12:15:38Z</time>
      </trkpt>
      <trkpt lat="43.52711" lon="5.52166">
        <ele>382</ele>
        <time>2012-03-04T12:15:40Z</time>
      </trkpt>
      <trkpt lat="43.52712" lon="5.52172">
        <ele>382</ele>
        <time>2012-03-04T12:15:43Z</time>
      </trkpt>
      <trkpt lat="43.52713" lon="5.52179">
        <ele>382</ele>
        <time>2012-03-04T12:15:45Z</time>
      </trkpt>
      <trkpt lat="43.52714" lon="5.52185">
        <ele>382</ele>
        <time>2012-03-04T12:15:47Z</time>
      </trkpt>
      <trkpt lat="43.52716" lon="5.52194">
        <ele>382</ele>
        <time>2012-03-04T12:15:50Z</time>
      </trkpt>
      <trkpt lat="43.52717" lon="5.52202">
        <ele>382</ele>
        <time>2012-03-04T12:15:53Z</time>
      </trkpt>
      <trkpt lat="43.52717" lon="5.52211">
        <ele>382</ele>
        <time>2012-03-04T12:15:56Z</time>
      </trkpt>
      <trkpt lat="43.52718" lon="5.52217">
        <ele>382</ele>
        <time>2012-03-04T12:15:59Z</time>
      </trkpt>
      <trkpt lat="43.5272" lon="5.52224">
        <ele>382</ele>
        <time>2012-03-04T12:16:02Z</time>
      </trkpt>
      <trkpt lat="43.52721" lon="5.5223">
        <ele>383</ele>
        <time>2012-03-04T12:16:05Z</time>
      </trkpt>
      <trkpt lat="43.52724" lon="5.52237">
        <ele>383</ele>
        <time>2012-03-04T12:16:08Z</time>
      </trkpt>
      <trkpt lat="43.52727" lon="5.52243">
        <ele>383</ele>
        <time>2012-03-04T12:16:10Z</time>
      </trkpt>
      <trkpt lat="43.52732" lon="5.52252">
        <ele>383</ele>
        <time>2012-03-04T12:16:12Z</time>
      </trkpt>
      <trkpt lat="43.52738" lon="5.52262">
        <ele>383</ele>
        <time>2012-03-04T12:16:14Z</time>
      </trkpt>
      <trkpt lat="43.52741" lon="5.52269">
        <ele>383</ele>
        <time>2012-03-04T12:16:15Z</time>
      </trkpt>
      <trkpt lat="43.52746" lon="5.52275">
        <ele>383</ele>
        <time>2012-03-04T12:16:16Z</time>
      </trkpt>
      <trkpt lat="43.5275" lon="5.52282">
        <ele>383</ele>
        <time>2012-03-04T12:16:17Z</time>
      </trkpt>
      <trkpt lat="43.52754" lon="5.52286">
        <ele>383</ele>
        <time>2012-03-04T12:16:18Z</time>
      </trkpt>
      <trkpt lat="43.52758" lon="5.52292">
        <ele>383</ele>
        <time>2012-03-04T12:16:19Z</time>
      </trkpt>
      <trkpt lat="43.52763" lon="5.52297">
        <ele>383</ele>
        <time>2012-03-04T12:16:20Z</time>
      </trkpt>
      <trkpt lat="43.52766" lon="5.52301">
        <ele>382</ele>
        <time>2012-03-04T12:16:21Z</time>
      </trkpt>
      <trkpt lat="43.5277" lon="5.52305">
        <ele>382</ele>
        <time>2012-03-04T12:16:22Z</time>
      </trkpt>
      <trkpt lat="43.52775" lon="5.5231">
        <ele>382</ele>
        <time>2012-03-04T12:16:23Z</time>
      </trkpt>
      <trkpt lat="43.52782" lon="5.52316">
        <ele>382</ele>
        <time>2012-03-04T12:16:25Z</time>
      </trkpt>
      <trkpt lat="43.52785" lon="5.5232">
        <ele>382</ele>
        <time>2012-03-04T12:16:26Z</time>
      </trkpt>
      <trkpt lat="43.52788" lon="5.52325">
        <ele>382</ele>
        <time>2012-03-04T12:16:27Z</time>
      </trkpt>
      <trkpt lat="43.52792" lon="5.52329">
        <ele>381</ele>
        <time>2012-03-04T12:16:28Z</time>
      </trkpt>
      <trkpt lat="43.52796" lon="5.5234">
        <ele>381</ele>
        <time>2012-03-04T12:16:30Z</time>
      </trkpt>
      <trkpt lat="43.528" lon="5.52348">
        <ele>381</ele>
        <time>2012-03-04T12:16:32Z</time>
      </trkpt>
      <trkpt lat="43.52802" lon="5.52357">
        <ele>381</ele>
        <time>2012-03-04T12:16:34Z</time>
      </trkpt>
      <trkpt lat="43.52804" lon="5.52366">
        <ele>381</ele>
        <time>2012-03-04T12:16:36Z</time>
      </trkpt>
      <trkpt lat="43.52806" lon="5.52374">
        <ele>381</ele>
        <time>2012-03-04T12:16:38Z</time>
      </trkpt>
      <trkpt lat="43.52808" lon="5.5238">
        <ele>381</ele>
        <time>2012-03-04T12:16:40Z</time>
      </trkpt>
      <trkpt lat="43.52811" lon="5.52389">
        <ele>381</ele>
        <time>2012-03-04T12:16:42Z</time>
      </trkpt>
      <trkpt lat="43.52814" lon="5.52396">
        <ele>381</ele>
        <time>2012-03-04T12:16:44Z</time>
      </trkpt>
      <trkpt lat="43.52818" lon="5.52402">
        <ele>381</ele>
        <time>2012-03-04T12:16:46Z</time>
      </trkpt>
      <trkpt lat="43.52822" lon="5.52408">
        <ele>381</ele>
        <time>2012-03-04T12:16:48Z</time>
      </trkpt>
      <trkpt lat="43.52825" lon="5.52415">
        <ele>381</ele>
        <time>2012-03-04T12:16:50Z</time>
      </trkpt>
      <trkpt lat="43.52827" lon="5.52423">
        <ele>381</ele>
        <time>2012-03-04T12:16:53Z</time>
      </trkpt>
      <trkpt lat="43.52827" lon="5.5243">
        <ele>381</ele>
        <time>2012-03-04T12:16:55Z</time>
      </trkpt>
      <trkpt lat="43.52826" lon="5.52436">
        <ele>381</ele>
        <time>2012-03-04T12:16:57Z</time>
      </trkpt>
      <trkpt lat="43.52819" lon="5.52451">
        <ele>379</ele>
        <time>2012-03-04T12:18:18Z</time>
      </trkpt>
      <trkpt lat="43.52819" lon="5.52451">
        <ele>379</ele>
        <time>2012-03-04T12:18:18Z</time>
      </trkpt>
      <trkpt lat="43.52819" lon="5.52451">
        <ele>379</ele>
        <time>2012-03-04T12:18:27Z</time>
      </trkpt>
      <trkpt lat="43.52813" lon="5.52451">
        <ele>378</ele>
        <time>2012-03-04T12:18:30Z</time>
      </trkpt>
      <trkpt lat="43.52808" lon="5.52447">
        <ele>377</ele>
        <time>2012-03-04T12:18:32Z</time>
      </trkpt>
      <trkpt lat="43.52802" lon="5.52438">
        <ele>377</ele>
        <time>2012-03-04T12:18:34Z</time>
      </trkpt>
      <trkpt lat="43.52797" lon="5.52434">
        <ele>377</ele>
        <time>2012-03-04T12:18:36Z</time>
      </trkpt>
      <trkpt lat="43.52792" lon="5.52426">
        <ele>375</ele>
        <time>2012-03-04T12:18:38Z</time>
      </trkpt>
      <trkpt lat="43.52787" lon="5.52421">
        <ele>374</ele>
        <time>2012-03-04T12:18:39Z</time>
      </trkpt>
      <trkpt lat="43.52782" lon="5.52417">
        <ele>372</ele>
        <time>2012-03-04T12:18:40Z</time>
      </trkpt>
      <trkpt lat="43.52777" lon="5.52413">
        <ele>371</ele>
        <time>2012-03-04T12:18:41Z</time>
      </trkpt>
      <trkpt lat="43.52772" lon="5.52406">
        <ele>370</ele>
        <time>2012-03-04T12:18:42Z</time>
      </trkpt>
      <trkpt lat="43.52766" lon="5.52402">
        <ele>370</ele>
        <time>2012-03-04T12:18:43Z</time>
      </trkpt>
      <trkpt lat="43.52761" lon="5.52396">
        <ele>369</ele>
        <time>2012-03-04T12:18:44Z</time>
      </trkpt>
      <trkpt lat="43.52755" lon="5.52389">
        <ele>369</ele>
        <time>2012-03-04T12:18:45Z</time>
      </trkpt>
      <trkpt lat="43.5275" lon="5.52383">
        <ele>369</ele>
        <time>2012-03-04T12:18:46Z</time>
      </trkpt>
      <trkpt lat="43.52746" lon="5.52376">
        <ele>369</ele>
        <time>2012-03-04T12:18:47Z</time>
      </trkpt>
      <trkpt lat="43.52738" lon="5.5237">
        <ele>368</ele>
        <time>2012-03-04T12:18:49Z</time>
      </trkpt>
      <trkpt lat="43.52734" lon="5.52366">
        <ele>368</ele>
        <time>2012-03-04T12:18:50Z</time>
      </trkpt>
      <trkpt lat="43.52728" lon="5.52363">
        <ele>367</ele>
        <time>2012-03-04T12:18:51Z</time>
      </trkpt>
      <trkpt lat="43.52721" lon="5.52363">
        <ele>367</ele>
        <time>2012-03-04T12:18:53Z</time>
      </trkpt>
      <trkpt lat="43.52712" lon="5.52363">
        <ele>366</ele>
        <time>2012-03-04T12:18:55Z</time>
      </trkpt>
      <trkpt lat="43.52705" lon="5.52368">
        <ele>365</ele>
        <time>2012-03-04T12:18:57Z</time>
      </trkpt>
      <trkpt lat="43.527" lon="5.5237">
        <ele>364</ele>
        <time>2012-03-04T12:18:58Z</time>
      </trkpt>
      <trkpt lat="43.52694" lon="5.52372">
        <ele>364</ele>
        <time>2012-03-04T12:19:00Z</time>
      </trkpt>
      <trkpt lat="43.5269" lon="5.52374">
        <ele>364</ele>
        <time>2012-03-04T12:19:01Z</time>
      </trkpt>
      <trkpt lat="43.52683" lon="5.52374">
        <ele>364</ele>
        <time>2012-03-04T12:19:03Z</time>
      </trkpt>
      <trkpt lat="43.52677" lon="5.52374">
        <ele>363</ele>
        <time>2012-03-04T12:19:05Z</time>
      </trkpt>
      <trkpt lat="43.5267" lon="5.52374">
        <ele>363</ele>
        <time>2012-03-04T12:19:07Z</time>
      </trkpt>
      <trkpt lat="43.52665" lon="5.52374">
        <ele>363</ele>
        <time>2012-03-04T12:19:09Z</time>
      </trkpt>
      <trkpt lat="43.52659" lon="5.52374">
        <ele>362</ele>
        <time>2012-03-04T12:19:12Z</time>
      </trkpt>
      <trkpt lat="43.52653" lon="5.52372">
        <ele>362</ele>
        <time>2012-03-04T12:19:14Z</time>
      </trkpt>
      <trkpt lat="43.52648" lon="5.5237">
        <ele>361</ele>
        <time>2012-03-04T12:19:17Z</time>
      </trkpt>
      <trkpt lat="43.52644" lon="5.52368">
        <ele>361</ele>
        <time>2012-03-04T12:19:20Z</time>
      </trkpt>
      <trkpt lat="43.52638" lon="5.52366">
        <ele>360</ele>
        <time>2012-03-04T12:19:24Z</time>
      </trkpt>
      <trkpt lat="43.52632" lon="5.52363">
        <ele>359</ele>
        <time>2012-03-04T12:19:28Z</time>
      </trkpt>
      <trkpt lat="43.52632" lon="5.52363">
        <ele>359</ele>
        <time>2012-03-04T12:19:28Z</time>
      </trkpt>
      <trkpt lat="43.52632" lon="5.52363">
        <ele>359</ele>
        <time>2012-03-04T12:19:29Z</time>
      </trkpt>
      <trkpt lat="43.52625" lon="5.52363">
        <ele>358</ele>
        <time>2012-03-04T12:19:32Z</time>
      </trkpt>
      <trkpt lat="43.5262" lon="5.52366">
        <ele>357</ele>
        <time>2012-03-04T12:19:35Z</time>
      </trkpt>
      <trkpt lat="43.52615" lon="5.52366">
        <ele>357</ele>
        <time>2012-03-04T12:19:37Z</time>
      </trkpt>
      <trkpt lat="43.52608" lon="5.52368">
        <ele>356</ele>
        <time>2012-03-04T12:19:39Z</time>
      </trkpt>
      <trkpt lat="43.52604" lon="5.5237">
        <ele>353</ele>
        <time>2012-03-04T12:19:40Z</time>
      </trkpt>
      <trkpt lat="43.526" lon="5.52374">
        <ele>351</ele>
        <time>2012-03-04T12:19:41Z</time>
      </trkpt>
      <trkpt lat="43.52594" lon="5.52376">
        <ele>349</ele>
        <time>2012-03-04T12:19:42Z</time>
      </trkpt>
      <trkpt lat="43.52585" lon="5.52378">
        <ele>345</ele>
        <time>2012-03-04T12:19:44Z</time>
      </trkpt>
      <trkpt lat="43.52579" lon="5.52378">
        <ele>343</ele>
        <time>2012-03-04T12:19:45Z</time>
      </trkpt>
      <trkpt lat="43.52574" lon="5.5238">
        <ele>342</ele>
        <time>2012-03-04T12:19:46Z</time>
      </trkpt>
      <trkpt lat="43.52569" lon="5.52383">
        <ele>341</ele>
        <time>2012-03-04T12:19:47Z</time>
      </trkpt>
      <trkpt lat="43.52563" lon="5.52387">
        <ele>341</ele>
        <time>2012-03-04T12:19:48Z</time>
      </trkpt>
      <trkpt lat="43.52558" lon="5.52391">
        <ele>340</ele>
        <time>2012-03-04T12:19:49Z</time>
      </trkpt>
      <trkpt lat="43.52552" lon="5.52396">
        <ele>339</ele>
        <time>2012-03-04T12:19:50Z</time>
      </trkpt>
      <trkpt lat="43.52548" lon="5.52402">
        <ele>339</ele>
        <time>2012-03-04T12:19:51Z</time>
      </trkpt>
      <trkpt lat="43.52543" lon="5.52411">
        <ele>338</ele>
        <time>2012-03-04T12:19:53Z</time>
      </trkpt>
      <trkpt lat="43.5254" lon="5.52421">
        <ele>337</ele>
        <time>2012-03-04T12:19:55Z</time>
      </trkpt>
      <trkpt lat="43.52538" lon="5.52428">
        <ele>337</ele>
        <time>2012-03-04T12:19:56Z</time>
      </trkpt>
      <trkpt lat="43.52536" lon="5.52438">
        <ele>336</ele>
        <time>2012-03-04T12:19:58Z</time>
      </trkpt>
      <trkpt lat="43.52534" lon="5.52447">
        <ele>336</ele>
        <time>2012-03-04T12:19:59Z</time>
      </trkpt>
      <trkpt lat="43.52532" lon="5.52456">
        <ele>335</ele>
        <time>2012-03-04T12:20:00Z</time>
      </trkpt>
      <trkpt lat="43.5253" lon="5.52464">
        <ele>335</ele>
        <time>2012-03-04T12:20:01Z</time>
      </trkpt>
      <trkpt lat="43.52528" lon="5.52473">
        <ele>334</ele>
        <time>2012-03-04T12:20:02Z</time>
      </trkpt>
      <trkpt lat="43.52526" lon="5.52484">
        <ele>334</ele>
        <time>2012-03-04T12:20:03Z</time>
      </trkpt>
      <trkpt lat="43.52524" lon="5.52492">
        <ele>334</ele>
        <time>2012-03-04T12:20:04Z</time>
      </trkpt>
      <trkpt lat="43.52521" lon="5.52503">
        <ele>334</ele>
        <time>2012-03-04T12:20:05Z</time>
      </trkpt>
      <trkpt lat="43.52518" lon="5.52514">
        <ele>333</ele>
        <time>2012-03-04T12:20:06Z</time>
      </trkpt>
      <trkpt lat="43.52515" lon="5.52524">
        <ele>332</ele>
        <time>2012-03-04T12:20:07Z</time>
      </trkpt>
      <trkpt lat="43.52513" lon="5.52533">
        <ele>332</ele>
        <time>2012-03-04T12:20:08Z</time>
      </trkpt>
      <trkpt lat="43.5251" lon="5.52544">
        <ele>331</ele>
        <time>2012-03-04T12:20:09Z</time>
      </trkpt>
      <trkpt lat="43.52507" lon="5.5255">
        <ele>331</ele>
        <time>2012-03-04T12:20:10Z</time>
      </trkpt>
      <trkpt lat="43.52505" lon="5.52559">
        <ele>331</ele>
        <time>2012-03-04T12:20:11Z</time>
      </trkpt>
      <trkpt lat="43.52502" lon="5.52567">
        <ele>332</ele>
        <time>2012-03-04T12:20:12Z</time>
      </trkpt>
      <trkpt lat="43.52499" lon="5.52576">
        <ele>332</ele>
        <time>2012-03-04T12:20:13Z</time>
      </trkpt>
      <trkpt lat="43.52497" lon="5.52582">
        <ele>332</ele>
        <time>2012-03-04T12:20:14Z</time>
      </trkpt>
      <trkpt lat="43.52492" lon="5.52589">
        <ele>332</ele>
        <time>2012-03-04T12:20:15Z</time>
      </trkpt>
      <trkpt lat="43.52488" lon="5.52597">
        <ele>332</ele>
        <time>2012-03-04T12:20:16Z</time>
      </trkpt>
      <trkpt lat="43.52483" lon="5.52604">
        <ele>332</ele>
        <time>2012-03-04T12:20:17Z</time>
      </trkpt>
      <trkpt lat="43.52478" lon="5.5261">
        <ele>332</ele>
        <time>2012-03-04T12:20:18Z</time>
      </trkpt>
      <trkpt lat="43.52472" lon="5.52619">
        <ele>332</ele>
        <time>2012-03-04T12:20:19Z</time>
      </trkpt>
      <trkpt lat="43.52467" lon="5.52627">
        <ele>332</ele>
        <time>2012-03-04T12:20:20Z</time>
      </trkpt>
      <trkpt lat="43.52461" lon="5.52636">
        <ele>332</ele>
        <time>2012-03-04T12:20:21Z</time>
      </trkpt>
      <trkpt lat="43.52456" lon="5.52644">
        <ele>332</ele>
        <time>2012-03-04T12:20:22Z</time>
      </trkpt>
      <trkpt lat="43.52452" lon="5.52653">
        <ele>332</ele>
        <time>2012-03-04T12:20:23Z</time>
      </trkpt>
      <trkpt lat="43.52447" lon="5.52662">
        <ele>332</ele>
        <time>2012-03-04T12:20:24Z</time>
      </trkpt>
      <trkpt lat="43.52443" lon="5.5267">
        <ele>332</ele>
        <time>2012-03-04T12:20:25Z</time>
      </trkpt>
      <trkpt lat="43.52441" lon="5.52679">
        <ele>332</ele>
        <time>2012-03-04T12:20:26Z</time>
      </trkpt>
      <trkpt lat="43.52439" lon="5.52687">
        <ele>332</ele>
        <time>2012-03-04T12:20:27Z</time>
      </trkpt>
      <trkpt lat="43.52437" lon="5.52694">
        <ele>332</ele>
        <time>2012-03-04T12:20:28Z</time>
      </trkpt>
      <trkpt lat="43.52436" lon="5.527">
        <ele>332</ele>
        <time>2012-03-04T12:20:29Z</time>
      </trkpt>
      <trkpt lat="43.52434" lon="5.52709">
        <ele>332</ele>
        <time>2012-03-04T12:20:31Z</time>
      </trkpt>
      <trkpt lat="43.52436" lon="5.52715">
        <ele>332</ele>
        <time>2012-03-04T12:20:51Z</time>
      </trkpt>
      <trkpt lat="43.52436" lon="5.52722">
        <ele>332</ele>
        <time>2012-03-04T12:20:53Z</time>
      </trkpt>
      <trkpt lat="43.52437" lon="5.52728">
        <ele>331</ele>
        <time>2012-03-04T12:20:55Z</time>
      </trkpt>
      <trkpt lat="43.52438" lon="5.52737">
        <ele>331</ele>
        <time>2012-03-04T12:20:57Z</time>
      </trkpt>
      <trkpt lat="43.52438" lon="5.52745">
        <ele>331</ele>
        <time>2012-03-04T12:20:59Z</time>
      </trkpt>
      <trkpt lat="43.52439" lon="5.52752">
        <ele>331</ele>
        <time>2012-03-04T12:21:01Z</time>
      </trkpt>
      <trkpt lat="43.52441" lon="5.5276">
        <ele>331</ele>
        <time>2012-03-04T12:21:03Z</time>
      </trkpt>
      <trkpt lat="43.52441" lon="5.52767">
        <ele>331</ele>
        <time>2012-03-04T12:21:04Z</time>
      </trkpt>
      <trkpt lat="43.52442" lon="5.5278">
        <ele>330</ele>
        <time>2012-03-04T12:21:06Z</time>
      </trkpt>
      <trkpt lat="43.52443" lon="5.52786">
        <ele>330</ele>
        <time>2012-03-04T12:21:07Z</time>
      </trkpt>
      <trkpt lat="43.52443" lon="5.52797">
        <ele>330</ele>
        <time>2012-03-04T12:21:08Z</time>
      </trkpt>
      <trkpt lat="43.52444" lon="5.52803">
        <ele>330</ele>
        <time>2012-03-04T12:21:09Z</time>
      </trkpt>
      <trkpt lat="43.52444" lon="5.52816">
        <ele>329</ele>
        <time>2012-03-04T12:21:10Z</time>
      </trkpt>
      <trkpt lat="43.52443" lon="5.52829">
        <ele>329</ele>
        <time>2012-03-04T12:21:11Z</time>
      </trkpt>
      <trkpt lat="43.52442" lon="5.5284">
        <ele>329</ele>
        <time>2012-03-04T12:21:12Z</time>
      </trkpt>
      <trkpt lat="43.52441" lon="5.52853">
        <ele>328</ele>
        <time>2012-03-04T12:21:13Z</time>
      </trkpt>
      <trkpt lat="43.5244" lon="5.52866">
        <ele>327</ele>
        <time>2012-03-04T12:21:14Z</time>
      </trkpt>
      <trkpt lat="43.52438" lon="5.52878">
        <ele>326</ele>
        <time>2012-03-04T12:21:15Z</time>
      </trkpt>
      <trkpt lat="43.52436" lon="5.52889">
        <ele>325</ele>
        <time>2012-03-04T12:21:16Z</time>
      </trkpt>
      <trkpt lat="43.52432" lon="5.529">
        <ele>324</ele>
        <time>2012-03-04T12:21:17Z</time>
      </trkpt>
      <trkpt lat="43.52428" lon="5.5291">
        <ele>324</ele>
        <time>2012-03-04T12:21:18Z</time>
      </trkpt>
      <trkpt lat="43.52425" lon="5.52917">
        <ele>323</ele>
        <time>2012-03-04T12:21:19Z</time>
      </trkpt>
      <trkpt lat="43.52422" lon="5.52926">
        <ele>323</ele>
        <time>2012-03-04T12:21:20Z</time>
      </trkpt>
      <trkpt lat="43.52418" lon="5.52934">
        <ele>322</ele>
        <time>2012-03-04T12:21:22Z</time>
      </trkpt>
      <trkpt lat="43.52416" lon="5.52941">
        <ele>322</ele>
        <time>2012-03-04T12:21:24Z</time>
      </trkpt>
      <trkpt lat="43.52416" lon="5.52941">
        <ele>322</ele>
        <time>2012-03-04T12:21:24Z</time>
      </trkpt>
      <trkpt lat="43.52416" lon="5.52941">
        <ele>322</ele>
        <time>2012-03-04T12:21:27Z</time>
      </trkpt>
      <trkpt lat="43.52419" lon="5.52934">
        <ele>322</ele>
        <time>2012-03-04T12:21:30Z</time>
      </trkpt>
      <trkpt lat="43.52423" lon="5.5293">
        <ele>322</ele>
        <time>2012-03-04T12:21:32Z</time>
      </trkpt>
      <trkpt lat="43.52423" lon="5.5293">
        <ele>322</ele>
        <time>2012-03-04T12:21:32Z</time>
      </trkpt>
      <trkpt lat="43.52423" lon="5.5293">
        <ele>322</ele>
        <time>2012-03-04T12:21:33Z</time>
      </trkpt>
      <trkpt lat="43.52429" lon="5.52932">
        <ele>322</ele>
        <time>2012-03-04T12:21:35Z</time>
      </trkpt>
      <trkpt lat="43.52431" lon="5.52941">
        <ele>321</ele>
        <time>2012-03-04T12:21:37Z</time>
      </trkpt>
      <trkpt lat="43.52432" lon="5.52947">
        <ele>321</ele>
        <time>2012-03-04T12:21:38Z</time>
      </trkpt>
      <trkpt lat="43.52433" lon="5.52958">
        <ele>321</ele>
        <time>2012-03-04T12:21:40Z</time>
      </trkpt>
      <trkpt lat="43.52434" lon="5.52964">
        <ele>320</ele>
        <time>2012-03-04T12:21:41Z</time>
      </trkpt>
      <trkpt lat="43.52436" lon="5.52971">
        <ele>320</ele>
        <time>2012-03-04T12:21:42Z</time>
      </trkpt>
      <trkpt lat="43.52437" lon="5.52977">
        <ele>320</ele>
        <time>2012-03-04T12:21:43Z</time>
      </trkpt>
      <trkpt lat="43.52437" lon="5.52984">
        <ele>320</ele>
        <time>2012-03-04T12:21:44Z</time>
      </trkpt>
      <trkpt lat="43.52438" lon="5.52992">
        <ele>320</ele>
        <time>2012-03-04T12:21:46Z</time>
      </trkpt>
      <trkpt lat="43.52438" lon="5.53001">
        <ele>320</ele>
        <time>2012-03-04T12:21:48Z</time>
      </trkpt>
      <trkpt lat="43.52436" lon="5.53009">
        <ele>320</ele>
        <time>2012-03-04T12:21:50Z</time>
      </trkpt>
      <trkpt lat="43.52436" lon="5.53016">
        <ele>320</ele>
        <time>2012-03-04T12:21:52Z</time>
      </trkpt>
      <trkpt lat="43.52434" lon="5.53022">
        <ele>321</ele>
        <time>2012-03-04T12:21:54Z</time>
      </trkpt>
      <trkpt lat="43.52433" lon="5.53028">
        <ele>321</ele>
        <time>2012-03-04T12:21:56Z</time>
      </trkpt>
      <trkpt lat="43.52433" lon="5.53035">
        <ele>321</ele>
        <time>2012-03-04T12:21:59Z</time>
      </trkpt>
      <trkpt lat="43.52433" lon="5.53041">
        <ele>321</ele>
        <time>2012-03-04T12:22:01Z</time>
      </trkpt>
      <trkpt lat="43.52433" lon="5.53048">
        <ele>321</ele>
        <time>2012-03-04T12:22:04Z</time>
      </trkpt>
      <trkpt lat="43.52433" lon="5.53054">
        <ele>321</ele>
        <time>2012-03-04T12:22:06Z</time>
      </trkpt>
      <trkpt lat="43.52436" lon="5.53061">
        <ele>321</ele>
        <time>2012-03-04T12:22:09Z</time>
      </trkpt>
      <trkpt lat="43.52438" lon="5.53067">
        <ele>322</ele>
        <time>2012-03-04T12:22:12Z</time>
      </trkpt>
      <trkpt lat="43.52439" lon="5.53074">
        <ele>322</ele>
        <time>2012-03-04T12:22:15Z</time>
      </trkpt>
      <trkpt lat="43.52441" lon="5.5308">
        <ele>322</ele>
        <time>2012-03-04T12:22:18Z</time>
      </trkpt>
      <trkpt lat="43.52442" lon="5.53086">
        <ele>322</ele>
        <time>2012-03-04T12:22:21Z</time>
      </trkpt>
      <trkpt lat="43.52443" lon="5.53093">
        <ele>322</ele>
        <time>2012-03-04T12:22:24Z</time>
      </trkpt>
      <trkpt lat="43.52444" lon="5.53102">
        <ele>322</ele>
        <time>2012-03-04T12:22:27Z</time>
      </trkpt>
      <trkpt lat="43.52445" lon="5.53108">
        <ele>323</ele>
        <time>2012-03-04T12:22:30Z</time>
      </trkpt>
      <trkpt lat="43.52447" lon="5.53114">
        <ele>323</ele>
        <time>2012-03-04T12:22:33Z</time>
      </trkpt>
      <trkpt lat="43.52448" lon="5.53121">
        <ele>323</ele>
        <time>2012-03-04T12:22:36Z</time>
      </trkpt>
      <trkpt lat="43.5245" lon="5.53127">
        <ele>324</ele>
        <time>2012-03-04T12:22:39Z</time>
      </trkpt>
      <trkpt lat="43.52451" lon="5.53134">
        <ele>324</ele>
        <time>2012-03-04T12:22:42Z</time>
      </trkpt>
      <trkpt lat="43.52453" lon="5.5314">
        <ele>324</ele>
        <time>2012-03-04T12:22:45Z</time>
      </trkpt>
      <trkpt lat="43.52454" lon="5.53147">
        <ele>324</ele>
        <time>2012-03-04T12:22:48Z</time>
      </trkpt>
      <trkpt lat="43.52456" lon="5.53153">
        <ele>325</ele>
        <time>2012-03-04T12:22:51Z</time>
      </trkpt>
      <trkpt lat="43.52458" lon="5.53159">
        <ele>325</ele>
        <time>2012-03-04T12:22:55Z</time>
      </trkpt>
      <trkpt lat="43.5246" lon="5.53166">
        <ele>325</ele>
        <time>2012-03-04T12:22:58Z</time>
      </trkpt>
      <trkpt lat="43.52461" lon="5.53172">
        <ele>326</ele>
        <time>2012-03-04T12:23:00Z</time>
      </trkpt>
      <trkpt lat="43.52463" lon="5.53179">
        <ele>326</ele>
        <time>2012-03-04T12:23:03Z</time>
      </trkpt>
      <trkpt lat="43.52464" lon="5.53185">
        <ele>326</ele>
        <time>2012-03-04T12:23:05Z</time>
      </trkpt>
      <trkpt lat="43.52468" lon="5.53192">
        <ele>327</ele>
        <time>2012-03-04T12:23:09Z</time>
      </trkpt>
      <trkpt lat="43.52469" lon="5.53198">
        <ele>327</ele>
        <time>2012-03-04T12:23:12Z</time>
      </trkpt>
      <trkpt lat="43.52472" lon="5.53204">
        <ele>327</ele>
        <time>2012-03-04T12:23:16Z</time>
      </trkpt>
      <trkpt lat="43.52475" lon="5.53209">
        <ele>328</ele>
        <time>2012-03-04T12:23:20Z</time>
      </trkpt>
      <trkpt lat="43.52478" lon="5.53215">
        <ele>328</ele>
        <time>2012-03-04T12:23:24Z</time>
      </trkpt>
      <trkpt lat="43.52482" lon="5.5322">
        <ele>329</ele>
        <time>2012-03-04T12:23:27Z</time>
      </trkpt>
      <trkpt lat="43.52485" lon="5.53226">
        <ele>329</ele>
        <time>2012-03-04T12:23:31Z</time>
      </trkpt>
      <trkpt lat="43.52488" lon="5.53232">
        <ele>329</ele>
        <time>2012-03-04T12:23:35Z</time>
      </trkpt>
      <trkpt lat="43.52488" lon="5.53232">
        <ele>329</ele>
        <time>2012-03-04T12:23:35Z</time>
      </trkpt>
      <trkpt lat="43.52488" lon="5.53232">
        <ele>330</ele>
        <time>2012-03-04T12:23:36Z</time>
      </trkpt>
      <trkpt lat="43.52489" lon="5.53239">
        <ele>330</ele>
        <time>2012-03-04T12:23:39Z</time>
      </trkpt>
      <trkpt lat="43.52489" lon="5.53245">
        <ele>330</ele>
        <time>2012-03-04T12:23:43Z</time>
      </trkpt>
      <trkpt lat="43.52488" lon="5.53252">
        <ele>331</ele>
        <time>2012-03-04T12:23:46Z</time>
      </trkpt>
      <trkpt lat="43.52488" lon="5.53252">
        <ele>331</ele>
        <time>2012-03-04T12:23:46Z</time>
      </trkpt>
      <trkpt lat="43.52488" lon="5.53252">
        <ele>331</ele>
        <time>2012-03-04T12:23:47Z</time>
      </trkpt>
      <trkpt lat="43.52487" lon="5.53258">
        <ele>331</ele>
        <time>2012-03-04T12:23:50Z</time>
      </trkpt>
      <trkpt lat="43.52488" lon="5.53265">
        <ele>332</ele>
        <time>2012-03-04T12:23:54Z</time>
      </trkpt>
      <trkpt lat="43.5249" lon="5.53271">
        <ele>332</ele>
        <time>2012-03-04T12:23:58Z</time>
      </trkpt>
      <trkpt lat="43.52492" lon="5.53277">
        <ele>333</ele>
        <time>2012-03-04T12:24:01Z</time>
      </trkpt>
      <trkpt lat="43.52494" lon="5.53284">
        <ele>333</ele>
        <time>2012-03-04T12:24:05Z</time>
      </trkpt>
      <trkpt lat="43.52494" lon="5.5329">
        <ele>334</ele>
        <time>2012-03-04T12:24:09Z</time>
      </trkpt>
      <trkpt lat="43.52497" lon="5.53297">
        <ele>334</ele>
        <time>2012-03-04T12:24:13Z</time>
      </trkpt>
      <trkpt lat="43.52498" lon="5.53303">
        <ele>334</ele>
        <time>2012-03-04T12:24:17Z</time>
      </trkpt>
      <trkpt lat="43.52498" lon="5.53303">
        <ele>334</ele>
        <time>2012-03-04T12:24:17Z</time>
      </trkpt>
      <trkpt lat="43.52498" lon="5.53303">
        <ele>335</ele>
        <time>2012-03-04T12:24:18Z</time>
      </trkpt>
      <trkpt lat="43.52498" lon="5.5331">
        <ele>335</ele>
        <time>2012-03-04T12:24:21Z</time>
      </trkpt>
      <trkpt lat="43.52498" lon="5.53316">
        <ele>336</ele>
        <time>2012-03-04T12:24:25Z</time>
      </trkpt>
      <trkpt lat="43.52497" lon="5.53322">
        <ele>336</ele>
        <time>2012-03-04T12:24:28Z</time>
      </trkpt>
      <trkpt lat="43.52494" lon="5.53329">
        <ele>336</ele>
        <time>2012-03-04T12:24:32Z</time>
      </trkpt>
      <trkpt lat="43.52494" lon="5.53335">
        <ele>337</ele>
        <time>2012-03-04T12:24:35Z</time>
      </trkpt>
      <trkpt lat="43.52494" lon="5.53342">
        <ele>337</ele>
        <time>2012-03-04T12:24:39Z</time>
      </trkpt>
      <trkpt lat="43.52492" lon="5.53348">
        <ele>338</ele>
        <time>2012-03-04T12:24:43Z</time>
      </trkpt>
      <trkpt lat="43.52492" lon="5.53355">
        <ele>338</ele>
        <time>2012-03-04T12:24:46Z</time>
      </trkpt>
      <trkpt lat="43.52491" lon="5.53361">
        <ele>338</ele>
        <time>2012-03-04T12:24:50Z</time>
      </trkpt>
      <trkpt lat="43.5249" lon="5.53368">
        <ele>339</ele>
        <time>2012-03-04T12:24:53Z</time>
      </trkpt>
      <trkpt lat="43.5249" lon="5.53374">
        <ele>339</ele>
        <time>2012-03-04T12:24:56Z</time>
      </trkpt>
      <trkpt lat="43.5249" lon="5.53374">
        <ele>339</ele>
        <time>2012-03-04T12:24:56Z</time>
      </trkpt>
      <trkpt lat="43.5249" lon="5.53374">
        <ele>339</ele>
        <time>2012-03-04T12:24:57Z</time>
      </trkpt>
      <trkpt lat="43.5249" lon="5.5338">
        <ele>339</ele>
        <time>2012-03-04T12:25:00Z</time>
      </trkpt>
      <trkpt lat="43.5249" lon="5.53387">
        <ele>340</ele>
        <time>2012-03-04T12:25:03Z</time>
      </trkpt>
      <trkpt lat="43.5249" lon="5.53393">
        <ele>340</ele>
        <time>2012-03-04T12:25:07Z</time>
      </trkpt>
      <trkpt lat="43.5249" lon="5.534">
        <ele>340</ele>
        <time>2012-03-04T12:25:11Z</time>
      </trkpt>
      <trkpt lat="43.5249" lon="5.53406">
        <ele>340</ele>
        <time>2012-03-04T12:25:15Z</time>
      </trkpt>
      <trkpt lat="43.52489" lon="5.53413">
        <ele>341</ele>
        <time>2012-03-04T12:25:18Z</time>
      </trkpt>
      <trkpt lat="43.52489" lon="5.53413">
        <ele>341</ele>
        <time>2012-03-04T12:25:18Z</time>
      </trkpt>
      <trkpt lat="43.52489" lon="5.53413">
        <ele>341</ele>
        <time>2012-03-04T12:25:19Z</time>
      </trkpt>
      <trkpt lat="43.52489" lon="5.53419">
        <ele>341</ele>
        <time>2012-03-04T12:25:22Z</time>
      </trkpt>
      <trkpt lat="43.52489" lon="5.53426">
        <ele>342</ele>
        <time>2012-03-04T12:25:26Z</time>
      </trkpt>
      <trkpt lat="43.52489" lon="5.53432">
        <ele>342</ele>
        <time>2012-03-04T12:25:30Z</time>
      </trkpt>
      <trkpt lat="43.52489" lon="5.53438">
        <ele>343</ele>
        <time>2012-03-04T12:25:34Z</time>
      </trkpt>
      <trkpt lat="43.52489" lon="5.53445">
        <ele>343</ele>
        <time>2012-03-04T12:25:38Z</time>
      </trkpt>
      <trkpt lat="43.5249" lon="5.53451">
        <ele>343</ele>
        <time>2012-03-04T12:25:41Z</time>
      </trkpt>
      <trkpt lat="43.5249" lon="5.53458">
        <ele>343</ele>
        <time>2012-03-04T12:25:45Z</time>
      </trkpt>
      <trkpt lat="43.5249" lon="5.53464">
        <ele>344</ele>
        <time>2012-03-04T12:25:48Z</time>
      </trkpt>
      <trkpt lat="43.5249" lon="5.53473">
        <ele>344</ele>
        <time>2012-03-04T12:25:51Z</time>
      </trkpt>
      <trkpt lat="43.52489" lon="5.53479">
        <ele>344</ele>
        <time>2012-03-04T12:25:54Z</time>
      </trkpt>
      <trkpt lat="43.52488" lon="5.53486">
        <ele>345</ele>
        <time>2012-03-04T12:25:58Z</time>
      </trkpt>
      <trkpt lat="43.52488" lon="5.53492">
        <ele>345</ele>
        <time>2012-03-04T12:26:01Z</time>
      </trkpt>
      <trkpt lat="43.52488" lon="5.53492">
        <ele>345</ele>
        <time>2012-03-04T12:26:01Z</time>
      </trkpt>
      <trkpt lat="43.52488" lon="5.53492">
        <ele>345</ele>
        <time>2012-03-04T12:26:02Z</time>
      </trkpt>
      <trkpt lat="43.52487" lon="5.53498">
        <ele>345</ele>
        <time>2012-03-04T12:26:05Z</time>
      </trkpt>
      <trkpt lat="43.52487" lon="5.53498">
        <ele>345</ele>
        <time>2012-03-04T12:26:05Z</time>
      </trkpt>
      <trkpt lat="43.52487" lon="5.53498">
        <ele>346</ele>
        <time>2012-03-04T12:26:06Z</time>
      </trkpt>
      <trkpt lat="43.52487" lon="5.53505">
        <ele>346</ele>
        <time>2012-03-04T12:26:09Z</time>
      </trkpt>
      <trkpt lat="43.52487" lon="5.53511">
        <ele>346</ele>
        <time>2012-03-04T12:26:13Z</time>
      </trkpt>
      <trkpt lat="43.52488" lon="5.53518">
        <ele>347</ele>
        <time>2012-03-04T12:26:17Z</time>
      </trkpt>
      <trkpt lat="43.52488" lon="5.53518">
        <ele>347</ele>
        <time>2012-03-04T12:26:17Z</time>
      </trkpt>
      <trkpt lat="43.52488" lon="5.53518">
        <ele>347</ele>
        <time>2012-03-04T12:26:18Z</time>
      </trkpt>
      <trkpt lat="43.52488" lon="5.53524">
        <ele>347</ele>
        <time>2012-03-04T12:26:27Z</time>
      </trkpt>
      <trkpt lat="43.52488" lon="5.53524">
        <ele>347</ele>
        <time>2012-03-04T12:26:27Z</time>
      </trkpt>
      <trkpt lat="43.52488" lon="5.53524">
        <ele>347</ele>
        <time>2012-03-04T12:26:28Z</time>
      </trkpt>
      <trkpt lat="43.52489" lon="5.53531">
        <ele>347</ele>
        <time>2012-03-04T12:26:33Z</time>
      </trkpt>
      <trkpt lat="43.52489" lon="5.53531">
        <ele>347</ele>
        <time>2012-03-04T12:26:33Z</time>
      </trkpt>
      <trkpt lat="43.52489" lon="5.53531">
        <ele>347</ele>
        <time>2012-03-04T12:26:34Z</time>
      </trkpt>
      <trkpt lat="43.52489" lon="5.53537">
        <ele>347</ele>
        <time>2012-03-04T12:26:39Z</time>
      </trkpt>
      <trkpt lat="43.52489" lon="5.53544">
        <ele>348</ele>
        <time>2012-03-04T12:26:43Z</time>
      </trkpt>
      <trkpt lat="43.52489" lon="5.5355">
        <ele>348</ele>
        <time>2012-03-04T12:26:46Z</time>
      </trkpt>
      <trkpt lat="43.5249" lon="5.53556">
        <ele>348</ele>
        <time>2012-03-04T12:26:49Z</time>
      </trkpt>
      <trkpt lat="43.5249" lon="5.53556">
        <ele>348</ele>
        <time>2012-03-04T12:26:49Z</time>
      </trkpt>
      <trkpt lat="43.5249" lon="5.53556">
        <ele>348</ele>
        <time>2012-03-04T12:26:50Z</time>
      </trkpt>
      <trkpt lat="43.52492" lon="5.53563">
        <ele>349</ele>
        <time>2012-03-04T12:26:54Z</time>
      </trkpt>
      <trkpt lat="43.52496" lon="5.53569">
        <ele>349</ele>
        <time>2012-03-04T12:26:59Z</time>
      </trkpt>
      <trkpt lat="43.52496" lon="5.53569">
        <ele>349</ele>
        <time>2012-03-04T12:26:59Z</time>
      </trkpt>
      <trkpt lat="43.52496" lon="5.53569">
        <ele>349</ele>
        <time>2012-03-04T12:27:00Z</time>
      </trkpt>
      <trkpt lat="43.52498" lon="5.53576">
        <ele>350</ele>
        <time>2012-03-04T12:27:04Z</time>
      </trkpt>
      <trkpt lat="43.52501" lon="5.5358">
        <ele>350</ele>
        <time>2012-03-04T12:27:08Z</time>
      </trkpt>
      <trkpt lat="43.52501" lon="5.5358">
        <ele>350</ele>
        <time>2012-03-04T12:27:08Z</time>
      </trkpt>
      <trkpt lat="43.52501" lon="5.5358">
        <ele>350</ele>
        <time>2012-03-04T12:27:09Z</time>
      </trkpt>
      <trkpt lat="43.52504" lon="5.53584">
        <ele>350</ele>
        <time>2012-03-04T12:27:13Z</time>
      </trkpt>
      <trkpt lat="43.52507" lon="5.53591">
        <ele>351</ele>
        <time>2012-03-04T12:27:17Z</time>
      </trkpt>
      <trkpt lat="43.52511" lon="5.53595">
        <ele>351</ele>
        <time>2012-03-04T12:27:21Z</time>
      </trkpt>
      <trkpt lat="43.52513" lon="5.53602">
        <ele>351</ele>
        <time>2012-03-04T12:27:24Z</time>
      </trkpt>
      <trkpt lat="43.52515" lon="5.53608">
        <ele>352</ele>
        <time>2012-03-04T12:27:28Z</time>
      </trkpt>
      <trkpt lat="43.52517" lon="5.53614">
        <ele>352</ele>
        <time>2012-03-04T12:27:32Z</time>
      </trkpt>
      <trkpt lat="43.52517" lon="5.53614">
        <ele>352</ele>
        <time>2012-03-04T12:27:32Z</time>
      </trkpt>
      <trkpt lat="43.52517" lon="5.53614">
        <ele>352</ele>
        <time>2012-03-04T12:27:33Z</time>
      </trkpt>
      <trkpt lat="43.52517" lon="5.53621">
        <ele>353</ele>
        <time>2012-03-04T12:27:36Z</time>
      </trkpt>
      <trkpt lat="43.52518" lon="5.53627">
        <ele>353</ele>
        <time>2012-03-04T12:27:40Z</time>
      </trkpt>
      <trkpt lat="43.52517" lon="5.53634">
        <ele>353</ele>
        <time>2012-03-04T12:27:43Z</time>
      </trkpt>
      <trkpt lat="43.52515" lon="5.5364">
        <ele>354</ele>
        <time>2012-03-04T12:27:46Z</time>
      </trkpt>
      <trkpt lat="43.52514" lon="5.53646">
        <ele>354</ele>
        <time>2012-03-04T12:27:49Z</time>
      </trkpt>
      <trkpt lat="43.52512" lon="5.53653">
        <ele>355</ele>
        <time>2012-03-04T12:27:52Z</time>
      </trkpt>
      <trkpt lat="43.5251" lon="5.53659">
        <ele>355</ele>
        <time>2012-03-04T12:27:55Z</time>
      </trkpt>
      <trkpt lat="43.52507" lon="5.53666">
        <ele>355</ele>
        <time>2012-03-04T12:27:58Z</time>
      </trkpt>
      <trkpt lat="43.52505" lon="5.53672">
        <ele>356</ele>
        <time>2012-03-04T12:28:01Z</time>
      </trkpt>
      <trkpt lat="43.52504" lon="5.53679">
        <ele>356</ele>
        <time>2012-03-04T12:28:04Z</time>
      </trkpt>
      <trkpt lat="43.52502" lon="5.53685">
        <ele>356</ele>
        <time>2012-03-04T12:28:07Z</time>
      </trkpt>
      <trkpt lat="43.52502" lon="5.53685">
        <ele>356</ele>
        <time>2012-03-04T12:28:07Z</time>
      </trkpt>
      <trkpt lat="43.52502" lon="5.53685">
        <ele>356</ele>
        <time>2012-03-04T12:28:08Z</time>
      </trkpt>
      <trkpt lat="43.52501" lon="5.53692">
        <ele>357</ele>
        <time>2012-03-04T12:28:11Z</time>
      </trkpt>
      <trkpt lat="43.525" lon="5.53698">
        <ele>357</ele>
        <time>2012-03-04T12:28:14Z</time>
      </trkpt>
      <trkpt lat="43.525" lon="5.53698">
        <ele>357</ele>
        <time>2012-03-04T12:28:14Z</time>
      </trkpt>
      <trkpt lat="43.525" lon="5.53698">
        <ele>357</ele>
        <time>2012-03-04T12:28:15Z</time>
      </trkpt>
      <trkpt lat="43.525" lon="5.53704">
        <ele>357</ele>
        <time>2012-03-04T12:28:18Z</time>
      </trkpt>
      <trkpt lat="43.52499" lon="5.53711">
        <ele>358</ele>
        <time>2012-03-04T12:28:21Z</time>
      </trkpt>
      <trkpt lat="43.52499" lon="5.53717">
        <ele>358</ele>
        <time>2012-03-04T12:28:24Z</time>
      </trkpt>
      <trkpt lat="43.525" lon="5.53724">
        <ele>358</ele>
        <time>2012-03-04T12:28:28Z</time>
      </trkpt>
      <trkpt lat="43.52501" lon="5.5373">
        <ele>358</ele>
        <time>2012-03-04T12:28:31Z</time>
      </trkpt>
      <trkpt lat="43.52504" lon="5.53734">
        <ele>359</ele>
        <time>2012-03-04T12:28:34Z</time>
      </trkpt>
      <trkpt lat="43.52508" lon="5.53739">
        <ele>359</ele>
        <time>2012-03-04T12:28:37Z</time>
      </trkpt>
      <trkpt lat="43.52513" lon="5.53741">
        <ele>359</ele>
        <time>2012-03-04T12:28:40Z</time>
      </trkpt>
      <trkpt lat="43.52518" lon="5.53739">
        <ele>359</ele>
        <time>2012-03-04T12:28:43Z</time>
      </trkpt>
      <trkpt lat="43.52522" lon="5.53734">
        <ele>359</ele>
        <time>2012-03-04T12:28:46Z</time>
      </trkpt>
      <trkpt lat="43.52526" lon="5.5373">
        <ele>360</ele>
        <time>2012-03-04T12:28:48Z</time>
      </trkpt>
      <trkpt lat="43.52529" lon="5.53724">
        <ele>360</ele>
        <time>2012-03-04T12:28:50Z</time>
      </trkpt>
      <trkpt lat="43.52532" lon="5.53717">
        <ele>360</ele>
        <time>2012-03-04T12:28:53Z</time>
      </trkpt>
      <trkpt lat="43.52534" lon="5.53711">
        <ele>361</ele>
        <time>2012-03-04T12:28:56Z</time>
      </trkpt>
      <trkpt lat="43.52538" lon="5.53704">
        <ele>362</ele>
        <time>2012-03-04T12:29:00Z</time>
      </trkpt>
      <trkpt lat="43.5254" lon="5.53698">
        <ele>362</ele>
        <time>2012-03-04T12:29:04Z</time>
      </trkpt>
      <trkpt lat="43.52542" lon="5.53692">
        <ele>363</ele>
        <time>2012-03-04T12:29:08Z</time>
      </trkpt>
      <trkpt lat="43.52544" lon="5.53685">
        <ele>364</ele>
        <time>2012-03-04T12:29:11Z</time>
      </trkpt>
      <trkpt lat="43.52544" lon="5.53685">
        <ele>364</ele>
        <time>2012-03-04T12:29:11Z</time>
      </trkpt>
      <trkpt lat="43.52544" lon="5.53685">
        <ele>364</ele>
        <time>2012-03-04T12:29:12Z</time>
      </trkpt>
      <trkpt lat="43.52548" lon="5.53681">
        <ele>365</ele>
        <time>2012-03-04T12:29:17Z</time>
      </trkpt>
      <trkpt lat="43.52551" lon="5.53687">
        <ele>366</ele>
        <time>2012-03-04T12:29:21Z</time>
      </trkpt>
      <trkpt lat="43.52552" lon="5.53696">
        <ele>366</ele>
        <time>2012-03-04T12:29:24Z</time>
      </trkpt>
      <trkpt lat="43.52551" lon="5.53702">
        <ele>367</ele>
        <time>2012-03-04T12:29:27Z</time>
      </trkpt>
      <trkpt lat="43.5255" lon="5.53709">
        <ele>367</ele>
        <time>2012-03-04T12:29:30Z</time>
      </trkpt>
      <trkpt lat="43.5255" lon="5.53715">
        <ele>368</ele>
        <time>2012-03-04T12:29:33Z</time>
      </trkpt>
      <trkpt lat="43.5255" lon="5.53722">
        <ele>368</ele>
        <time>2012-03-04T12:29:36Z</time>
      </trkpt>
      <trkpt lat="43.52551" lon="5.53728">
        <ele>368</ele>
        <time>2012-03-04T12:29:38Z</time>
      </trkpt>
      <trkpt lat="43.52552" lon="5.53734">
        <ele>369</ele>
        <time>2012-03-04T12:29:41Z</time>
      </trkpt>
      <trkpt lat="43.52554" lon="5.53741">
        <ele>370</ele>
        <time>2012-03-04T12:29:49Z</time>
      </trkpt>
      <trkpt lat="43.52554" lon="5.53741">
        <ele>370</ele>
        <time>2012-03-04T12:29:49Z</time>
      </trkpt>
      <trkpt lat="43.52554" lon="5.53741">
        <ele>372</ele>
        <time>2012-03-04T12:30:37Z</time>
      </trkpt>
      <trkpt lat="43.52555" lon="5.53732">
        <ele>373</ele>
        <time>2012-03-04T12:30:41Z</time>
      </trkpt>
      <trkpt lat="43.52552" lon="5.53726">
        <ele>374</ele>
        <time>2012-03-04T12:30:44Z</time>
      </trkpt>
      <trkpt lat="43.52551" lon="5.5372">
        <ele>374</ele>
        <time>2012-03-04T12:30:46Z</time>
      </trkpt>
      <trkpt lat="43.52549" lon="5.53713">
        <ele>375</ele>
        <time>2012-03-04T12:30:50Z</time>
      </trkpt>
      <trkpt lat="43.52549" lon="5.53713">
        <ele>375</ele>
        <time>2012-03-04T12:30:50Z</time>
      </trkpt>
      <trkpt lat="43.52549" lon="5.53713">
        <ele>375</ele>
        <time>2012-03-04T12:30:52Z</time>
      </trkpt>
      <trkpt lat="43.52545" lon="5.53715">
        <ele>377</ele>
        <time>2012-03-04T12:31:04Z</time>
      </trkpt>
      <trkpt lat="43.52545" lon="5.53715">
        <ele>377</ele>
        <time>2012-03-04T12:31:04Z</time>
      </trkpt>
      <trkpt lat="43.52545" lon="5.53715">
        <ele>377</ele>
        <time>2012-03-04T12:31:06Z</time>
      </trkpt>
      <trkpt lat="43.52543" lon="5.53722">
        <ele>380</ele>
        <time>2012-03-04T12:32:24Z</time>
      </trkpt>
      <trkpt lat="43.52543" lon="5.53722">
        <ele>380</ele>
        <time>2012-03-04T12:32:24Z</time>
      </trkpt>
      <trkpt lat="43.52543" lon="5.53722">
        <ele>380</ele>
        <time>2012-03-04T12:32:44Z</time>
      </trkpt>
      <trkpt lat="43.52547" lon="5.53724">
        <ele>381</ele>
        <time>2012-03-04T12:32:58Z</time>
      </trkpt>
      <trkpt lat="43.52547" lon="5.53724">
        <ele>381</ele>
        <time>2012-03-04T12:32:58Z</time>
      </trkpt>
      <trkpt lat="43.52547" lon="5.53724">
        <ele>381</ele>
        <time>2012-03-04T12:33:05Z</time>
      </trkpt>
      <trkpt lat="43.52544" lon="5.53717">
        <ele>381</ele>
        <time>2012-03-04T12:33:29Z</time>
      </trkpt>
      <trkpt lat="43.52544" lon="5.53717">
        <ele>381</ele>
        <time>2012-03-04T12:33:29Z</time>
      </trkpt>
      <trkpt lat="43.52544" lon="5.53717">
        <ele>381</ele>
        <time>2012-03-04T12:33:41Z</time>
      </trkpt>
      <trkpt lat="43.52548" lon="5.5372">
        <ele>381</ele>
        <time>2012-03-04T12:34:03Z</time>
      </trkpt>
      <trkpt lat="43.52548" lon="5.5372">
        <ele>381</ele>
        <time>2012-03-04T12:34:03Z</time>
      </trkpt>
      <trkpt lat="43.52548" lon="5.5372">
        <ele>381</ele>
        <time>2012-03-04T12:34:04Z</time>
      </trkpt>
      <trkpt lat="43.5255" lon="5.53726">
        <ele>380</ele>
        <time>2012-03-04T12:34:10Z</time>
      </trkpt>
      <trkpt lat="43.52552" lon="5.53732">
        <ele>380</ele>
        <time>2012-03-04T12:34:14Z</time>
      </trkpt>
      <trkpt lat="43.52554" lon="5.53739">
        <ele>380</ele>
        <time>2012-03-04T12:34:17Z</time>
      </trkpt>
      <trkpt lat="43.52555" lon="5.53745">
        <ele>379</ele>
        <time>2012-03-04T12:34:21Z</time>
      </trkpt>
      <trkpt lat="43.52555" lon="5.53745">
        <ele>379</ele>
        <time>2012-03-04T12:34:21Z</time>
      </trkpt>
      <trkpt lat="43.52555" lon="5.53745">
        <ele>379</ele>
        <time>2012-03-04T12:34:26Z</time>
      </trkpt>
      <trkpt lat="43.52557" lon="5.53752">
        <ele>379</ele>
        <time>2012-03-04T12:34:29Z</time>
      </trkpt>
      <trkpt lat="43.52559" lon="5.53758">
        <ele>379</ele>
        <time>2012-03-04T12:34:33Z</time>
      </trkpt>
      <trkpt lat="43.52561" lon="5.53764">
        <ele>379</ele>
        <time>2012-03-04T12:34:36Z</time>
      </trkpt>
      <trkpt lat="43.52562" lon="5.53771">
        <ele>379</ele>
        <time>2012-03-04T12:34:39Z</time>
      </trkpt>
      <trkpt lat="43.52564" lon="5.53777">
        <ele>379</ele>
        <time>2012-03-04T12:34:42Z</time>
      </trkpt>
      <trkpt lat="43.52566" lon="5.53784">
        <ele>379</ele>
        <time>2012-03-04T12:34:44Z</time>
      </trkpt>
      <trkpt lat="43.52569" lon="5.5379">
        <ele>379</ele>
        <time>2012-03-04T12:34:47Z</time>
      </trkpt>
      <trkpt lat="43.52571" lon="5.53799">
        <ele>380</ele>
        <time>2012-03-04T12:34:49Z</time>
      </trkpt>
      <trkpt lat="43.52572" lon="5.53805">
        <ele>380</ele>
        <time>2012-03-04T12:34:51Z</time>
      </trkpt>
      <trkpt lat="43.52573" lon="5.53812">
        <ele>380</ele>
        <time>2012-03-04T12:34:53Z</time>
      </trkpt>
      <trkpt lat="43.52574" lon="5.53818">
        <ele>380</ele>
        <time>2012-03-04T12:34:55Z</time>
      </trkpt>
      <trkpt lat="43.52575" lon="5.53825">
        <ele>380</ele>
        <time>2012-03-04T12:34:57Z</time>
      </trkpt>
      <trkpt lat="43.52576" lon="5.53831">
        <ele>381</ele>
        <time>2012-03-04T12:34:59Z</time>
      </trkpt>
      <trkpt lat="43.52577" lon="5.53838">
        <ele>381</ele>
        <time>2012-03-04T12:35:02Z</time>
      </trkpt>
      <trkpt lat="43.52577" lon="5.53844">
        <ele>381</ele>
        <time>2012-03-04T12:35:04Z</time>
      </trkpt>
      <trkpt lat="43.52578" lon="5.5385">
        <ele>381</ele>
        <time>2012-03-04T12:35:07Z</time>
      </trkpt>
      <trkpt lat="43.52578" lon="5.53859">
        <ele>382</ele>
        <time>2012-03-04T12:35:10Z</time>
      </trkpt>
      <trkpt lat="43.52578" lon="5.53868">
        <ele>382</ele>
        <time>2012-03-04T12:35:13Z</time>
      </trkpt>
      <trkpt lat="43.52578" lon="5.53876">
        <ele>383</ele>
        <time>2012-03-04T12:35:16Z</time>
      </trkpt>
      <trkpt lat="43.52578" lon="5.53882">
        <ele>383</ele>
        <time>2012-03-04T12:35:18Z</time>
      </trkpt>
      <trkpt lat="43.52578" lon="5.53891">
        <ele>383</ele>
        <time>2012-03-04T12:35:20Z</time>
      </trkpt>
      <trkpt lat="43.52579" lon="5.539">
        <ele>384</ele>
        <time>2012-03-04T12:35:22Z</time>
      </trkpt>
      <trkpt lat="43.52579" lon="5.53906">
        <ele>385</ele>
        <time>2012-03-04T12:35:23Z</time>
      </trkpt>
      <trkpt lat="43.52578" lon="5.53913">
        <ele>386</ele>
        <time>2012-03-04T12:35:24Z</time>
      </trkpt>
      <trkpt lat="43.52578" lon="5.53919">
        <ele>386</ele>
        <time>2012-03-04T12:35:25Z</time>
      </trkpt>
      <trkpt lat="43.52578" lon="5.53926">
        <ele>387</ele>
        <time>2012-03-04T12:35:26Z</time>
      </trkpt>
      <trkpt lat="43.52577" lon="5.53932">
        <ele>387</ele>
        <time>2012-03-04T12:35:27Z</time>
      </trkpt>
      <trkpt lat="43.52577" lon="5.53938">
        <ele>388</ele>
        <time>2012-03-04T12:35:28Z</time>
      </trkpt>
      <trkpt lat="43.52576" lon="5.53947">
        <ele>388</ele>
        <time>2012-03-04T12:35:29Z</time>
      </trkpt>
      <trkpt lat="43.52575" lon="5.53953">
        <ele>388</ele>
        <time>2012-03-04T12:35:30Z</time>
      </trkpt>
      <trkpt lat="43.52574" lon="5.53962">
        <ele>387</ele>
        <time>2012-03-04T12:35:31Z</time>
      </trkpt>
      <trkpt lat="43.52574" lon="5.5397">
        <ele>387</ele>
        <time>2012-03-04T12:35:32Z</time>
      </trkpt>
      <trkpt lat="43.52574" lon="5.53979">
        <ele>387</ele>
        <time>2012-03-04T12:35:33Z</time>
      </trkpt>
      <trkpt lat="43.52574" lon="5.53988">
        <ele>387</ele>
        <time>2012-03-04T12:35:34Z</time>
      </trkpt>
      <trkpt lat="43.52573" lon="5.53996">
        <ele>387</ele>
        <time>2012-03-04T12:35:35Z</time>
      </trkpt>
      <trkpt lat="43.52573" lon="5.54003">
        <ele>387</ele>
        <time>2012-03-04T12:35:36Z</time>
      </trkpt>
      <trkpt lat="43.52573" lon="5.54009">
        <ele>387</ele>
        <time>2012-03-04T12:35:37Z</time>
      </trkpt>
      <trkpt lat="43.52572" lon="5.54016">
        <ele>387</ele>
        <time>2012-03-04T12:35:38Z</time>
      </trkpt>
      <trkpt lat="43.52571" lon="5.54022">
        <ele>387</ele>
        <time>2012-03-04T12:35:39Z</time>
      </trkpt>
      <trkpt lat="43.5257" lon="5.54028">
        <ele>386</ele>
        <time>2012-03-04T12:35:40Z</time>
      </trkpt>
      <trkpt lat="43.52568" lon="5.54035">
        <ele>386</ele>
        <time>2012-03-04T12:35:41Z</time>
      </trkpt>
      <trkpt lat="43.52565" lon="5.54041">
        <ele>385</ele>
        <time>2012-03-04T12:35:42Z</time>
      </trkpt>
      <trkpt lat="43.52563" lon="5.54048">
        <ele>385</ele>
        <time>2012-03-04T12:35:43Z</time>
      </trkpt>
      <trkpt lat="43.52559" lon="5.54056">
        <ele>385</ele>
        <time>2012-03-04T12:35:45Z</time>
      </trkpt>
      <trkpt lat="43.52555" lon="5.54067">
        <ele>384</ele>
        <time>2012-03-04T12:35:47Z</time>
      </trkpt>
      <trkpt lat="43.52554" lon="5.5408">
        <ele>384</ele>
        <time>2012-03-04T12:35:49Z</time>
      </trkpt>
      <trkpt lat="43.52554" lon="5.54088">
        <ele>384</ele>
        <time>2012-03-04T12:35:50Z</time>
      </trkpt>
      <trkpt lat="43.52556" lon="5.54095">
        <ele>383</ele>
        <time>2012-03-04T12:35:51Z</time>
      </trkpt>
      <trkpt lat="43.52559" lon="5.54101">
        <ele>383</ele>
        <time>2012-03-04T12:35:52Z</time>
      </trkpt>
      <trkpt lat="43.52562" lon="5.54108">
        <ele>383</ele>
        <time>2012-03-04T12:35:53Z</time>
      </trkpt>
      <trkpt lat="43.52565" lon="5.54114">
        <ele>382</ele>
        <time>2012-03-04T12:35:54Z</time>
      </trkpt>
      <trkpt lat="43.52566" lon="5.54121">
        <ele>382</ele>
        <time>2012-03-04T12:35:55Z</time>
      </trkpt>
      <trkpt lat="43.52566" lon="5.54129">
        <ele>381</ele>
        <time>2012-03-04T12:35:56Z</time>
      </trkpt>
      <trkpt lat="43.52563" lon="5.54138">
        <ele>381</ele>
        <time>2012-03-04T12:35:58Z</time>
      </trkpt>
      <trkpt lat="43.52559" lon="5.54144">
        <ele>381</ele>
        <time>2012-03-04T12:36:00Z</time>
      </trkpt>
      <trkpt lat="43.52556" lon="5.54153">
        <ele>381</ele>
        <time>2012-03-04T12:36:02Z</time>
      </trkpt>
      <trkpt lat="43.52552" lon="5.54162">
        <ele>380</ele>
        <time>2012-03-04T12:36:04Z</time>
      </trkpt>
      <trkpt lat="43.52554" lon="5.54168">
        <ele>380</ele>
        <time>2012-03-04T12:36:06Z</time>
      </trkpt>
      <trkpt lat="43.52556" lon="5.54174">
        <ele>380</ele>
        <time>2012-03-04T12:36:08Z</time>
      </trkpt>
      <trkpt lat="43.52558" lon="5.54181">
        <ele>379</ele>
        <time>2012-03-04T12:36:10Z</time>
      </trkpt>
      <trkpt lat="43.52559" lon="5.54189">
        <ele>379</ele>
        <time>2012-03-04T12:36:13Z</time>
      </trkpt>
      <trkpt lat="43.5256" lon="5.54196">
        <ele>378</ele>
        <time>2012-03-04T12:36:15Z</time>
      </trkpt>
      <trkpt lat="43.5256" lon="5.54202">
        <ele>378</ele>
        <time>2012-03-04T12:36:17Z</time>
      </trkpt>
      <trkpt lat="43.5256" lon="5.54211">
        <ele>377</ele>
        <time>2012-03-04T12:36:19Z</time>
      </trkpt>
      <trkpt lat="43.52559" lon="5.54219">
        <ele>377</ele>
        <time>2012-03-04T12:36:22Z</time>
      </trkpt>
      <trkpt lat="43.52559" lon="5.54226">
        <ele>376</ele>
        <time>2012-03-04T12:36:24Z</time>
      </trkpt>
      <trkpt lat="43.52558" lon="5.54232">
        <ele>375</ele>
        <time>2012-03-04T12:36:27Z</time>
      </trkpt>
      <trkpt lat="43.52558" lon="5.54232">
        <ele>375</ele>
        <time>2012-03-04T12:36:27Z</time>
      </trkpt>
      <trkpt lat="43.52558" lon="5.54232">
        <ele>375</ele>
        <time>2012-03-04T12:36:28Z</time>
      </trkpt>
      <trkpt lat="43.52557" lon="5.54239">
        <ele>375</ele>
        <time>2012-03-04T12:36:29Z</time>
      </trkpt>
      <trkpt lat="43.52555" lon="5.54245">
        <ele>374</ele>
        <time>2012-03-04T12:36:33Z</time>
      </trkpt>
      <trkpt lat="43.52552" lon="5.54252">
        <ele>373</ele>
        <time>2012-03-04T12:36:36Z</time>
      </trkpt>
      <trkpt lat="43.5255" lon="5.54258">
        <ele>372</ele>
        <time>2012-03-04T12:36:38Z</time>
      </trkpt>
      <trkpt lat="43.52548" lon="5.54264">
        <ele>371</ele>
        <time>2012-03-04T12:36:40Z</time>
      </trkpt>
      <trkpt lat="43.52545" lon="5.54275">
        <ele>367</ele>
        <time>2012-03-04T12:36:42Z</time>
      </trkpt>
      <trkpt lat="43.52543" lon="5.54282">
        <ele>363</ele>
        <time>2012-03-04T12:36:43Z</time>
      </trkpt>
      <trkpt lat="43.52541" lon="5.5429">
        <ele>360</ele>
        <time>2012-03-04T12:36:44Z</time>
      </trkpt>
      <trkpt lat="43.5254" lon="5.54297">
        <ele>357</ele>
        <time>2012-03-04T12:36:45Z</time>
      </trkpt>
      <trkpt lat="43.52538" lon="5.54305">
        <ele>355</ele>
        <time>2012-03-04T12:36:46Z</time>
      </trkpt>
      <trkpt lat="43.52538" lon="5.54314">
        <ele>353</ele>
        <time>2012-03-04T12:36:47Z</time>
      </trkpt>
      <trkpt lat="43.52536" lon="5.54322">
        <ele>352</ele>
        <time>2012-03-04T12:36:48Z</time>
      </trkpt>
      <trkpt lat="43.52536" lon="5.54331">
        <ele>351</ele>
        <time>2012-03-04T12:36:49Z</time>
      </trkpt>
      <trkpt lat="43.52536" lon="5.5434">
        <ele>351</ele>
        <time>2012-03-04T12:36:50Z</time>
      </trkpt>
      <trkpt lat="43.52536" lon="5.54348">
        <ele>350</ele>
        <time>2012-03-04T12:36:51Z</time>
      </trkpt>
      <trkpt lat="43.52538" lon="5.54357">
        <ele>349</ele>
        <time>2012-03-04T12:36:52Z</time>
      </trkpt>
      <trkpt lat="43.52538" lon="5.54368">
        <ele>349</ele>
        <time>2012-03-04T12:36:53Z</time>
      </trkpt>
      <trkpt lat="43.5254" lon="5.54378">
        <ele>349</ele>
        <time>2012-03-04T12:36:54Z</time>
      </trkpt>
      <trkpt lat="43.52541" lon="5.54389">
        <ele>348</ele>
        <time>2012-03-04T12:36:55Z</time>
      </trkpt>
      <trkpt lat="43.52543" lon="5.544">
        <ele>347</ele>
        <time>2012-03-04T12:36:56Z</time>
      </trkpt>
      <trkpt lat="43.52545" lon="5.54413">
        <ele>347</ele>
        <time>2012-03-04T12:36:57Z</time>
      </trkpt>
      <trkpt lat="43.52548" lon="5.54425">
        <ele>347</ele>
        <time>2012-03-04T12:36:58Z</time>
      </trkpt>
      <trkpt lat="43.5255" lon="5.54436">
        <ele>347</ele>
        <time>2012-03-04T12:36:59Z</time>
      </trkpt>
      <trkpt lat="43.52552" lon="5.54447">
        <ele>346</ele>
        <time>2012-03-04T12:37:00Z</time>
      </trkpt>
      <trkpt lat="43.52555" lon="5.5446">
        <ele>345</ele>
        <time>2012-03-04T12:37:01Z</time>
      </trkpt>
      <trkpt lat="43.52556" lon="5.5447">
        <ele>344</ele>
        <time>2012-03-04T12:37:02Z</time>
      </trkpt>
      <trkpt lat="43.52558" lon="5.54486">
        <ele>343</ele>
        <time>2012-03-04T12:37:03Z</time>
      </trkpt>
      <trkpt lat="43.5256" lon="5.54496">
        <ele>342</ele>
        <time>2012-03-04T12:37:04Z</time>
      </trkpt>
      <trkpt lat="43.52562" lon="5.54505">
        <ele>341</ele>
        <time>2012-03-04T12:37:05Z</time>
      </trkpt>
      <trkpt lat="43.52563" lon="5.54511">
        <ele>341</ele>
        <time>2012-03-04T12:37:06Z</time>
      </trkpt>
      <trkpt lat="43.52564" lon="5.5452">
        <ele>340</ele>
        <time>2012-03-04T12:37:08Z</time>
      </trkpt>
      <trkpt lat="43.52564" lon="5.54526">
        <ele>340</ele>
        <time>2012-03-04T12:37:10Z</time>
      </trkpt>
      <trkpt lat="43.52568" lon="5.54531">
        <ele>340</ele>
        <time>2012-03-04T12:37:12Z</time>
      </trkpt>
      <trkpt lat="43.52571" lon="5.54535">
        <ele>340</ele>
        <time>2012-03-04T12:37:15Z</time>
      </trkpt>
      <trkpt lat="43.52574" lon="5.54539">
        <ele>340</ele>
        <time>2012-03-04T12:37:17Z</time>
      </trkpt>
      <trkpt lat="43.52577" lon="5.54543">
        <ele>339</ele>
        <time>2012-03-04T12:37:20Z</time>
      </trkpt>
      <trkpt lat="43.5258" lon="5.5455">
        <ele>339</ele>
        <time>2012-03-04T12:37:23Z</time>
      </trkpt>
      <trkpt lat="43.52584" lon="5.54556">
        <ele>339</ele>
        <time>2012-03-04T12:37:26Z</time>
      </trkpt>
      <trkpt lat="43.52587" lon="5.54561">
        <ele>338</ele>
        <time>2012-03-04T12:37:29Z</time>
      </trkpt>
      <trkpt lat="43.5259" lon="5.54565">
        <ele>338</ele>
        <time>2012-03-04T12:37:31Z</time>
      </trkpt>
      <trkpt lat="43.52592" lon="5.54571">
        <ele>338</ele>
        <time>2012-03-04T12:37:33Z</time>
      </trkpt>
      <trkpt lat="43.52595" lon="5.54576">
        <ele>337</ele>
        <time>2012-03-04T12:37:35Z</time>
      </trkpt>
      <trkpt lat="43.52599" lon="5.54582">
        <ele>337</ele>
        <time>2012-03-04T12:37:38Z</time>
      </trkpt>
      <trkpt lat="43.52602" lon="5.54588">
        <ele>336</ele>
        <time>2012-03-04T12:37:40Z</time>
      </trkpt>
      <trkpt lat="43.52605" lon="5.54593">
        <ele>336</ele>
        <time>2012-03-04T12:37:42Z</time>
      </trkpt>
      <trkpt lat="43.52608" lon="5.54599">
        <ele>336</ele>
        <time>2012-03-04T12:37:44Z</time>
      </trkpt>
      <trkpt lat="43.52613" lon="5.54608">
        <ele>336</ele>
        <time>2012-03-04T12:37:46Z</time>
      </trkpt>
      <trkpt lat="43.52617" lon="5.54614">
        <ele>335</ele>
        <time>2012-03-04T12:37:48Z</time>
      </trkpt>
      <trkpt lat="43.5262" lon="5.54621">
        <ele>335</ele>
        <time>2012-03-04T12:37:50Z</time>
      </trkpt>
      <trkpt lat="43.52624" lon="5.54627">
        <ele>335</ele>
        <time>2012-03-04T12:37:52Z</time>
      </trkpt>
      <trkpt lat="43.52628" lon="5.54634">
        <ele>335</ele>
        <time>2012-03-04T12:37:54Z</time>
      </trkpt>
      <trkpt lat="43.52631" lon="5.54638">
        <ele>335</ele>
        <time>2012-03-04T12:37:56Z</time>
      </trkpt>
      <trkpt lat="43.52633" lon="5.54644">
        <ele>334</ele>
        <time>2012-03-04T12:37:58Z</time>
      </trkpt>
      <trkpt lat="43.52636" lon="5.54651">
        <ele>334</ele>
        <time>2012-03-04T12:38:00Z</time>
      </trkpt>
      <trkpt lat="43.5264" lon="5.54659">
        <ele>334</ele>
        <time>2012-03-04T12:38:02Z</time>
      </trkpt>
      <trkpt lat="43.52644" lon="5.54666">
        <ele>334</ele>
        <time>2012-03-04T12:38:04Z</time>
      </trkpt>
      <trkpt lat="43.52648" lon="5.54672">
        <ele>334</ele>
        <time>2012-03-04T12:38:06Z</time>
      </trkpt>
      <trkpt lat="43.52651" lon="5.54681">
        <ele>334</ele>
        <time>2012-03-04T12:38:08Z</time>
      </trkpt>
      <trkpt lat="43.52656" lon="5.54689">
        <ele>333</ele>
        <time>2012-03-04T12:38:10Z</time>
      </trkpt>
      <trkpt lat="43.5266" lon="5.54696">
        <ele>333</ele>
        <time>2012-03-04T12:38:12Z</time>
      </trkpt>
      <trkpt lat="43.52664" lon="5.54704">
        <ele>333</ele>
        <time>2012-03-04T12:38:14Z</time>
      </trkpt>
      <trkpt lat="43.52667" lon="5.54709">
        <ele>333</ele>
        <time>2012-03-04T12:38:15Z</time>
      </trkpt>
      <trkpt lat="43.52673" lon="5.54717">
        <ele>333</ele>
        <time>2012-03-04T12:38:17Z</time>
      </trkpt>
      <trkpt lat="43.52677" lon="5.54724">
        <ele>332</ele>
        <time>2012-03-04T12:38:19Z</time>
      </trkpt>
      <trkpt lat="43.52682" lon="5.54732">
        <ele>331</ele>
        <time>2012-03-04T12:38:21Z</time>
      </trkpt>
      <trkpt lat="43.52688" lon="5.54739">
        <ele>328</ele>
        <time>2012-03-04T12:38:23Z</time>
      </trkpt>
      <trkpt lat="43.52691" lon="5.54743">
        <ele>328</ele>
        <time>2012-03-04T12:38:24Z</time>
      </trkpt>
      <trkpt lat="43.52694" lon="5.54747">
        <ele>327</ele>
        <time>2012-03-04T12:38:25Z</time>
      </trkpt>
      <trkpt lat="43.527" lon="5.54754">
        <ele>326</ele>
        <time>2012-03-04T12:38:27Z</time>
      </trkpt>
      <trkpt lat="43.52704" lon="5.54758">
        <ele>326</ele>
        <time>2012-03-04T12:38:28Z</time>
      </trkpt>
      <trkpt lat="43.5271" lon="5.54762">
        <ele>326</ele>
        <time>2012-03-04T12:38:30Z</time>
      </trkpt>
      <trkpt lat="43.52714" lon="5.54764">
        <ele>325</ele>
        <time>2012-03-04T12:38:31Z</time>
      </trkpt>
      <trkpt lat="43.52721" lon="5.54769">
        <ele>325</ele>
        <time>2012-03-04T12:38:33Z</time>
      </trkpt>
      <trkpt lat="43.52725" lon="5.54773">
        <ele>325</ele>
        <time>2012-03-04T12:38:35Z</time>
      </trkpt>
      <trkpt lat="43.52728" lon="5.5478">
        <ele>325</ele>
        <time>2012-03-04T12:38:37Z</time>
      </trkpt>
      <trkpt lat="43.5273" lon="5.54788">
        <ele>325</ele>
        <time>2012-03-04T12:38:39Z</time>
      </trkpt>
      <trkpt lat="43.52731" lon="5.54794">
        <ele>325</ele>
        <time>2012-03-04T12:38:41Z</time>
      </trkpt>
      <trkpt lat="43.5273" lon="5.54801">
        <ele>325</ele>
        <time>2012-03-04T12:38:43Z</time>
      </trkpt>
      <trkpt lat="43.52726" lon="5.54807">
        <ele>325</ele>
        <time>2012-03-04T12:38:46Z</time>
      </trkpt>
      <trkpt lat="43.52726" lon="5.54807">
        <ele>325</ele>
        <time>2012-03-04T12:38:46Z</time>
      </trkpt>
      <trkpt lat="43.52726" lon="5.54807">
        <ele>325</ele>
        <time>2012-03-04T12:39:39Z</time>
      </trkpt>
      <trkpt lat="43.52722" lon="5.54814">
        <ele>326</ele>
        <time>2012-03-04T12:39:42Z</time>
      </trkpt>
      <trkpt lat="43.52719" lon="5.5482">
        <ele>326</ele>
        <time>2012-03-04T12:39:44Z</time>
      </trkpt>
      <trkpt lat="43.52717" lon="5.54827">
        <ele>326</ele>
        <time>2012-03-04T12:39:46Z</time>
      </trkpt>
      <trkpt lat="43.52714" lon="5.54833">
        <ele>326</ele>
        <time>2012-03-04T12:39:48Z</time>
      </trkpt>
      <trkpt lat="43.5271" lon="5.5484">
        <ele>327</ele>
        <time>2012-03-04T12:39:51Z</time>
      </trkpt>
      <trkpt lat="43.52707" lon="5.54846">
        <ele>327</ele>
        <time>2012-03-04T12:39:53Z</time>
      </trkpt>
      <trkpt lat="43.52703" lon="5.5485">
        <ele>327</ele>
        <time>2012-03-04T12:39:55Z</time>
      </trkpt>
      <trkpt lat="43.52697" lon="5.54852">
        <ele>327</ele>
        <time>2012-03-04T12:39:57Z</time>
      </trkpt>
      <trkpt lat="43.52691" lon="5.5485">
        <ele>327</ele>
        <time>2012-03-04T12:40:06Z</time>
      </trkpt>
      <trkpt lat="43.52684" lon="5.5485">
        <ele>327</ele>
        <time>2012-03-04T12:40:10Z</time>
      </trkpt>
      <trkpt lat="43.52678" lon="5.54852">
        <ele>327</ele>
        <time>2012-03-04T12:40:13Z</time>
      </trkpt>
      <trkpt lat="43.52673" lon="5.54852">
        <ele>327</ele>
        <time>2012-03-04T12:40:15Z</time>
      </trkpt>
      <trkpt lat="43.52666" lon="5.54852">
        <ele>327</ele>
        <time>2012-03-04T12:40:17Z</time>
      </trkpt>
      <trkpt lat="43.5266" lon="5.5485">
        <ele>327</ele>
        <time>2012-03-04T12:40:19Z</time>
      </trkpt>
      <trkpt lat="43.52652" lon="5.54848">
        <ele>327</ele>
        <time>2012-03-04T12:40:21Z</time>
      </trkpt>
      <trkpt lat="43.52645" lon="5.54846">
        <ele>327</ele>
        <time>2012-03-04T12:40:23Z</time>
      </trkpt>
      <trkpt lat="43.52637" lon="5.54842">
        <ele>328</ele>
        <time>2012-03-04T12:40:25Z</time>
      </trkpt>
      <trkpt lat="43.5263" lon="5.5484">
        <ele>328</ele>
        <time>2012-03-04T12:40:27Z</time>
      </trkpt>
      <trkpt lat="43.52624" lon="5.54837">
        <ele>327</ele>
        <time>2012-03-04T12:40:29Z</time>
      </trkpt>
      <trkpt lat="43.52618" lon="5.54835">
        <ele>327</ele>
        <time>2012-03-04T12:40:31Z</time>
      </trkpt>
      <trkpt lat="43.52613" lon="5.54831">
        <ele>327</ele>
        <time>2012-03-04T12:40:33Z</time>
      </trkpt>
      <trkpt lat="43.52606" lon="5.54827">
        <ele>327</ele>
        <time>2012-03-04T12:40:35Z</time>
      </trkpt>
      <trkpt lat="43.526" lon="5.54824">
        <ele>327</ele>
        <time>2012-03-04T12:40:37Z</time>
      </trkpt>
      <trkpt lat="43.52593" lon="5.5482">
        <ele>328</ele>
        <time>2012-03-04T12:40:39Z</time>
      </trkpt>
      <trkpt lat="43.52586" lon="5.54818">
        <ele>327</ele>
        <time>2012-03-04T12:40:41Z</time>
      </trkpt>
      <trkpt lat="43.52578" lon="5.54816">
        <ele>327</ele>
        <time>2012-03-04T12:40:43Z</time>
      </trkpt>
      <trkpt lat="43.52573" lon="5.5481">
        <ele>327</ele>
        <time>2012-03-04T12:40:45Z</time>
      </trkpt>
      <trkpt lat="43.5257" lon="5.54801">
        <ele>327</ele>
        <time>2012-03-04T12:40:48Z</time>
      </trkpt>
      <trkpt lat="43.52566" lon="5.54792">
        <ele>327</ele>
        <time>2012-03-04T12:40:51Z</time>
      </trkpt>
      <trkpt lat="43.52562" lon="5.54786">
        <ele>327</ele>
        <time>2012-03-04T12:40:54Z</time>
      </trkpt>
      <trkpt lat="43.52559" lon="5.5478">
        <ele>326</ele>
        <time>2012-03-04T12:40:57Z</time>
      </trkpt>
      <trkpt lat="43.52557" lon="5.54773">
        <ele>326</ele>
        <time>2012-03-04T12:40:59Z</time>
      </trkpt>
      <trkpt lat="43.52554" lon="5.54767">
        <ele>326</ele>
        <time>2012-03-04T12:41:01Z</time>
      </trkpt>
      <trkpt lat="43.52551" lon="5.54758">
        <ele>326</ele>
        <time>2012-03-04T12:41:04Z</time>
      </trkpt>
      <trkpt lat="43.52549" lon="5.54749">
        <ele>326</ele>
        <time>2012-03-04T12:41:06Z</time>
      </trkpt>
      <trkpt lat="43.52546" lon="5.54743">
        <ele>325</ele>
        <time>2012-03-04T12:41:09Z</time>
      </trkpt>
      <trkpt lat="43.52541" lon="5.54741">
        <ele>325</ele>
        <time>2012-03-04T12:41:12Z</time>
      </trkpt>
      <trkpt lat="43.52535" lon="5.54737">
        <ele>324</ele>
        <time>2012-03-04T12:41:19Z</time>
      </trkpt>
      <trkpt lat="43.52529" lon="5.54734">
        <ele>324</ele>
        <time>2012-03-04T12:41:22Z</time>
      </trkpt>
      <trkpt lat="43.52524" lon="5.54732">
        <ele>324</ele>
        <time>2012-03-04T12:41:24Z</time>
      </trkpt>
      <trkpt lat="43.52516" lon="5.54732">
        <ele>324</ele>
        <time>2012-03-04T12:41:27Z</time>
      </trkpt>
      <trkpt lat="43.5251" lon="5.54732">
        <ele>323</ele>
        <time>2012-03-04T12:41:29Z</time>
      </trkpt>
      <trkpt lat="43.52503" lon="5.54732">
        <ele>323</ele>
        <time>2012-03-04T12:41:31Z</time>
      </trkpt>
      <trkpt lat="43.52497" lon="5.54732">
        <ele>323</ele>
        <time>2012-03-04T12:41:33Z</time>
      </trkpt>
      <trkpt lat="43.5249" lon="5.5473">
        <ele>323</ele>
        <time>2012-03-04T12:41:35Z</time>
      </trkpt>
      <trkpt lat="43.52483" lon="5.54724">
        <ele>322</ele>
        <time>2012-03-04T12:41:37Z</time>
      </trkpt>
      <trkpt lat="43.52476" lon="5.54717">
        <ele>321</ele>
        <time>2012-03-04T12:41:39Z</time>
      </trkpt>
      <trkpt lat="43.52472" lon="5.54713">
        <ele>321</ele>
        <time>2012-03-04T12:41:41Z</time>
      </trkpt>
      <trkpt lat="43.52466" lon="5.54715">
        <ele>321</ele>
        <time>2012-03-04T12:41:44Z</time>
      </trkpt>
      <trkpt lat="43.52459" lon="5.54717">
        <ele>320</ele>
        <time>2012-03-04T12:41:47Z</time>
      </trkpt>
      <trkpt lat="43.52453" lon="5.54719">
        <ele>320</ele>
        <time>2012-03-04T12:41:50Z</time>
      </trkpt>
      <trkpt lat="43.52447" lon="5.54722">
        <ele>319</ele>
        <time>2012-03-04T12:41:53Z</time>
      </trkpt>
      <trkpt lat="43.52443" lon="5.54724">
        <ele>319</ele>
        <time>2012-03-04T12:41:56Z</time>
      </trkpt>
      <trkpt lat="43.52439" lon="5.54728">
        <ele>319</ele>
        <time>2012-03-04T12:41:58Z</time>
      </trkpt>
      <trkpt lat="43.52433" lon="5.5473">
        <ele>318</ele>
        <time>2012-03-04T12:42:01Z</time>
      </trkpt>
      <trkpt lat="43.52429" lon="5.54734">
        <ele>318</ele>
        <time>2012-03-04T12:42:04Z</time>
      </trkpt>
      <trkpt lat="43.52425" lon="5.54737">
        <ele>317</ele>
        <time>2012-03-04T12:42:07Z</time>
      </trkpt>
      <trkpt lat="43.52419" lon="5.54737">
        <ele>317</ele>
        <time>2012-03-04T12:42:10Z</time>
      </trkpt>
      <trkpt lat="43.52415" lon="5.5473">
        <ele>317</ele>
        <time>2012-03-04T12:42:12Z</time>
      </trkpt>
      <trkpt lat="43.52408" lon="5.5473">
        <ele>314</ele>
        <time>2012-03-04T12:42:14Z</time>
      </trkpt>
      <trkpt lat="43.52401" lon="5.54732">
        <ele>313</ele>
        <time>2012-03-04T12:42:16Z</time>
      </trkpt>
      <trkpt lat="43.52396" lon="5.54734">
        <ele>313</ele>
        <time>2012-03-04T12:42:18Z</time>
      </trkpt>
    </trkseg>
  </trk>
</gpx>